     2.10           OBSERVATION DATA    G (GPS)             RINEX VERSION / TYPE
teqc 2003Nov3 GPS Data Processor 20031211 22:30:38UTC       PGM / RUN BY / DATE
Solaris 2.7|Ultra 2|cc SC5.0|=+-|*Sparc                     COMMENT
2 OBSERVATION DATA                                          COMMENT
ASRINEXO V2.2.0 UX USGS 17-OCT-94 16:28                     COMMENT
HI'S ARE VERT TO BASE OF ANTENNA                            COMMENT
cove Covelo_1942_USC&GS                                     MARKER NAME
                                                            MARKER NUMBER
TNP USGS                                                    OBSERVER / AGENCY
764 ASHTECH L-XII 6A                                        REC # / TYPE / VERS
0598 ASH700228A NONE                                        ANT # / TYPE
 -2691604.0000 -4105678.0000  4058740.0000                  APPROX POSITION XYZ
        1.1396        0.0000        0.0000                  ANTENNA: DELTA H/E/N
     1     1                                                WAVELENGTH FACT L1/2
     3    L1    L2    C1                                    # / TYPES OF OBSERV
    30.0000                                                 INTERVAL
                                                            COMMENT
Receiver type modified to reflect codeless receiver         COMMENT
Original receiver designation: ASHTECH LM-XII3              COMMENT
                                                            COMMENT
                                                            COMMENT
  1992     5     9     2     3    0.0000000     GPS         TIME OF FIRST OBS
                                                            END OF HEADER
 92  5  9  2  3  0.0000000  0  3G12G20G24
     92443.569 7     72034.05925  22033607.647
    -24908.833 7    -19409.67529  21405444.725
     31233.151 8     24337.30729  20439517.901
 92  5  9  2  3 30.0000000  0  3G12G20G24
    187568.845 6    146157.56124  22351498.577
    -92121.612 7    -71783.19128  21692448.037
     64198.405 9     50024.53329  20745586.833
 92  5  9  2  4  0.0000000  0  3G12G20G24
    283802.071 6    221144.45926  22070021.644
   -158305.052 7   -123354.66828  21380063.383
     98371.840 8     76653.17429  20452296.277
 92  5  9  2  5  0.0000000  0  3G12G20G24
    479336.366 6    373508.69325  22107228.580
   -287775.275 8   -224240.48227  21355426.154
    170099.782 9    132545.08729  20465946.710
 92  5  9  2  5 30.0000000  0  3G12G20G24
    578634.100 7    450883.49125  23025504.861
   -351043.625 8   -273540.45828  22242763.548
    207679.424 9    161827.95729  21372474.144
 92  5  9  2  6  0.0000000  0  4G12G20G 3G24
    678982.475 6    529076.97725  22145220.077
   -413340.460 8   -322083.40329  21331531.501
   -202960.896 5   -158151.4852   24201600.572
    246417.460 9    192013.45529  20480468.362
 92  5  9  2  6 30.0000000  0  4G12G20G 3G24
    780300.975 6    608026.36625  22464290.712
   -474686.745 8   -369885.67029  21619650.929
   -269874.076 5   -210291.42022  24488660.248
    286250.011 9    223051.82129  20787839.883
 92  5  9  2  7  0.0000000  0  5G12G16G20G 3G24
    882567.961 6    687714.85026  22483749.310
   -212656.378 5   -165706.49323  23496043.212
   -535125.955 8   -416981.12129  21608147.885
   -336093.354 5   -261890.70423  24476060.877
    327148.191 8    254920.55129  20795624.006
 92  5  9  2  7 30.0000000  0  5G12G16G20G 3G24
    985748.015 6    768114.81526  22503387.820
   -288083.024 5   -224480.35623  23481687.965
   -594683.164 8   -463389.32528  21596812.154
   -401645.574 5   -312970.18821  24463581.424
    369053.532 8    287574.05629  20803596.662
 92  5  9  2  8  0.0000000  0  5G12G16G20G 3G24
   1089807.236 6    849199.85824  22523191.828
   -362799.804 5   -282701.06224  23467463.699
   -653386.456 8   -509132.10128  21585645.166
   -466562.276 5   -363554.47023  24451236.267
    411923.484 8    320979.23829  20811757.605
 92  5  9  2  8 30.0000000  0  5G12G16G20G 3G24
   1194725.517 6    930954.27825  22543156.797
   -436834.586 5   -340390.42922  23453370.170
   -711250.634 8   -554221.02428  21574633.206
   -530860.062 4   -413656.48021  24439004.118
    455745.502 8    355126.26629  20820094.551
 92  5  9  2  9  0.0000000  0  5G12G16G20G 3G24
   1300462.241 6   1013346.47025  22563271.383
   -510214.188 6   -397569.18822  23439419.315
   -768311.369 8   -598683.91627  21563773.517
   -594576.969 5   -463305.87422  24426875.728
    500478.166 8    389982.89829  20828608.652
 92  5  9  2  9 30.0000000  0  5G12G16G20G 3G24
   1406997.826 7   1096361.13825  22583554.121
   -582932.234 5   -454232.48223  23425567.716
   -824582.868 8   -642531.80827  21553065.540
   -657729.929 4   -512515.80321  24414842.651
    546094.172 8    425527.82429  20837288.844
 92  5  9  2 10  0.0000000  0  5G12G16G20G 3G24
   1514310.787 6   1179981.58224  22603975.692
   -654999.396 5   -510388.58024  23411851.007
   -880080.772 8   -685776.91328  21542508.333
   -720337.074 5   -561300.43122  24402942.685
    592589.107 8    461757.64829  20846135.406
 92  5  9  2 10 30.0000000  0  5G12G16G20G 3G24
   1622384.976 6   1264195.13925  22624537.842
   -726428.765 6   -566047.69524  23398265.908
   -934816.521 8   -728428.10927  21532090.239
   -782411.890 4   -609670.23722  24391132.377
    639945.909 8    498659.05529  20855147.781
 92  5  9  2 11  0.0000000  0  5G12G16G20G 3G24
   1731190.910 6   1348978.91924  22645243.607
   -797227.433 5   -621215.34422  23384798.353
   -988814.039 8   -770504.08626  21521812.165
   -843980.906 4   -657645.98623  24379407.192
    688120.299 9    536197.53629  20864314.241
 92  5  9  2 11 30.0000000  0  5G12G16G20G 3G24
   1840711.276 6   1434319.38025  22666082.796
   -867419.690 5   -675910.48624  23371435.395
  -1042085.330 8   -812014.19127  21511676.485
   -905058.543 5   -705238.78422  24367797.423
    737102.054 8    574365.13729  20873634.192
 92  5  9  2 12  0.0000000  0  4G12G16G20G24
   1950932.067 6   1520205.63724  22687055.690
   -937028.997 6   -730151.41923  23358195.950
  -1094639.029 7   -852965.12028  21501672.415
    786891.686 9    613162.24222  20883112.139
 92  5  9  2 12 30.0000000  0  4G12G16G20G24
   2061830.156 6   1606619.67426  22708165.253
  -1006072.336 6   -783951.26524  23345055.168
  -1146492.547 7   -893370.44428  21491808.330
    837460.146 9    652566.21229  20892733.072
 92  5  9  2 13  0.0000000  0  4G12G16G20G24
   2173395.422 6   1693553.53825  22729390.267
  -1074556.625 6   -837315.55624  23332018.076
  -1197651.067 7   -933234.22128  21482074.075
    888809.233 9    692578.50429  20902504.810
 92  5  9  2 13 30.0000000  0  4G12G16G20G24
   2285609.081 6   1780992.69025  22750741.481
  -1142502.822 6   -890260.51424  23319096.434
  -1248127.673 7   -972566.63128  21472468.708
    940939.632 9    733199.60529  20912424.945
 92  5  9  2 14  0.0000000  0  4G12G16G20G24
   2398456.405 6   1868925.60125  22772219.209
  -1209904.602 6   -942781.29725  23306265.603
  -1297931.968 8  -1011375.18129  21462991.390
    993835.117 9    774416.86329  20922489.846
 92  5  9  2 14 30.0000000  0  5G12G16G20G 3G24
   2511922.986 6   1957341.03925  22793818.076
  -1276762.968 6   -994878.63525  23293539.717
  -1347072.643 7  -1049666.60628  21453638.457
    -22340.96214    -17407.36421  24299877.336
   1047483.525 8    816220.82729  20932699.306
 92  5  9  2 15  0.0000000  0  5G12G16G20G 3G24
   2626007.947 6   2046238.32625  22815517.038
  -1343068.507 6  -1046545.17824  23280924.745
  -1395545.309 8  -1087437.48828  21444416.226
    -80332.946 4    -62595.81322  24288838.677
   1101891.140 8    858616.35229  20943049.030
 92  5  9  2 15 30.0000000  0  5G12G16G20G 3G24
   2740702.176 6   2135610.36625  22837347.330
  -1408822.411 6  -1097781.87424  23268415.627
  -1443353.605 8  -1124690.71129  21435317.543
   -137915.278 4   -107464.97222  24277869.296
   1157042.773 9    901591.64829  20953546.278
 92  5  9  2 16  0.0000000  0  5G12G16G20G 3G24
   2855983.887 6   2225440.18525  22859277.158
  -1474042.252 6  -1148602.43924  23256005.102
  -1490514.120 7  -1161439.15129  21426342.059
   -195106.804 4   -152029.68721  24266990.726
   1212910.779 9    945125.14829  20964179.289
 92  5  9  2 16 30.0000000  0  5G12G16G20G 3G24
   2971835.889 6   2315714.38925  22881325.683
  -1538754.592 6  -1199027.54723  23243691.739
  -1537038.908 7  -1197692.21729  21417490.680
   -251921.704 5   -196300.88423  24256189.180
   1269474.596 8    989200.86829  20974938.535
 92  5  9  2 17  0.0000000  0  5G12G16G20G 3G24
   3088246.323 6   2406423.76124  22903482.748
  -1602962.288 6  -1249059.40824  23231469.188
  -1582934.118 7  -1233454.71128  21408754.124
   -308368.745 5   -240285.47721  24245441.033
   1326717.440 8   1033805.68529  20985835.393
 92  5  9  2 17 30.0000000  0  5G12G16G20G 3G24
   3205203.361 6   2497558.98124  22925739.628
  -1666671.718 5  -1298703.04025  23219344.986
  -1628205.926 8  -1268731.44429  21400139.579
   -364456.727 5   -283990.23422  24234766.316
   1384629.282 7   1078931.78329  20996854.891
 92  5  9  2 18  0.0000000  0  5G12G16G20G 3G24
   3322703.150 6   2589117.16825  22948100.267
  -1729872.896 6  -1347950.61224  23207320.600
  -1672852.887 8  -1303521.27029  21391642.580
   -420186.796 6   -327416.16022  24224162.377
   1443201.959 7   1124572.79829  21007999.054
 92  5  9  2 18 30.0000000  0  5G12G16G20G 3G24
   3440747.186 6   2681099.45625  22970559.814
  -1792542.529 5  -1396783.95825  23195383.778
  -1716868.585 8  -1337819.20428  21383266.685
   -475554.300 5   -370559.52022  24213632.462
   1502439.523 7   1170731.91729  21019274.268
 92  5  9  2 19  0.0000000  0  5G12G16G20G 3G24
   3559319.145 6   2773493.10924  22993120.992
  -1854678.052 5  -1445201.15625  23183574.343
  -1760263.585 8  -1371633.48329  21375010.987
   -530572.538 5   -413430.78422  24203160.412
   1562336.896 8   1217405.18229  21030673.274
 92  5  9  2 19 30.0000000  0  5G12G16G20G 3G24
   3678402.496 6   2866285.22325  23015792.210
  -1916300.198 6  -1493218.33325  23171841.061
  -1803048.658 8  -1404972.48828  21366868.925
   -585255.122 5   -456040.41023  24192754.917
   1622877.635 7   1264579.80828  21042191.883
 92  5  9  2 20  0.0000000  0  5G12G16G20G 3G24
   3797986.959 6   2959467.88825  23038545.549
  -1977425.427 6  -1540848.26924  23160212.131
  -1845229.221 8  -1437840.45129  21358842.278
   -639609.681 5   -498394.45321  24182405.472
   1684050.868 7   1312247.26628  21053833.726
 92  5  9  2 20 30.0000000  0  5G12G16G20G 3G24
   3918059.774 6   3053030.99325  23061392.735
  -2038069.135 6  -1588102.99725  23148672.512
  -1886812.175 8  -1470242.74528  21350926.859
   -693645.229 5   -540499.99422  24172122.896
   1745857.047 7   1360407.91328  21065596.988
 92  5  9  2 21  0.0000000  0  5G12G16G20G 3G24
   4038612.971 6   3146968.46825  23084336.456
  -2098256.512 5  -1635002.16124  23137218.049
  -1927800.359 8  -1502181.57428  21343130.765
   -747367.614 5   -582361.42822  24161899.651
   1808284.138 6   1409052.37927  21077468.476
 92  5  9  2 21 30.0000000  0  5G12G16G20G 3G24
   4159637.906 6   3241273.52225  23107356.294
  -2157997.627 6  -1681553.57425  23125852.897
  -1968196.991 8  -1533659.46828  21335443.770
   -800781.884 5   -623982.84022  24151745.684
   1871315.853 7   1458167.99127  21089471.259
 92  5  9  2 22  0.0000000  0  5G12G16G20G 3G24
   4281130.470 6   3335942.96324  23130474.203
  -2217273.765 6  -1727742.69125  23114563.932
  -2008000.696 8  -1564675.30028  21327869.223
   -853889.506 5   -665365.35822  24141629.199
   1934948.090 7   1507751.56527  21101578.988
 92  5  9  2 22 30.0000000  0  5G12G16G20G 3G24
   4403078.713 6   3430967.48825  23153690.147
  -2276079.424 6  -1773565.19324  23103378.971
  -2047217.808 9  -1595234.05429  21320408.278
   -906698.977 5   -706515.47424  24131576.861
   1999170.984 7   1557795.39527  21113799.724
 92  5  9  2 23  0.0000000  0  5G12G16G20G 3G24
   4525478.337 6   3526343.73724  23176982.209
  -2334413.331 5  -1819020.10424  23092273.164
  -2085847.351 8  -1625334.97429  21313053.186
   -959212.176 4   -747434.73924  24121591.079
   2063974.483 7   1608291.64428  21126128.094
 92  5  9  2 23 30.0010000  0  5G12G16G20G 3G24
   4648336.547 6   3622077.30924  23200354.633
  -2392240.812 6  -1864080.38925  23081265.378
  -2123882.226 9  -1654972.52529  21305817.997
  -1011424.539 4   -788119.63223  24111649.955
   2129369.685 6   1659248.94428  21138566.769
 92  5  9  2 24  0.0010000  0  5G12G16G20G 3G24
   4771638.234 6   3718156.45725  23223813.379
  -2449554.823 6  -1908740.57925  23070361.609
  -2161321.120 9  -1684145.66729  21298694.923
  -1063335.789 4   -828569.87624  24101787.092
   2195353.137 6   1710664.59827  21151137.383
 92  5  9  2 24 30.0010000  0  5G12G16G20G 3G24
   4895374.280 6   3814574.08624  23247370.789
  -2506384.518 6  -1953023.35424  23059551.688
  -2198173.309 9  -1712861.63529  21291679.482
  -1114958.715 4   -868795.46924  24091952.079
   2261922.083 6   1762536.45228  21163796.992
 92  5  9  2 25  0.0010000  0  5G12G16G20G 3G24
   5019524.401 6   3911314.33524  23270996.220
  -2562744.583 6  -1996940.20325  23048822.421
  -2234453.869 9  -1741132.18929  21284777.362
  -1166310.362 4   -908809.63423  24082180.970
   2329050.892 6   1814844.61828  21176566.363
 92  5  9  2 25 30.0010000  0  5G12G16G20G 3G24
   5144079.828 6   4008370.41424  23294694.803
  -2618634.933 6  -2040491.01424  23038187.002
  -2270165.612 8  -1768959.51929  21277980.154
  -1217396.558 4   -948616.95324  24072454.497
   2396734.369 6   1867584.99027  21189454.152
 92  5  9  2 26  0.0010000  0  5G12G16G20G 3G24
   5269027.421 6   4105732.07723  23318468.665
  -2674092.907 6  -2083704.92025  23027643.581
  -2305316.482 8  -1796349.77629  21271289.077
  -1268227.385 5   -988225.32324  24062783.482
   2464962.739 6   1920749.95128  21202440.255
 92  5  9  2 26 30.0010000  0  5G12G16G20G 3G24
   5394352.901 6   4203388.19024  23342321.054
  -2729130.482 6  -2126591.28025  23017168.529
  -2339915.403 8  -1823309.95129  21264707.448
  -1318813.774 5  -1027643.18724  24053159.827
   2533714.691 7   1974322.89127  21215519.612
 92  5  9  2 27  0.0010000  0  5G12G16G20G 3G24
   5520048.276 6   4301332.56724  23366238.497
  -2783728.580 6  -2169135.12325  23006775.633
  -2373964.932 8  -1849842.04029  21258228.322
  -1369161.184 5  -1066874.79924  24043579.692
   2602976.586 7   2028293.19428  21228701.192
 92  5  9  2 27 30.0010000  0  5G12G16G20G 3G24
   5646109.886 6   4399562.27224  23390229.964
  -2837884.906 6  -2211334.75923  22996478.085
  -2407463.475 8  -1875944.78629  21251851.140
  -1419269.850 5  -1105920.42724  24034038.785
   2672757.967 7   2082668.29828  21241981.087
 92  5  9  2 28  0.0010000  0  5G12G16G20G 3G24
   5772532.908 6   4498073.64822  23414287.113
  -2891595.697 6  -2253187.24824  22986247.057
  -2440410.303 8  -1901617.62629  21245582.498
  -1469141.839 5  -1144781.61424  24024555.744
   2743046.987 7   2137438.95228  21255352.142
 92  5  9  2 28 30.0010000  0  5G12G16G20G 3G24
   5899313.988 6   4596863.98522  23438411.725
  -2944837.052 6  -2294673.90725  22976112.285
  -2472803.474 8  -1926859.06029  21239419.360
  -1518777.064 5  -1183458.28922  24015104.496
   2813835.122 7   2192598.54827  21268828.387
 92  5  9  2 29  0.0010000  0  5G12G16G20G 3G24
   6026447.555 6   4695928.99822  23462606.487
  -2997606.623 6  -2335792.99625  22966071.918
  -2504643.043 8  -1951669.10429  21233360.261
  -1568178.511 5  -1221952.80323  24005706.891
   2885127.139 7   2248150.78226  21282389.509
 92  5  9  2 29 30.0010000  0  5G12G16G20G 3G24
   6153922.655 6   4795260.15924  23486861.487
  -3049927.709 6  -2376562.56325  22956117.023
  -2535934.648 8  -1976052.14729  21227404.257
  -1617354.057 5  -1260271.32222  23996347.362
   2956904.790 6   2304081.42726  21296050.447
 92  5  9  2 30  0.0010000  0  5G12G16G20G 3G24
   6281739.183 6   4894857.36023  23511182.134
  -3101794.793 6  -2416978.41725  22946250.251
  -2566673.086 8  -2000004.17129  21221555.014
  -1666300.667 5  -1298411.39122  23987034.914
   3029161.533 6   2360385.41226  21309791.133
 92  5  9  2 30 30.0010000  0  5G12G16G20G 3G24
   6409891.147 6   4994715.94223  23535577.155
  -3153211.511 6  -2457043.32125  22936458.724
  -2596858.813 8  -2023525.50229  21215811.589
  -1715021.207 5  -1336375.36722  23977767.138
   3101905.834 6   2417069.26626  21323638.264
 92  5  9  2 31  0.0010000  0  5G12G16G20G 3G24
   6538384.010 6   5094840.11323  23560022.222
  -3204180.867 6  -2496759.59523  22926764.326
  -2626481.199 8  -2046607.87829  21210175.797
  -1763507.565 4  -1374156.76722  23968539.533
   3175158.268 6   2474149.13826  21337585.490
 92  5  9  2 31 30.0010000  0  5G12G16G20G 3G24
   6667204.700 6   5195219.78423  23584530.879
  -3254708.979 6  -2536132.06426  22917144.893
  -2655547.815 8  -2069257.17629  21204644.915
  -1811769.418 5  -1411763.32021  23959360.474
   3248903.147 6   2531612.68225  21351610.405
 92  5  9  2 32  0.0010000  0  5G12G16G20G 3G24
   6796337.204 6   5295842.39224  23609112.966
  -3304793.551 6  -2575158.92426  22907618.086
  -2684069.425 8  -2091481.80629  21199214.478
  -1859819.701 4  -1449204.97722  23950208.428
   3323143.931 6   2589462.68626  21365744.418
 92  5  9  2 32 30.0010000  0  5G12G16G20G 3G24
   6925782.568 6   5396708.81022  23633747.508
  -3354433.514 6  -2613839.30825  22898166.839
  -2712039.823 8  -2113276.91729  21193895.861
  -1907654.675 5  -1486478.89422  23941112.397
   3397886.585 5   2647703.70126  21379967.463
 92  5  9  2 33  0.0010000  0  5G12G16G20G 3G24
   7055541.181 6   5497819.29822  23658437.821
  -3403616.305 6  -2652163.44825  22888816.908
  -2739453.080 8  -2134637.89029  21188675.279
  -1955270.583 5  -1523582.00321  23932051.197
   3473116.086 5   2706324.11725  21394284.354
 92  5  9  2 33 30.0010000  0  5G12G16G20G 3G24
   7185603.350 6   5599166.32823  23683182.369
  -3452332.164 6  -2690123.76925  22879550.633
  -2766313.288 8  -2155567.91429  21183566.239
  -2002673.984 5  -1560519.63522  23923017.534
   3548804.126 5   2765301.83924  21408683.366
 92  5  9  2 34  0.0010000  0  5G12G16G20G 3G24
   7315961.717 6   5700744.14223  23707982.688
  -3500582.409 6  -2727721.27225  22870356.881
  -2792622.794 8  -2176068.83629  21178557.294
  -2049869.348 5  -1597295.17323  23914043.236
   3624951.586 5   2824637.51423  21423163.068
 92  5  9  2 34 30.0010000  0  5G12G16G20G 3G24
   7446607.756 6   5802546.11223  23732847.783
  -3548376.679 6  -2764963.49525  22861268.668
  -2818384.815 8  -2196143.12229  21173654.795
  -2096862.516 5  -1633913.06923  23905102.233
   3701535.648 5   2884313.35223  21437752.463
 92  5  9  2 35  0.0010000  0  5G12G16G20G 3G24
   7577536.081 6   5904568.12123  23757769.556
  -3595707.910 7  -2801844.88325  22852262.017
  -2843599.257 8  -2215790.71929  21168856.020
  -2143655.174 5  -1670374.74523  23896199.306
   3778551.866 5   2944325.94821  21452401.222
 92  5  9  2 35 30.0010000  0  5G12G16G20G 3G24
   7708744.307 5   6006808.13223  23782727.869
  -3642577.942 6  -2838366.90625  22843336.894
  -2868263.347 8  -2235009.47529  21164167.251
  -2190247.056 5  -1706680.05623  23887330.233
   3856012.901 5   3004685.14522  21467146.517
 92  5  9  2 36  0.0010000  0  5G12G16G20G 3G24
   7840216.754 6   6109254.10623  23807761.742
  -3689004.198 6  -2874543.12326  22834504.396
  -2892387.168 8  -2253807.24929  21159574.737
  -2236650.757 5  -1742838.72123  23878496.270
   3933910.562 5   3065384.55223  21481968.836
 92  5  9  2 36 30.0010000  0  5G12G16G20G 3G24
   7971961.056 6   6211911.84022  23832827.060
  -3734977.896 6  -2910366.70125  22825761.244
  -2915958.199 8  -2272174.25529  21155089.543
  -2282855.811 5  -1778842.51025  23869705.164
   4012242.744 6   3126422.56622  21496880.536
 92  5  9  2 37  0.0010000  0  5G12G16G20G 3G24
   8103969.878 6   6314775.78924  23857941.588
  -3780488.338 6  -2945829.27525  22817100.840
  -2938978.549 8  -2290112.17829  21150710.760
  -2328866.113 5  -1814694.58425  23860959.010
   4091004.361 4   3187795.33522  21511860.850
 92  5  9  2 37 30.0010000  0  5G12G16G20G 3G24
   8236230.524 6   6417835.82722  23883115.447
  -3825545.997 6  -2980939.06326  22808523.500
  -2961455.620 8  -2307626.77929  21146430.640
  -2374691.342 6  -1850402.45725  23852234.425
   4170180.004 4   3249490.55322  21526926.635
 92  5  9  2 38  0.0010000  0  5G12G16G20G 3G24
   8368739.002 6   6521089.11323  23908329.825
  -3870151.763 6  -3015696.71626  22800027.966
  -2983388.072 8  -2324716.99229  21142258.119
  -2420332.746 5  -1885967.09824  23843543.449
   4249777.867 3   3311514.88023  21542082.917
 92  5  9  2 38 30.0010000  0  4G12G16G20G 3
   8501490.398 6   6624531.61823  23933596.030
  -3914304.502 6  -3050101.36725  22791634.377
  -3004775.463 8  -2341382.48029  21138188.728
  -2465791.908 6  -1921389.73224  23834898.331
 92  5  9  2 39  0.0010000  0  4G12G16G20G 3
   8634490.956 6   6728168.31922  23958896.996
  -3957992.242 6  -3084143.66925  22783317.254
  -3025606.443 8  -2357614.40229  21134221.281
  -2511059.840 6  -1956663.36723  23826282.007
 92  5  9  2 39 30.0010000  0  4G12G16G20G 3
   8767731.495 6   6831992.01222  23984245.043
  -4001241.252 6  -3117844.14025  22775090.349
  -3045885.024 8  -2373415.88629  21130368.064
  -2556142.210 6  -1991792.38124  23817711.228
 92  5  9  2 40  0.0010000  0  5G12G16G20G 3G24
   8901185.415 6   6935981.95422  24009653.956
  -4044070.242 6  -3151217.29525  22766937.467
  -3065632.456 8  -2388803.47929  21126607.158
  -2601063.036 5  -2026795.53423  23809153.362
     46110.77115     35929.74224  21603488.523
 92  5  9  2 40 30.0010000  0  5G12G16G20G 3G24
   9034834.655 6   7040124.12722  24035083.251
  -4086481.732 6  -3184265.11126  22758866.777
  -3084861.560 8  -2403787.19229  21122946.695
  -2645837.215 6  -2061684.40425  23800639.855
    127755.674 5     99549.14724  21619018.658
 92  5  9  2 41  0.0010000  0  5G12G16G20G 3G24
   9168656.776 6   7144400.98322  24060553.623
  -4128483.479 6  -3216993.69926  22750878.800
  -3103590.073 8  -2418380.83129  21119380.953
  -2690483.936 6  -2096473.94223  23792146.136
    209730.922 5    163426.08323  21634617.164
 92  5  9  2 41 30.0010000  0  5G12G16G20G 3G24
   9302640.713 6   7248803.94222  24086046.786
  -4170065.226 6  -3249394.97225  22742967.883
  -3121823.465 8  -2432588.65329  21115912.373
  -2735011.390 5  -2131170.59324  23783662.328
    292015.408 5    227543.80123  21650269.032
 92  5  9  2 42  0.0010000  0  5G12G16G20G 3G24
   9436794.997 6   7353339.62323  24111577.118
  -4211189.318 6  -3281439.64326  22735130.711
  -3139548.051 9  -2446399.99729  21112539.979
  -2779408.036 5  -2165765.31623  23775212.375
    374620.753 5    291911.61924  21665995.831
 92  5  9  2 42 30.0010000  0  5G12G16G20G 3G24
   9571132.881 6   7458018.36722  24137138.616
  -4251837.193 6  -3313113.25826  22727399.043
  -3156745.555 9  -2459800.65729  21109269.843
  -2823657.288 5  -2200245.14823  23766799.590
    457599.239 5    356570.16624  21681786.498
 92  5  9  2 43  0.0010000  0  5G12G16G20G 3G24
   9705644.803 6   7562832.73322  24162733.373
  -4292015.317 6  -3344420.81425  22719758.535
  -3173420.664 9  -2472794.23929  21106098.057
  -2867766.032 4  -2234615.48424  23758394.902
    540964.103 5    421529.77124  21697650.038
 92  5  9  2 43 30.0010000  0  5G12G16G20G 3G24
   9840345.018 5   7667793.83522  24188368.930
  -4331710.358 6  -3375351.93224  22712205.871
  -3189553.388 9  -2485365.18829  21103022.770
  -2911716.206 4  -2268862.32822  23750032.478
    624736.862 5    486807.23523  21713587.880
 92  5  9  2 44  0.0010000  0  5G12G16G20G 3G24
   9975226.542 6   7772896.21223  24214039.875
  -4370935.116 6  -3405916.61025  22704728.732
  -3205146.104 9  -2497515.34329  21100056.652
  -2955512.671 4  -2302989.34822  23741694.066
    708918.534 5    552403.33123  21729611.507
 92  5  9  2 44 30.0010000  0  5G12G16G20G 3G24
  10110292.862 5   7878142.59822  24239741.080
  -4409682.036 6  -3436108.95625  22697367.637
  -3220189.909 9  -2509237.75529  21097195.723
  -2999148.511 5  -2336991.21422  23733402.107
    793491.388 5    618304.30325  21745687.276
 92  5  9  2 45  0.0010000  0  5G12G16G20G 3G24
  10245550.763 5   7983538.25922  24265483.641
  -4447944.729 6  -3465923.97824  22690084.475
  -3234672.889 9  -2520523.18229  21094442.114
  -3042613.968 4  -2370860.32122  23725136.846
    878438.493 4    684496.81225  21761850.575
 92  5  9  2 45 30.0010000  0  5G12G16G20G 3G24
  10381008.051 6   8089089.25722  24291251.400
  -4485722.688 6  -3495361.29022  22682893.066
  -3248582.639 9  -2531361.92729  21091795.265
  -3085897.980 5  -2404588.06122  23716890.152
    963761.489 4    750982.28225  21778097.251
 92  5  9  2 46  0.0010000  0  5G12G16G20G 3G24
  10516673.137 6   8194802.18422  24317068.927
  -4523008.133 6  -3524414.78025  22675802.065
  -3261905.395 9  -2541743.28529  21089259.015
  -3128989.313 6  -2438165.62524  23708695.320
   1049475.423 4    817772.30124  21794415.823
 92  5  9  2 46 30.0010000  0  5G12G16G20G 3G24
  10652532.587 6   8300666.56422  24342925.439
  -4559815.473 6  -3553095.80325  22668799.223
  -3274649.916 9  -2551674.05829  21086830.678
  -3171898.350 6  -2471601.18222  23700529.875
   1135579.882 4    884866.72124  21810799.483
 92  5  9  2 47  0.0010000  0  5G12G16G20G 3G24
  10788591.495 6   8406686.35924  24368814.617
  -4596151.275 6  -3581409.34424  22661879.095
  -3286805.580 9  -2561145.99429  21084520.793
  -3214616.767 6  -2504888.15824  23692397.690
   1222101.199 5    952285.88326  21827262.612
 92  5  9  2 47 30.0010000  0  5G12G16G20G 3G24
  10924843.771 6   8512856.80923  24394744.279
  -4632004.606 6  -3609346.94025  22655058.223
  -3298373.834 9  -2570160.21029  21082319.727
  -3257147.791 6  -2538029.14424  23684299.986
   1309039.097 5   1020029.72326  21843802.766
 92  5  9  2 48  0.0010000  0  5G12G16G20G 3G24
  11061290.223 6   8619178.60024  24420719.801
  -4667351.275 6  -3636889.73825  22648331.199
  -3309348.565 9  -2578711.93829  21080230.168
  -3299487.313 6  -2571020.88924  23676244.267
   1396390.452 4   1088095.72826  21860427.728
 92  5  9  2 48 30.0010000  0  4G12G16G20G 3
  11197920.347 6   8725643.50322  24446716.297
  -4702183.049 6  -3664031.34025  22641706.678
  -3319735.555 9  -2586805.68529  21078250.929
  -3341642.914 6  -2603869.31025  23668223.030
 92  5  9  2 49  0.0010000  0  4G12G16G20G 3
  11334730.192 5   8832248.42222  24472731.082
  -4736487.090 6  -3690761.70526  22635169.407
  -3329533.590 9  -2594440.52029  21076392.202
  -3383615.575 6  -2636575.19024  23660238.648
 92  5  9  2 49 30.0010000  0  4G12G16G20G 3
  11471715.727 6   8938990.24921  24498808.513
  -4770254.632 6  -3717073.99125  22628753.835
  -3338742.007 9  -2601615.89529  21074637.827
  -3425406.300 6  -2669139.29325  23652281.559
 92  5  9  2 50  0.0010000  0  4G12G16G20G 3
  11608876.589 6   9045868.73422  24524912.643
  -4803494.354 6  -3742975.02227  22622426.107
  -3347356.236 8  -2608328.27929  21072994.365
  -3467012.461 6  -2701559.63825  23644364.360
 92  5  9  2 50 30.0010000  0  4G12G16G20G 3
  11746207.723 6   9152879.88922  24551039.562
  -4836212.092 6  -3768469.33425  22616190.446
  -3355376.432 8  -2614577.77929  21071473.823
  -3508436.020 6  -2733837.62624  23636486.389
 92  5  9  2 51  0.0010000  0  4G12G16G20G 3
  11883703.747 5   9260019.50323  24577211.155
  -4868411.543 6  -3793559.71126  22610076.169
  -3362803.136 9  -2620364.81029  21070058.785
  -3549679.062 5  -2765975.01825  23628634.524
 92  5  9  2 51 30.0010000  0  4G12G16G20G 3
  12021359.424 5   9367283.52622  24603404.315
  -4900088.428 6  -3818242.95927  22604042.861
  -3369636.677 8  -2625689.66029  21068754.695
  -3590744.116 5  -2797973.70225  23620819.549
 92  5  9  2 52  0.0010000  0  4G12G16G20G 3
  12159157.758 4   9474658.73522  24629607.388
  -4931237.343 6  -3842514.81126  22598112.369
  -3375889.131 8  -2630561.69129  21067567.243
  -3631644.824 6  -2829844.32824  23613039.334
 92  5  9  2 52 30.0010000  0  4G12G16G20G 3
  12297101.071 5   9582146.81722  24655877.888
  -4961842.064 6  -3866362.55825  22592295.479
  -3381553.512 8  -2634975.49029  21066490.355
  -3672376.142 5  -2861582.99125  23605283.690
 92  5  9  2 53  0.0010000  0  4G12G16G20G 3
  12435186.841 5   9689746.04122  24682152.297
  -4991903.291 6  -3889786.85226  22586572.156
  -3386627.302 9  -2638929.08429  21065522.950
  -3712937.287 5  -2893189.04924  23597568.251
 92  5  9  2 53 30.0010000  0  4G12G16G20G 3
  12573417.209 5   9797457.81722  24708451.904
  -5021420.780 6  -3912787.47326  22580955.245
  -3391103.552 8  -2642417.09029  21064669.425
  -3753323.455 5  -2924658.74723  23589883.977
 92  5  9  2 54  0.0010000  0  4G12G16G20G 3
  12711783.170 5   9905275.27221  24734792.275
  -5050415.760 6  -3935380.92026  22575442.652
  -3394986.316 8  -2645442.61129  21063931.350
  -3793540.089 5  -2955996.34823  23582223.960
 92  5  9  2 54 30.0010000  0  4G12G16G20G 3
  12850286.594 5  10013199.87621  24761140.114
  -5078900.961 6  -3957577.11426  22570015.809
  -3398269.676 8  -2648001.07329  21063309.285
  -3833582.653 6  -2987198.31622  23574611.337
 92  5  9  2 55  0.0010000  0  5G12G16G20G 3G24
  12988926.495 5  10121230.79422  24787519.155
  -5106879.917 6  -3979378.85726  22564694.783
  -3400949.854 8  -2650089.52329  21062799.634
  -3873448.940 6  -3018262.86823  23567023.599
     33896.80715     26412.62521  22100267.708
 92  5  9  2 55 30.0010000  0  5G12G16G20G 3G24
  13127707.896 5  10229371.99422  24813932.956
  -5134339.570 6  -4000775.94426  22559465.512
  -3403016.812 8  -2651700.14529  21062402.118
  -3913130.922 6  -3049183.88123  23559473.029
    126614.142 5     98659.94323  22117926.666
 92  5  9  2 56  0.0020000  0  5G12G16G20G 3G24
  13266625.927 5  10337619.62322  24840373.756
  -5161279.045 6  -4021767.70426  22554331.574
  -3404475.741 8  -2652836.97029  21062125.692
  -3952636.599 5  -3079967.49522  23551954.205
    219702.399 4    171196.21622  22135645.323
 92  5  9  2 56 30.0020000  0  5G12G16G20G 3G24
  13405662.948 5  10445959.98823  24866829.542
  -5187682.902 7  -4042342.07727  22549317.219
  -3405329.872 8  -2653502.52429  21061965.011
  -3991968.367 6  -3110615.58223  23544464.501
    313143.166 4    244007.11021  22153418.196
 92  5  9  2 57  0.0020000  0  5G17G12G16G20G 3
    -13331.676 4    -10388.57522  25246229.489
  13544820.532 5  10554394.32623  24893306.932
  -5213542.697 7  -4062492.52027  22544389.835
  -3405577.341 8  -2653695.40829  21061918.244
  -4031127.556 6  -3141129.13224  23537023.066
 92  5  9  2 57 30.0020000  0  5G17G12G16G20G 3
    -93214.460 4    -72635.08822  25231014.435
  13684098.530 5  10662922.50922  24919810.358
  -5238845.010 6  -4082208.56926  22539576.961
  -3405214.214 8  -2653412.42829  21061986.579
  -4070111.395 6  -3171506.09823  23529594.508
 92  5  9  2 58  0.0020000  0  5G17G12G16G20G 3
   -172910.913 4   -134735.97922  25215850.929
  13823489.259 5  10771538.41322  24946334.514
  -5263581.135 7  -4101483.41226  22534866.030
  -3404243.347 8  -2652655.92229  21062172.459
  -4108924.634 6  -3201750.14825  23522214.811
 92  5  9  2 58 30.0020000  0  5G17G12G16G20G 3
   -252416.808 4   -196688.76521  25200733.002
  13962983.712 4  10880235.18822  24972875.144
  -5287745.634 7  -4120312.83426  22530273.517
  -3402669.472 8  -2651429.53329  21062469.252
  -4147573.188 6  -3231865.83124  23514862.685
 92  5  9  2 59  0.0020000  0  5G17G12G16G20G 3
   -331743.516 5   -258501.57422  25185639.960
  14102571.238 4  10989004.54421  24999428.372
  -5311350.197 7  -4138705.94927  22525778.725
  -3400498.117 8  -2649737.55329  21062882.962
  -4186064.577 6  -3261859.10124  23507539.073
 92  5  9  2 59 30.0020000  0  6G17G12G16G20G 3G24
   -410892.088 4   -320175.84822  25170564.577
  14242254.877 4  11097848.76823  25026027.739
  -5334389.798 7  -4156658.85027  22521402.350
  -3397721.946 8  -2647574.30229  21063414.216
  -4224392.661 6  -3291725.04824  23500242.125
        -2.88114        -2.51623  22261355.470
 92  5  9  3  0  0.0020000  0  5G17G12G16G20G 3
   -489857.923 5   -381707.51221  25155541.091
  14382029.954 4  11206764.20521  25052633.737
  -5356871.623 7  -4174177.09225  22517118.914
  -3394341.414 8  -2644940.12229  21064053.976
  -4262559.147 6  -3321465.09326  23492988.942
 92  5  9  3  0 30.0020000  0  5G17G12G16G20G 3
   -568636.634 5   -443093.36922  25140556.869
  14521890.240 4  11315746.48323  25079230.103
  -5378811.418 7  -4191272.96926  22512940.704
  -3390358.097 8  -2641836.22629  21064812.433
  -4300567.497 6  -3351081.98325  23485747.765
 92  5  9  3  1  0.0020000  0  5G17G12G16G20G 3
   -647227.600 5   -504333.28521  25125601.718
  14661825.471 4  11424786.78221  25105860.670
  -5400236.981 7  -4207968.15926  22508868.626
  -3385777.787 8  -2638267.13729  21065686.339
  -4338424.673 6  -3380581.03125  23478542.849
 92  5  9  3  1 30.0020000  0  6G17G12G16G20G 3G24
   -725623.611 5   -565420.89621  25110681.049
  14801831.706 4  11533882.32921  25132500.522
  -5421142.824 7  -4224258.39427  22504892.175
  -3380599.967 8  -2634232.47829  21066671.160
  -4376131.784 6  -3409963.15326  23471369.099
     16111.756 4     12554.06722  22334484.168
 92  5  9  3  2  0.0020000  0  6G17G12G16G20G 3G24
   -803817.964 4   -626351.71022  25095784.042
  14941909.484 4  11643033.70122  25159163.757
  -5441520.525 6  -4240137.06726  22501004.790
  -3374819.537 8  -2629728.23629  21067770.175
  -4413685.219 6  -3439225.53325  23464219.675
    112975.050 5     88031.93122  22352915.088
 92  5  9  3  2 30.0020000  0  6G17G12G16G20G 3G24
   -881819.438 4   -687131.89922  25080952.718
  15082057.339 5  11752240.06021  25185848.595
  -5461376.555 7  -4255609.23026  22497230.378
  -3368433.761 8  -2624752.29529  21068990.329
  -4451083.195 6  -3468366.76625  23457102.290
    210128.878 5    163736.16623  22371402.093
 92  5  9  3  3  0.0020000  0  6G17G12G16G20G 3G24
   -959628.420 5   -747762.49921  25066148.372
  15222278.088 4  11861502.72922  25212511.550
  -5480696.089 7  -4270663.35126  22493560.632
  -3361435.486 8  -2619299.06729  21070318.116
  -4488320.508 6  -3497382.80523  23450020.887
    307570.928 5    239664.95522  22389931.676
 92  5  9  3  3 30.0020000  0  6G17G12G16G20G 3G24
  -1037259.101 4   -808254.17723  25051375.507
  15362566.029 4  11970817.85622  25239220.644
  -5499460.928 7  -4285285.27526  22489984.419
  -3353825.838 8  -2613369.46329  21071764.006
  -4525398.935 6  -3526275.01825  23442964.961
    405297.680 5    315815.72322  22408552.385
 92  5  9  3  4  0.0020000  0  5G12G16G20G 3G24
  15502914.734 5  12080180.26822  25265917.174
  -5517674.609 7  -4299477.69026  22486524.215
  -3345607.038 8  -2606965.18729  21073329.535
  -4562322.443 6  -3555046.51925  23435929.731
    503320.737 5    392197.30522  22427197.070
 92  5  9  3  4 30.0020000  0  5G12G16G20G 3G24
  15643320.058 4  12189586.8102   25292643.055
  -5535319.863 7  -4313227.20126  22483154.823
  -3336779.182 8  -2600086.32429  21075008.979
  -4599092.209 6  -3583698.22726  23428941.582
    601649.650 4    468817.30821  22445905.937
 92  5  9  3  5  0.0020000  0  5G12G16G20G 3G24
  15783771.882 4  12299029.56022  25319368.377
  -5552377.058 7  -4326518.49126  22479914.387
  -3327348.238 8  -2592737.53029  21076808.620
  -4635715.009 6  -3612235.42925  23421973.222
    700281.184 4    545673.13122  22464663.350
 92  5  9  3  5 30.0020000  0  5G12G16G20G 3G24
  15924264.892 4  12408504.40021  25346106.264
  -5568850.727 6  -4339355.04226  22476777.047
  -3317314.858 8  -2584919.28029  21078715.614
  -4672193.381 6  -3640660.10026  23415026.709
    799207.883 4    622758.91423  22483511.296
 92  5  9  3  6  0.0020000  0  4G12G16G20G 3
  16064801.058 5  12518012.87322  25372846.838
  -5584736.266 7  -4351733.36925  22473756.345
  -3306673.119 8  -2576627.01029  21080738.618
  -4708522.422 6  -3668968.40624  23408112.618
 92  5  9  3  6 30.0020000  0  4G12G16G20G 3
  16205378.512 4  12627554.01123  25399598.231
  -5600040.634 6  -4363658.79226  22470848.964
  -3295420.367 9  -2567858.63429  21082881.819
  -4744700.648 6  -3697159.17625  23401231.160
 92  5  9  3  7  0.0020000  0  4G12G16G20G 3
  16345993.140 4  12737124.10023  25426358.315
  -5614779.751 7  -4375143.76227  22468039.304
  -3283556.800 8  -2558614.29029  21085133.874
  -4780729.512 6  -3725233.57224  23394369.525
 92  5  9  3  7 30.0020000  0  5G12G16G20G 3G24
  16486645.395 4  12846723.0212   25453112.989
  -5628961.841 6  -4386194.71126  22465341.780
  -3271077.623 8  -2548890.24129  21087514.224
  -4816605.302 6  -3753188.68924  23387544.431
     16676.94414     12994.74122  22559309.318
 92  5  9  3  8  0.0020000  0  5G12G16G20G 3G24
  16627329.440 3  12956347.13422  25479868.849
  -5642579.688 6  -4396805.97726  22462747.351
  -3257984.367 8  -2538687.68729  21090001.298
  -4852331.013 6  -3781026.85625  23380746.349
    116911.083 5     91099.40421  22578389.595
 92  5  9  3  8 30.0020000  0  4G16G20G 3G24
  -5655631.050 7  -4406975.80426  22460264.779
  -3244275.001 8  -2528005.04029  21092608.884
  -4887905.608 6  -3808747.29224  23373975.246
    217412.646 4    169412.17521  22597505.855
 92  5  9  3  9  0.0020000  0  6G17G12G16G20G 3G24
    -72951.89615    -56846.40123  24891230.566
     23452.66315     18261.75021  25533459.166
  -5668113.397 6  -4416702.26625  22457889.211
  -3229957.993 8  -2516848.91529  21095335.795
  -4923338.630 6  -3836357.40624  23367235.902
    318167.778 4    247922.49322  22616684.482
 92  5  9  3  9 30.0020000  0  6G17G12G16G20G 3G24
   -148227.678 5   -115502.68222  24876910.987
    164196.306 4    127932.32622  25560217.713
  -5680020.599 6  -4425980.57626  22455621.590
  -3215034.631 8  -2505220.32629  21098175.434
  -4958631.864 6  -3863858.58825  23360521.442
    419175.837 3    326630.09022  22635893.403
 92  5  9  3 10  0.0020000  0  5G17G12G16G20G 3
   -223322.372 5   -174017.79922  24862622.260
    304944.566 5    237606.05321  25587020.061
  -5691359.008 7  -4434815.65327  22453467.605
  -3199508.651 8  -2493122.14629  21101131.990
  -4993790.263 6  -3891254.69424  23353831.273
 92  5  9  3 10 30.0020000  0  4G17G12G16G 3
   -298250.806 5   -232403.38621  24848364.141
    445699.463 5    347284.99321  25613808.344
  -5702130.853 6  -4443209.26026  22451419.996
  -5028808.540 6  -3918541.60824  23347167.803
 92  5  9  3 11  0.0020000  0  5G17G12G16G20G 3
   -373017.899 4   -290663.26022  24834121.587
    586447.419 5    456958.55521  25640585.494
  -5712349.254 6  -4451171.60427  22449471.645
      6204.05218      4835.33429  21107387.753
  -5063697.442 6  -3945727.73222  23340525.587
 92  5  9  3 11 30.0020000  0  5G17G12G16G20G 3
   -447624.008 4   -348797.71322  24819920.111
    727193.068 4    566630.69822  25667359.956
  -5722011.600 6  -4458700.67628  22447626.424
     23545.667 8     18348.28829  21110684.588
  -5098449.294 6  -3972807.02025  23333913.664
 92  5  9  3 12  0.0020000  0  5G17G12G16G20G 3
   -522066.794 4   -406805.28722  24805775.628
    867935.173 5    676300.10321  25694154.207
  -5731126.223 6  -4465802.95727  22445894.524
     41497.807 8     32336.95829  21114100.398
  -5133062.283 6  -3999778.14825  23327323.939
 92  5  9  3 12 30.0020000  0  5G17G12G16G20G 3
   -596332.275 4   -464674.34821  24791641.615
   1008666.976 5    785961.04123  25720931.357
  -5739692.677 7  -4472478.06226  22444272.352
     60057.292 8     46798.87929  21117634.660
  -5167540.221 6  -4026644.05523  23320765.972
 92  5  9  3 13  0.0020000  0  5G25G17G16G20G 3
     10777.042 5      8398.12122  24675972.986
   -670400.350 3   -522389.54421  24777524.982
  -5747706.384 6  -4478722.45727  22442743.120
     79220.608 8     61731.35029  21121277.742
  -5201887.988 6  -4053408.45324  23314228.388
 92  5  9  3 13 30.0020000  0  5G25G17G16G20G 3
     30248.297 4     23570.51624  24679673.305
   -744259.238 5   -579941.68023  24763496.473
  -5755172.081 6  -4484539.86828  22441316.111
     98988.786 8     77135.12129  21125041.650
  -5236104.951 6  -4080070.98224  23307719.003
 92  5  9  3 14  0.0020000  0  5G25G17G16G20G 3
      3374.92415      2630.52321  24683495.356
   -817892.328 3   -637317.87222  24749456.307
  -5762081.657 6  -4489923.90227  22440009.613
    119362.319 8     93010.59829  21128922.753
  -5270191.936 6  -4106632.27226  23301232.094
 92  5  9  3 14 30.0020000  0  5G25G16G20G 3G24
     23945.485 4     18659.58824  24687403.472
  -5768422.514 6  -4494864.80128  22438800.836
      3534.03818      2755.19229  21132909.674
  -5304156.600 6  -4133098.20624  23294770.976
    100035.93015     77949.69621  22830723.129
 92  5  9  3 15  0.0020000  0  5G25G16G20G 3G24
     45094.219 5     35139.17721  24691433.286
  -5774182.769 6  -4499353.25427  22437703.288
     25113.963 8     19570.70129  21137013.267
  -5337989.634 7  -4159461.53025  23288335.336
    203720.790 5    158743.10222  22850441.352
 92  5  9  3 15 30.0020000  0  5G25G16G20G 3G24
     66823.086 5     52070.72122  24695568.010
  -5779375.273 6  -4503399.31728  22436710.684
     47295.752 8     36855.22629  21141237.930
  -5371697.951 6  -4185727.72925  23281911.980
    307577.465 6    239670.45821  22870210.878
 92  5  9  3 16  0.0020000  0  5G25G16G20G 3G24
     89139.554 5     69460.14521  24699818.778
  -5783983.817 6  -4506990.37028  22435827.215
     70077.262 8     54607.02429  21145574.134
  -5405284.462 6  -4211899.00925  23275528.481
    411586.415 6    320716.19622  22890001.379
 92  5  9  3 16 30.0020000  0  5G25G16G20G 3G24
    112054.695 4     87316.02222  24704167.547
  -5788008.450 7  -4510126.41128  22435075.913
     93461.908 8     72828.85029  21150019.158
  -5438746.855 6  -4237973.53326  23269159.990
    515775.536 5    401902.46722  22909826.956
 92  5  9  3 17  0.0020000  0  5G25G16G20G 3G24
    135564.701 5    105635.68021  24708636.269
  -5791462.007 6  -4512817.45727  22434420.588
    117451.555 8     91522.09129  21154586.195
  -5472083.471 6  -4263950.10025  23262816.103
    620172.466 5    483250.91722  22929688.514
 92  5  9  3 17 30.0020000  0  6G25G17G16G20G 3G24
    159660.944 5    124411.98122  24713235.972
    -40913.52814    -31879.52523  24652509.109
  -5794346.623 6  -4515065.16027  22433866.857
    142044.004 8    110685.02029  21159267.146
  -5505296.846 6  -4289830.59726  23256487.467
    724783.368 5    564765.93522  22949602.528
 92  5  9  3 18  0.0020000  0  6G25G17G16G20G 3G24
    184333.749 5    143637.38722  24717923.833
   -112962.824 5    -88021.71122  24638804.999
  -5796658.845 7  -4516866.85927  22433432.451
    167240.840 8    130318.90929  21164062.640
  -5538386.433 6  -4315614.69726  23250190.626
    829624.764 6    646460.50922  22969551.024
 92  5  9  3 18 30.0020000  0  6G25G17G16G20G 3G24
    209572.499 5    163304.00421  24722729.204
   -184802.239 5   -144000.32523  24625120.085
  -5798411.066 7  -4518232.18027  22433098.175
    193042.776 8    150424.29729  21168972.922
  -5571351.758 6  -4341301.94626  23243918.354
    934700.403 5    728337.60522  22989542.656
 92  5  9  3 19  0.0020000  0  6G25G17G16G20G 3G24
    235389.451 5    183421.07822  24727643.395
   -256433.292 5   -199816.57622  24611503.506
  -5799592.091 7  -4519152.41727  22432866.157
    219459.324 8    171008.62529  21173999.841
  -5604183.793 6  -4366885.36724  23237674.283
   1039996.983 5    810386.70821  23009586.186
 92  5  9  3 19 30.0020000  0  6G25G17G16G20G 3G24
    261775.691 5    203981.79422  24732658.622
   -327846.718 5   -255463.21624  24597898.618
  -5800195.994 7  -4519622.95528  22432754.615
    246491.278 8    192072.48329  21179143.397
  -5636882.803 6  -4392365.03525  23231449.685
   1145508.978 5    892603.83121  23029655.786
 92  5  9  3 20  0.0020000  0  6G25G17G16G20G 3G24
    288716.142 6    224974.29622  24737791.080
   -399041.867 5   -310939.82824  24584363.007
  -5800232.499 7  -4519651.40027  22432747.426
    274131.462 8    213610.29129  21184401.741
  -5669455.854 6  -4417746.62526  23225255.695
   1251234.097 5    974987.10622  23049781.157
 92  5  9  3 20 30.0020000  0  6G25G17G16G20G 3G24
    316217.181 5    246403.65921  24743019.166
   -470036.373 5   -366260.07624  24570844.149
  -5799696.019 7  -4519233.31427  22432849.963
    302377.512 8    235620.18529  21189778.816
  -5701905.892 6  -4443032.36926  23219074.270
   1357167.241 5   1057532.42223  23069937.415
 92  5  9  3 21  0.0020000  0  6G25G17G16G20G 3G24
    344291.380 5    268279.56922  24748368.076
   -540838.062 5   -421430.09522  24557374.780
  -5798578.442 7  -4518362.40327  22433059.820
    331229.938 8    258102.58229  21195268.620
  -5734233.133 6  -4468222.38626  23212931.514
   1463303.863 5   1140236.26922  23090133.843
 92  5  9  3 21 30.0020000  0  6G25G17G16G20G 3G24
    372930.882 5    290596.19322  24753811.706
   -611440.683 5   -476445.00223  24543942.265
  -5796882.647 7  -4517041.00727  22433385.999
    360683.184 9    281053.15329  21200877.748
  -5766443.380 6  -4493321.27325  23206800.171
   1569632.047 5   1223089.45724  23110352.433
 92  5  9  3 22  0.0020000  0  6G25G17G16G20G 3G24
    402150.979 6    313365.09422  24759377.942
   -681849.951 5   -531309.23523  24530549.049
  -5794601.713 7  -4515263.61828  22433817.997
    390735.906 9    304470.86329  21206594.474
  -5798538.233 6  -4518330.23525  23200691.303
   1676136.506 5   1306079.88123  23130631.611
 92  5  9  3 22 30.0020000  0  6G25G17G16G20G 3G24
    431965.067 5    336596.95422  24765044.900
   -752070.669 5   -586026.57624  24517172.619
  -5791715.032 7  -4513014.20127  22434370.819
    421391.598 8    328358.41029  21212427.838
  -5830514.602 7  -4543246.85426  23194607.006
   1782793.621 5   1389189.30224  23150943.141
 92  5  9  3 23  0.0020000  0  6G25G17G16G20G 3G24
    462362.906 6    360283.39221  24770837.814
   -822084.671 5   -640582.79223  24503864.525
  -5788220.482 7  -4510291.15227  22435033.963
    452656.320 8    352720.52629  21218375.116
  -5862366.668 7  -4568066.65525  23188548.185
   1889599.185 5   1472414.41422  23171261.267
 92  5  9  3 23 30.0020000  0  6G25G17G16G20G 3G24
    493333.247 6    384416.09921  24776723.040
   -891887.315 5   -694974.36623  24490564.527
  -5784122.295 7  -4507097.72627  22435811.893
    484532.296 8    377558.94729  21224439.626
  -5894092.450 7  -4592788.01325  23182507.967
   1996566.412 5   1555765.54523  23191610.594
 92  5  9  3 24  0.0020000  0  6G25G17G16G20G 3G24
    524864.649 6    408986.10022  24782729.684
   -961488.617 5   -749209.02723  24477334.400
  -5779422.090 7  -4503435.18826  22436708.904
    517016.989 9    402871.70029  21230621.051
  -5925694.642 6  -4617413.08525  23176492.353
   2103695.504 6   1639242.76923  23212001.871
 92  5  9  3 24 30.0030000  0  6G25G17G16G20G 3G24
    556936.112 6    433976.84623  24788829.847
  -1030882.288 5   -803281.85322  24464121.325
  -5774129.769 7  -4499311.27026  22437711.405
    550113.786 8    428661.38829  21236919.972
  -5957172.209 7  -4641941.05425  23170508.485
   2211000.427 6   1722856.86722  23232423.114
 92  5  9  3 25  0.0030000  0  6G25G17G16G20G 3G24
    589538.184 6    459381.00922  24795034.656
  -1100055.465 5   -857182.95323  24450961.942
  -5768264.123 7  -4494740.62326  22438830.208
    583821.756 8    454927.33829  21243334.951
  -5988521.869 7  -4666369.32924  23164541.732
   2318498.737 5   1806621.80022  23252872.570
 92  5  9  3 25 30.0030000  0  6G25G17G16G20G 3G24
    622694.041 6    485216.66021  24801338.407
  -1169005.897 5   -910910.38322  24437840.320
  -5761811.334 7  -4489712.42726  22440056.086
    618149.590 9    481676.29729  21249866.533
  -6019737.562 6  -4690693.19926  23158596.547
   2426202.524 5   1890546.91224  23273360.696
 92  5  9  3 26  0.0030000  0  6G25G17G16G20G 3G24
    656406.482 5    511486.09122  24807763.228
  -1237728.142 5   -964460.02023  24424769.688
  -5754768.108 7  -4484224.16726  22441402.126
    653091.098 8    508903.44029  21256516.218
  -6050825.213 6  -4714917.37425  23152682.215
   2534086.906 5   1974612.60925  23293906.059
 92  5  9  3 26 30.0030000  0  6G25G17G16G20G 3G24
    690695.692 6    538205.09422  24814288.528
  -1306205.808 4  -1017819.07123  24411719.718
  -5747139.474 7  -4478279.74027  22442848.924
    688650.936 8    536612.39129  21263283.447
  -6081780.618 7  -4739038.45326  23146793.115
   2642163.516 6   2058828.12323  23314466.429
 92  5  9  3 27  0.0030000  0  6G25G17G16G20G 3G24
    725581.998 5    565389.12422  24820922.333
  -1374440.484 4  -1070988.82323  24398746.214
  -5738922.921 7  -4471877.23027  22444418.641
    724828.705 8    564802.87029  21270168.186
  -6112604.121 6  -4763056.76525  23140923.176
   2750428.018 6   2143190.04524  23335069.064
 92  5  9  3 27 30.0030000  0  6G25G17G16G20G 3G24
    761078.470 5    593048.77921  24827676.649
  -1442416.581 4  -1123957.04822  24385806.249
  -5730107.987 7  -4465008.43826  22446089.708
    761629.431 9    593478.74429  21277170.714
  -6143290.553 6  -4786968.23226  23135086.218
   2858878.693 6   2227697.05423  23355707.995
 92  5  9  3 28  0.0030000  0  6G25G17G16G20G 3G24
    797172.877 5    621174.30622  24834547.009
  -1510131.521 3  -1176721.76523  24372918.181
  -5720700.115 7  -4457677.59125  22447882.439
    799051.432 9    622638.75329  21284294.696
  -6173841.599 6  -4810774.22226  23129269.956
   2967519.034 6   2312351.80824  23376384.060
 92  5  9  3 28 30.0030000  0  6G25G17G16G20G 3G24
    833847.551 5    649751.84423  24841529.784
  -1577604.880 3  -1229298.25023  24360081.976
  -5710713.239 7  -4449895.56526  22449782.838
    837087.155 8    652276.96929  21291529.870
  -6204265.131 7  -4834480.84326  23123485.139
   3076358.084 5   2397161.39824  23397093.141
 92  5  9  3 29  0.0030000  0  5G25G16G20G 3G24
    871080.092 5    678764.22123  24848605.777
  -5700136.078 7  -4441653.59927  22451797.430
    875726.812 9    682385.78529  21298883.182
  -6234570.687 7  -4858095.48625  23117716.236
   3185371.403 6   2482106.82023  23417836.982
 92  5  9  3 29 30.0030000  0  5G25G16G20G 3G24
    908856.903 5    708200.67423  24855802.282
  -5688952.737 7  -4432939.30526  22453920.284
    914974.692 8    712968.54729  21306350.410
  -6264754.043 7  -4881614.92926  23111971.031
   3294553.553 6   2567183.80323  23438609.582
 92  5  9  3 30  0.0030000  0  5G25G16G20G 3G24
    947164.835 5    738051.00324  24863078.255
  -5677159.391 7  -4423749.65326  22456160.927
    954831.142 8    744025.52329  21313936.962
  -6294814.429 7  -4905038.53926  23106256.364
   3403885.347 6   2652377.36122  23459414.883
 92  5  9  3 30 30.0030000  0  5G25G16G20G 3G24
    986016.044 5    768324.64422  24870484.930
  -5664761.415 7  -4414088.86226  22458532.272
    995293.896 8    775554.92429  21321636.521
  -6324753.921 7  -4928367.98726  23100553.703
   3513347.762 6   2737672.73922  23480250.164
 92  5  9  3 31  0.0030000  0  6G25G17G16G20G 3G24
   1025411.138 6    799022.01522  24877978.228
    -11064.70115     -8617.40423  24296480.993
  -5651753.016 7  -4403952.43826  22461003.188
   1036359.598 8    807554.18429  21329451.218
  -6354575.706 7  -4951605.69226  23094880.463
   3622923.608 6   2823056.52322  23501092.634
 92  5  9  3 31 30.0030000  0  6G25G17G16G20G 3G24
   1065345.429 4    830139.64121  24885551.902
    -77328.284 4    -60251.25324  24283857.330
  -5638151.166 6  -4393353.58626  22463587.077
   1078023.260 9    840019.36529  21337378.956
  -6384284.661 7  -4974755.49926  23089227.569
   3732621.128 5   2908535.10422  23521966.864
 92  5  9  3 32  0.0030000  0  6G25G17G16G20G 3G24
   1105826.237 5    861683.08922  24893283.535
   -143373.667 4   -111715.07724  24271295.128
  -5623965.596 7  -4382299.87126  22466291.197
   1120284.269 8    872950.01429  21345421.168
  -6413880.869 7  -4997817.43426  23083596.873
   3842452.968 5   2994118.32022  23542881.613
 92  5  9  3 32 30.0030000  0  5G25G16G20G 3G24
   1146846.503 5    893646.96923  24901090.134
  -5609192.995 6  -4370788.70826  22469101.450
   1163141.526 8    906345.26829  21353573.735
  -6443365.560 7  -5020792.45126  23077984.743
   3952438.319 4   3079821.15623  23563798.107
 92  5  9  3 33  0.0030000  0  6G25G17G16G20G 3G24
   1188382.800 4    926012.81923  24908985.485
    -37140.91815    -28936.60123  24246291.235
  -5593822.732 6  -4358811.87725  22472024.745
   1206597.196 8    940206.81929  21361846.814
  -6472735.788 7  -5043678.27026  23072395.124
   4062586.465 5   3165650.88125  23584767.999
 92  5  9  3 33 30.0030000  0  6G25G17G16G20G 3G24
   1230422.794 5    958771.15422  24916992.029
   -102515.355 5    -79877.61922  24233858.862
  -5577869.860 6  -4346381.06026  22475059.827
   1250645.881 8    974530.46529  21370226.897
  -6501996.660 7  -5066478.89127  23066821.385
   4172889.496 6   3251601.25225  23605757.365
 92  5  9  3 34  0.0030000  0  6G25G17G16G20G 3G24
   1272958.914 5    991916.13622  24925087.604
   -167686.815 4   -130660.49923  24221437.553
  -5561347.349 6  -4333506.34926  22478205.264
   1295281.063 8   1009311.13229  21378724.525
  -6531154.002 7  -5089198.85326  23061277.905
   4283326.902 5   3337656.42224  23626768.928
 92  5  9  3 34 30.0030000  0  5G25G17G16G20G 3
   1315998.191 4   1025453.19022  24933266.276
   -232650.537 3   -181281.40923  24209049.224
  -5544247.139 6  -4320181.48427  22481460.706
   1340507.883 9   1044552.79529  21387328.250
  -6560203.262 7  -5111834.59827  23055751.839
 92  5  9  3 35  0.0030000  0  6G25G17G16G20G 3G24
   1359559.717 5   1059397.18422  24941572.301
   -297385.953 4   -231724.48124  24196770.309
  -5526567.741 6  -4306405.31326  22484822.281
   1386332.100 8   1080259.97129  21396049.241
  -6589137.606 7  -5134380.83226  23050241.933
     40593.42115     31630.03922  23668879.270
 92  5  9  3 35 30.0030000  0  6G25G17G16G20G 3G24
   1403658.962 5   1093760.34121  24949957.793
   -361883.860 5   -281982.40124  24184496.524
  -5508315.957 6  -4292183.13526  22488292.676
   1432748.428 9   1116428.53129  21404885.019
  -6617962.114 7  -5156841.42627  23044755.445
    151387.714 5    117963.16223  23689960.982
 92  5  9  3 36  0.0030000  0  6G25G17G16G20G 3G24
   1448302.775 4   1128547.54721  24958443.136
   -426142.043 4   -332053.58225  24172268.284
  -5489478.788 6  -4277504.80225  22491874.298
   1479759.863 9   1153060.82129  21413827.522
  -6646673.345 7  -5179213.75626  23039294.120
    262301.741 5    204389.68423  23711055.574
 92  5  9  3 36 30.0030000  0  6G25G17G16G20G 3G24
   1493485.147 5   1163754.52623  24967054.958
   -490161.191 3   -381938.54524  24160052.049
  -5470052.868 6  -4262367.69226  22495581.248
   1527357.175 8   1190149.61829  21422880.661
  -6675279.758 7  -5201504.44727  23033853.491
    373331.355 5    290906.19925  23732183.460
 92  5  9  3 37  0.0030000  0  6G25G17G16G20G 3G24
   1539205.567 5   1199380.72423  24975751.658
   -553948.122 5   -431642.55325  24147952.138
  -5450035.015 7  -4246769.36526  22499387.106
   1575542.951 8   1227696.96829  21432053.996
  -6703778.262 7  -5223711.02127  23028429.336
    484481.660 6    377516.79423  23753340.697
 92  5  9  3 37 30.0030000  0  6G25G17G16G20G 3G24
   1585463.533 4   1235425.88821  24984548.453
   -617522.320 4   -481180.79423  24135835.998
  -5429426.116 6  -4230710.43025  22503300.003
   1624318.346 8   1265703.75029  21441335.871
  -6732167.143 7  -5245832.17027  23023027.690
    595751.358 6    464220.47623  23774509.940
 92  5  9  3 38  0.0030000  0  6G25G17G16G20G 3G24
   1632266.765 4   1271895.81421  24993463.699
   -680874.176 4   -530545.70523  24123794.231
  -5408210.243 6  -4214178.60026  22507352.292
   1673703.400 8   1304185.61529  21450734.977
  -6760425.607 7  -5267851.75626  23017647.300
    707143.151 6    551019.28821  23795718.760
 92  5  9  3 38 30.0030000  0  6G25G17G16G20G 3G24
   1679606.970 4   1308784.19622  25002460.473
   -744010.586 4   -579742.82922  24111766.878
  -5386394.895 6  -4197179.60427  22511502.617
   1723691.376 8   1343137.27129  21460242.868
  -6788559.467 7  -5289774.20627  23012293.608
    818646.848 4    637905.19722  23816931.489
 92  5  9  3 39  0.0030000  0  6G25G17G16G20G 3G24
   1727469.429 5   1346079.54122  25011580.445
   -806941.024 4   -628779.43923  24099774.286
  -5363990.285 6  -4179721.46627  22515764.449
   1774272.214 8   1382550.88429  21469869.211
  -6816578.452 7  -5311607.17428  23006965.114
    930250.054 4    724868.68624  23838160.098
 92  5  9  3 39 30.0030000  0  5G17G16G20G 3G24
   -869647.035 5   -677641.16924  24087865.908
  -5340984.670 6  -4161794.99926  22520134.542
   1825449.042 8   1422428.92629  21479607.968
  -6844478.786 7  -5333347.66026  23001656.967
   1041953.784 5    811910.63722  23859419.279
 92  5  9  3 40  0.0030000  0  5G17G16G20G 3G24
   -932107.315 5   -726311.41023  24075974.946
  -5317374.123 7  -4143397.14725  22524632.929
   1877218.538 8   1462768.78729  21489457.359
  -6872262.830 7  -5354997.56027  22996364.735
   1153760.324 5    899032.61922  23880700.343
 92  5  9  3 40 30.0030000  0  5G17G16G20G 3G24
   -994303.910 4   -774776.20822  24064128.063
  -5293159.030 7  -4124528.22526  22529238.949
   1929580.224 8   1503570.09229  21499423.947
  -6899930.442 7  -5376556.70127  22991100.109
   1265682.634 6    986244.76924  23902007.478
 92  5  9  3 41  0.0030000  0  5G17G16G20G 3G24
  -1056234.959 5   -823034.07722  24052353.109
  -5268357.774 7  -4105202.54326  22533957.069
   1982522.136 8   1544823.52329  21509500.296
  -6927492.490 7  -5398033.62027  22985857.017
   1377709.108 6   1073538.13625  23923309.552
 92  5  9  3 41 30.0030000  0  6G25G17G16G20G 3G24
     28608.96415     22292.09522  25058574.126
  -1117898.842 5   -871083.73123  24040627.610
  -5242976.981 6  -4085425.28726  22538791.233
   2036048.177 8   1586532.09129  21519684.243
  -6954944.551 7  -5419424.77126  22980637.028
   1489843.486 5   1160915.59923  23944656.264
 92  5  9  3 42  0.0030000  0  5G17G16G20G 3G24
  -1179298.784 4   -918927.74525  24028943.224
  -5217018.193 7  -4065197.65126  22543733.309
   2090167.362 8   1628702.87429  21529981.511
  -6982276.466 7  -5440722.33927  22975432.640
   1602095.766 5   1248384.87224  23966010.165
 92  5  9  3 42 30.0030000  0  5G17G16G20G 3G24
  -1240452.964 5   -966580.31023  24017304.382
  -5190485.238 7  -4044522.58726  22548778.202
   2144878.663 8   1671335.04329  21540394.789
  -7009488.296 8  -5461926.40128  22970255.510
   1714463.131 5   1335943.82924  23987388.985
 92  5  9  3 43  0.0030000  0  5G17G16G20G 3G24
  -1301372.275 5  -1014049.81722  24005709.899
  -5163363.071 6  -4023388.40327  22553936.451
   2200185.080 8   1714430.92629  21550919.295
  -7036576.243 7  -5483033.87327  22965100.576
   1826947.806 6   1423594.24024  24008808.255
 92  5  9  3 43 30.0030000  0  6G25G17G16G20G 3G24
     43716.375 4     34063.71422  25097896.970
  -1362078.749 5  -1061353.51722  23994164.591
  -5135642.425 6  -4001787.90627  22559211.582
   2256083.333 8   1757987.98529  21561557.750
  -7063542.537 7  -5504046.56327  22959965.430
   1939539.468 5   1511328.01022  24030221.836
 92  5  9  3 44  0.0030000  0  5G17G16G20G 3G24
  -1422571.715 5  -1108490.78323  23982648.948
  -5107321.274 7  -3979719.44727  22564611.762
   2312571.633 8   1802004.84629  21572307.713
  -7090387.789 7  -5524964.93027  22954859.985
   2052237.982 5   1599145.02121  24051680.683
 92  5  9  3 44 30.0030000  0  5G17G16G20G 3G24
  -1482846.553 5  -1155458.11025  23971173.789
  -5078403.889 7  -3957186.39026  22570111.128
   2369639.617 8   1846473.37729  21583162.272
  -7117121.612 7  -5545796.46627  22949771.013
   2165030.995 5   1687035.64222  24073138.029
 92  5  9  3 45  0.0030000  0  5G17G16G20G 3G24
  -1542899.122 5  -1202252.19524  23959742.117
  -5048893.664 6  -3934191.39226  22575724.165
   2427284.343 8   1891391.32029  21594136.783
  -7143745.755 8  -5566542.56627  22944704.796
   2277908.522 4   1774992.14821  24094623.540
 92  5  9  3 45 30.0030000  0  5G17G16G20G 3G24
  -1602737.432 5  -1248879.38424  23948355.396
  -5018806.573 6  -3910746.90824  22581445.987
   2485499.670 8   1936753.90029  21605212.018
  -7170265.129 7  -5587207.00627  22939662.312
   2390855.938 5   1863003.12322  24116111.459
 92  5  9  3 46  0.0030000  0  5G17G16G20G 3G24
  -1662331.372 6  -1295316.11125  23937028.041
  -4988138.460 7  -3886849.62725  22587284.446
   2544297.755 7   1982570.56229  21616402.389
  -7196666.920 7  -5607779.84526  22934632.077
   2503881.361 5   1951074.76621  24137620.073
 92  5  9  3 46 30.0030000  0  5G17G16G20G 3G24
  -1721682.634 5  -1341563.76923  23925726.477
  -4956888.263 7  -3862498.77025  22593223.034
   2603672.783 7   2028836.80329  21627698.543
  -7222955.385 7  -5628264.33926  22929633.357
   2616968.850 5   2039194.91223  24159140.066
 92  5  9  3 47  0.0030000  0  6G25G17G16G20G 3G24
      9337.14415      7274.85421  25170318.166
  -1780809.628 6  -1387636.66823  23914476.147
  -4925061.715 7  -3837698.82826  22599289.044
   2663621.484 8   2075550.06529  21639110.462
  -7249132.336 7  -5648661.95127  22924651.983
   2730125.700 4   2127369.17322  24180680.754
 92  5  9  3 47 30.0030000  0  6G25G17G16G20G 3G24
     65660.726 5     51163.22023  25181028.237
  -1839709.174 5  -1433532.28023  23903264.801
  -4892664.112 7  -3812453.95727  22605452.775
   2724136.160 8   2122704.32529  21650623.976
  -7275204.573 7  -5668977.99626  22919687.745
   2843358.650 5   2215602.66924  24202216.941
 92  5  9  3 48  0.0030000  0  6G25G17G16G20G 3G24
    122464.366 4     95425.72522  25191832.749
  -1898362.808 6  -1479236.34624  23892107.446
  -4859687.431 6  -3786757.85126  22611723.546
   2785218.769 8   2170301.17029  21662249.032
  -7301168.583 7  -5689209.68225  22914746.542
   2956677.928 6   2303903.38422  24223785.828
 92  5  9  3 48 30.0030000  0  6G25G17G16G20G 3G24
    179733.285 5    140050.72924  25202734.702
  -1956782.712 6  -1524758.28024  23880986.631
  -4826132.447 7  -3760611.10426  22618111.512
   2846858.198 7   2218331.86529  21673979.033
  -7327034.373 8  -5709364.83626  22909829.664
   3070086.045 6   2392273.34222  24245357.683
 92  5  9  3 49  0.0030000  0  6G25G17G16G20G 3G24
    237477.296 4    185045.90422  25213735.006
  -2014957.073 5  -1570088.86125  23869917.993
  -4791983.136 7  -3734001.22926  22624610.706
   2909063.054 8   2266803.17129  21685813.038
  -7352792.010 7  -5729435.73525  22904925.943
   3183595.636 6   2480722.42423  24266961.646
 92  5  9  3 50  0.0030000  0  6G25G17G16G20G 3G24
    354339.738 5    276107.41621  25235975.099
  -2130522.214 6  -1660139.39224  23847926.426
  -4721907.180 7  -3679396.54525  22637949.059
   3035164.079 7   2365063.67029  21709805.412
  -7403982.201 7  -5769324.17125  22895184.184
   3410833.149 5   2657790.48524  24310209.079
 92  5  9  3 50 30.0030000  0  6G25G17G16G20G 3G24
    413462.153 4    322176.81322  25247211.015
  -2187922.154 6  -1704866.50625  23837011.280
  -4685980.509 7  -3651401.71226  22644784.658
   3099066.599 8   2414857.84929  21721972.507
  -7429405.345 7  -5789134.39626  22890344.052
   3524547.828 4   2746399.33223  24331838.205
 92  5  9  3 51  0.0030000  0  5G25G17G16G20G 3
    473039.962 3    368601.00722  25258542.558
  -2245074.345 6  -1749400.60225  23826127.928
  -4649478.254 7  -3622958.36626  22651727.821
   3163536.189 8   2465093.87529  21734241.510
  -7454713.213 7  -5808854.81425  22885530.584
 92  5  9  3 51 30.0030000  0  4G17G16G20G 3
  -2301977.460 5  -1793740.59025  23815287.713
  -4612407.985 7  -3594072.42525  22658780.152
   3228575.821 8   2515774.09029  21746615.146
  -7479901.101 8  -5828481.72027  22880738.999
 92  5  9  3 52  0.0030000  0  5G17G16G20G 3G24
  -2358639.112 6  -1837892.43525  23804514.682
  -4574758.748 6  -3564735.35826  22665947.898
   3294187.225 8   2566899.84029  21759099.694
  -7504965.762 8  -5848012.62928  22875968.389
     18981.33114     14789.42623  24396833.809
 92  5  9  3 52 30.0040000  0  5G17G16G20G 3G24
  -2415053.180 6  -1881851.35324  23793784.494
  -4536539.215 7  -3534953.88325  22673218.762
   3360368.359 8   2618469.54629  21771692.455
  -7529910.715 7  -5867450.26727  22871223.590
    132939.924 4    103588.28623  24418516.319
 92  5  9  3 53  0.0040000  0  5G17G16G20G 3G24
  -2471216.158 6  -1925614.64725  23783093.304
  -4497734.271 6  -3504716.25225  22680604.741
   3427111.815 8   2670477.42229  21784396.772
  -7554735.743 7  -5886794.42127  22866496.152
    246956.967 4    192432.68723  24440200.308
 92  5  9  3 53 30.0040000  0  5G17G16G20G 3G24
  -2527125.647 6  -1969180.41225  23772452.789
  -4458323.857 7  -3474006.80225  22688108.265
   3494423.660 7   2722928.20229  21797204.220
  -7579436.262 7  -5906041.52728  22861796.599
    361041.029 5    281329.37523  24461921.467
 92  5  9  3 54  0.0040000  0  5G17G16G20G 3G24
  -2582781.581 6  -2012548.57324  23761866.789
  -4418289.900 7  -3442811.49626  22695725.983
   3562306.996 8   2775824.29529  21810124.082
  -7604007.316 7  -5925187.80828  22857118.335
    475194.823 5    370280.35922  24483631.248
 92  5  9  3 54 30.0040000  0  5G17G16G20G 3G24
  -2638182.840 5  -2055718.30625  23751318.307
  -4377630.100 7  -3411128.50925  22703465.119
   3630761.348 7   2829165.32329  21823148.261
  -7628447.837 8  -5944232.36227  22852470.051
    589419.307 5    459286.41123  24505379.385
 92  5  9  3 55  0.0040000  0  5G17G16G20G 3G24
  -2693338.609 6  -2098696.78425  23740834.565
  -4336337.749 7  -3378952.62726  22711316.077
   3699789.206 7   2882953.26229  21836282.447
  -7652753.354 8  -5963171.69527  22847845.150
    703716.544 3    548349.25024  24527109.547
 92  5  9  3 55 30.0040000  0  5G17G16G20G 3G24
  -2748250.960 6  -2141485.53524  23730380.803
  -4294448.365 7  -3346311.52626  22719289.675
   3769382.886 8   2937182.09029  21849533.584
  -7676930.169 8  -5982010.73128  22843247.262
    818080.711 5    637464.23523  24548886.756
 92  5  9  3 56  0.0040000  0  5G17G16G20G 3G24
  -2802899.630 6  -2184068.82725  23719975.901
  -4251969.006 7  -3313210.68826  22727370.871
   3839549.442 8   2991857.33429  21862881.535
  -7700969.174 7  -6000742.41129  22838667.033
    932516.658 6    726635.07326  24570662.499
 92  5  9  3 56 30.0040000  0  5G17G16G20G 3G24
  -2857284.787 6  -2226446.80625  23709628.271
  -4208929.979 6  -3279673.78926  22735561.793
   3910283.200 8   3046974.52128  21876339.212
  -7724874.374 8  -6019369.82427  22834120.065
   1047026.984 6    815863.91424  24592465.778
 92  5  9  3 57  0.0040000  0  5G17G16G20G 3G24
  -2911410.866 6  -2268622.90824  23699322.591
  -4165348.539 7  -3245714.21226  22743861.257
   3981575.171 8   3102526.69129  21889908.118
  -7748653.075 7  -6037898.61126  22829596.794
   1161594.108 5    905136.96124  24614254.992
 92  5  9  3 57 30.0040000  0  6G25G17G16G20G 3G24
     37217.65515     28998.78122  25413905.218
  -2965269.290 6  -2310590.41425  23689078.092
  -4121212.232 6  -3211322.25426  22752251.531
   4053427.998 8   3158515.91428  21903582.876
  -7772300.655 7  -6056325.28927  22825092.404
   1276221.744 5    994457.28121  24636082.004
 92  5  9  3 58  0.0040000  0  5G17G16G20G 3G24
  -3018861.198 6  -2352350.27425  23678889.643
  -4076498.300 7  -3176480.22226  22760765.352
   4125842.571 8   3214942.80629  21917359.823
  -7795814.180 8  -6074647.51227  22820620.402
   1390901.772 5   1083818.25522  24657884.097
 92  5  9  3 58 30.0040000  0  5G17G16G20G 3G24
  -3072204.984 6  -2393916.75725  23668726.392
  -4031211.175 6  -3141191.51126  22769381.397
   4198806.472 8   3271797.78929  21931241.122
  -7819204.543 8  -6092873.75226  22816170.596
   1505624.352 5   1173212.48122  24679731.176
 92  5  9  3 59  0.0040000  0  6G25G17G16G20G 3G24
     24584.88614     19155.22822  25451853.543
  -3125286.300 6  -2435278.75324  23658632.662
  -3985330.940 7  -3105440.68926  22778111.637
   4272317.254 8   3329078.91029  21945231.520
  -7842471.781 7  -6111004.03926  22811740.545
   1620375.493 5   1262628.75622  24701561.747
 92  5  9  3 59 30.0040000  0  6G25G17G16G20G 3G24
     91937.957 3     71638.03621  25464668.773
  -3178090.519 6  -2476424.84323  23648577.916
  -3938863.960 6  -3069232.64625  22786952.231
   4346376.224 8   3386787.19329  21959326.864
  -7865612.704 8  -6129035.90926  22807342.601
   1735175.312 6   1352083.13622  24723411.828
 92  5  9  4  0  0.0040000  0  5G17G16G20G 3G24
  -3230613.746 6  -2517351.97322  23638585.852
  -3891830.441 6  -3032583.10925  22795907.020
   4420974.971 8   3444916.06929  21973523.244
  -7888633.917 8  -6146974.46727  22802958.443
   1850028.890 4   1441579.45923  24745260.129
 92  5  9  4  0 30.0040000  0  5G17G16G20G 3G24
  -3282845.215 6  -2558051.75624  23628645.335
  -3844219.660 6  -2995483.78325  22804967.033
   4496124.652 8   3503474.24429  21987821.255
  -7911521.784 8  -6164809.12927  22798602.171
   1964964.664 3   1531139.87624  24767114.991
 92  5  9  4  1  0.0040000  0  5G17G16G20G 3G24
  -3334787.400 5  -2598526.15024  23618751.586
  -3796037.543 7  -2957939.25425  22814130.806
   4571824.489 8   3562461.10429  22002227.771
  -7934275.211 8  -6182539.05627  22794271.969
   2079982.063 4   1620763.81723  24789026.531
 92  5  9  4  1 30.0040000  0  5G17G16G20G 3G24
  -3386439.697 6  -2638774.61124  23608932.174
  -3747270.561 6  -2919938.96223  22823410.866
   4648089.585 8   3621888.44629  22016739.825
  -7956876.833 8  -6200150.71327  22789970.525
   2195098.156 5   1710464.74223  24810937.130
 92  5  9  4  2  0.0040000  0  5G17G16G20G 3G24
  -3437825.429 6  -2678815.36124  23599153.246
  -3697919.685 6  -2881483.71724  22832798.595
   4724907.129 8   3681746.24529  22031360.700
  -7979337.297 8  -6217652.36428  22785695.187
   2310275.837 5   1800213.69121  24832842.388
 92  5  9  4  2 30.0040000  0  5G17G16G20G 3G24
  -3488953.969 6  -2718655.73225  23589420.492
  -3647992.339 7  -2842579.25526  22842306.206
   4802272.184 8   3742030.69628  22046079.923
  -8001659.669 8  -6235046.42126  22781450.422
   2425486.242 4   1889988.20222  24854764.398
 92  5  9  4  3  0.0040000  0  5G17G16G20G 3G24
  -3539815.571 6  -2758288.03225  23579741.694
  -3597498.484 6  -2803233.39926  22851914.541
   4880178.688 8   3802737.02529  22060904.651
  -8023847.722 9  -6252335.77628  22777230.261
   2540706.571 3   1979770.04522  24876676.846
 92  5  9  4  3 30.0040000  0  4G17G16G20G 3
  -3590396.459 6  -2797701.65725  23570118.038
  -3546429.993 6  -2763439.75926  22861631.136
   4958631.340 7   3863868.98128  22075832.231
  -8045894.137 8  -6269514.78329  22773031.355
 92  5  9  4  4  0.0040000  0  4G17G16G20G 3
  -3640710.984 6  -2836907.68924  23560549.560
  -3494794.692 6  -2723204.46426  22871454.422
   5037620.326 8   3925418.80428  22090865.907
  -8067806.951 8  -6286589.69928  22768862.428
 92  5  9  4  4 30.0040000  0  4G17G16G20G 3
  -3690757.414 6  -2875904.82524  23551022.753
  -3442587.616 7  -2682523.58825  22881396.125
   5117149.813 7   3987389.81028  22105998.841
  -8089579.786 8  -6303555.53028  22764719.607
 92  5  9  4  5  0.0040000  0  4G17G16G20G 3
  -3740539.514 6  -2914695.99525  23541540.619
  -3389793.362 7  -2641385.19526  22891442.774
   5197224.016 7   4049785.29228  22121234.905
  -8111205.917 8  -6320407.03328  22760603.170
 92  5  9  4  5 30.0040000  0  4G17G16G20G 3
  -3790080.040 6  -2953298.93623  23532118.758
  -3336417.572 7  -2599793.65926  22901594.647
   5277834.159 8   4112598.36428  22136580.976
  -8132691.372 8  -6337148.93727  22756518.493
 92  5  9  4  6  0.0040000  0  4G17G16G20G 3
  -3839364.231 6  -2991702.11624  23522743.349
  -3282442.294 7  -2557734.96526  22911868.533
   5358992.131 8   4175838.30628  22152022.987
  -8154022.283 7  -6353770.41129  22752454.198
 92  5  9  4  6 30.0040000  0  4G17G16G20G 3
  -3888354.076 6  -3029875.92524  23513421.303
  -3227857.864 7  -2515201.62526  22922253.053
   5440710.389 8   4239514.89128  22167571.411
  -8175183.952 7  -6370260.03129  22748428.886
 92  5  9  4  7  0.0040000  0  4G17G16G20G 3
  -3937051.747 6  -3067822.08324  23504153.214
  -3172679.073 6  -2472205.12726  22932751.173
   5522972.473 8   4303615.16527  22183228.653
  -8196189.831 7  -6386628.22728  22744435.962
 92  5  9  4  7 30.0040000  0  4G17G16G20G 3
  -3985438.068 6  -3105525.57825  23494944.803
  -3116911.490 6  -2428749.86627  22943365.932
   5605776.475 7   4368137.76428  22198980.651
  -8217039.703 7  -6402874.81628  22740460.419
 92  5  9  4  8  0.0040000  0  4G17G16G20G 3
  -4033494.165 6  -3142971.82425  23485796.317
  -3060563.400 6  -2384842.25626  22954082.634
   5689120.671 8   4433081.24928  22214840.595
  -8237732.948 7  -6418999.45129  22736524.417
 92  5  9  4  8 30.0040000  0  4G17G16G20G 3
  -4081232.060 6  -3180170.12725  23476716.515
  -3003657.613 6  -2340500.08728  22964915.031
   5773000.031 8   4498441.79228  22230803.636
  -8258271.800 8  -6435003.75228  22732617.523
 92  5  9  4  9  0.0040000  0  4G17G16G20G 3
  -4128672.993 6  -3217136.96725  23467690.041
  -2946203.195 6  -2295730.45327  22975843.369
   5857409.950 8   4564215.74728  22246866.805
  -8278658.529 7  -6450889.47327  22728741.515
 92  5  9  4  9 30.0040000  0  5G17G16G20G 3G24
  -4175817.438 6  -3253872.81026  23458717.558
  -2888211.929 7  -2250542.43527  22986889.811
   5942349.498 8   4630402.37028  22263029.232
  -8298891.481 7  -6466655.37429  22724890.985
     65567.34315     51089.71822  25162388.633
 92  5  9  4 10  0.0040000  0  5G17G16G20G 3G24
  -4222691.337 6  -3290397.83725  23449792.435
  -2829683.134 7  -2204935.52626  22998023.504
   6027808.076 7   4696993.46228  22279294.475
  -8318978.669 7  -6482307.72228  22721065.933
    181326.805 5    141291.8312   25184418.905
 92  5  9  4 10 30.0040000  0  5G17G16G20G 3G24
  -4269316.806 6  -3326729.31424  23440928.771
  -2770601.502 7  -2158897.87526  23009265.422
   6113779.925 7   4763984.50627  22295650.529
  -8338923.118 8  -6497848.81527  22717272.360
    297136.577 3    231533.15622  25206462.927
 92  5  9  4 11  0.0040000  0  4G17G16G20G 3
  -4315680.226 6  -3362856.56625  23432096.309
  -2710937.736 7  -2112406.60626  23020617.941
   6200266.444 8   4831376.56828  22312111.250
  -8358720.667 8  -6513275.44527  22713505.172
 92  5  9  4 11 30.0040000  0  4G17G16G20G 3
  -4361770.427 6  -3398770.91326  23423324.084
  -2650674.127 6  -2065447.93326  23032088.004
   6287268.271 7   4899170.19928  22328666.097
  -8378367.861 8  -6528584.91829  22709764.962
 92  5  9  4 12  0.0040000  0  4G17G16G20G 3
  -4407605.885 6  -3434486.78126  23414615.693
  -2589804.867 6  -2018017.37327  23043669.294
   6374777.047 8   4967358.85028  22345322.853
  -8397870.595 8  -6543781.79527  22706057.140
 92  5  9  4 12 30.0040000  0  4G17G16G20G 3
  -4453163.949 6  -3469986.50726  23405936.722
  -2528332.581 6  -1970116.86226  23055367.502
   6462798.472 8   5035946.94828  22362068.362
  -8417220.108 8  -6558859.30627  22702374.167
 92  5  9  4 13  0.0040000  0  4G17G16G20G 3
  -4498447.427 6  -3505272.23126  23397317.676
  -2466297.412 6  -1921777.76727  23067172.714
   6551315.535 7   5104921.27029  22378908.589
  -8436430.868 8  -6573828.71527  22698715.205
 92  5  9  4 13 30.0040000  0  4G17G16G20G 3
  -4543444.336 6  -3540334.66726  23388762.811
  -2403705.831 6  -1873005.11327  23079082.592
   6640341.007 8   5174291.78229  22395857.358
  -8455487.163 8  -6588677.75728  22695086.816
 92  5  9  4 14  0.0040000  0  4G17G16G20G 3
  -4588160.704 6  -3575178.53526  23380250.804
  -2340580.067 6  -1823816.16526  23091092.565
   6729864.004 7   5244049.92427  22412893.377
  -8474397.461 7  -6603413.00028  22691483.905
 92  5  9  4 14 30.0040000  0  4G17G16G20G 3
  -4632583.281 7  -3609793.50526  23371796.348
  -2276945.715 6  -1774230.93325  23103203.295
   6819875.127 7   5314188.43228  22430014.833
  -8493167.946 8  -6618039.31729  22687919.069
 92  5  9  4 15  0.0040000  0  4G17G16G20G 3
  -4676723.033 6  -3644188.02425  23363399.164
  -2212811.683 6  -1724256.32926  23115409.338
   6910373.809 8   5384706.90729  22447241.513
  -8511796.653 8  -6632555.16729  22684373.429
 92  5  9  4 15 30.0040000  0  4G17G16G20G 3
  -4720585.019 6  -3678366.11926  23355048.746
  -2148171.166 6  -1673887.07725  23127712.510
   7001357.959 7   5455603.63329  22464555.410
  -8530282.755 8  -6646959.90429  22680857.455
 92  5  9  4 16  0.0040000  0  4G17G16G20G 3
  -4764170.602 6  -3712328.82726  23346758.881
  -2083025.587 5  -1623124.28225  23140098.744
   7092827.443 7   5526878.53628  22481958.372
  -8548622.820 8  -6661250.84029  22677364.584
 92  5  9  4 16 30.0040000  0  4G17G16G20G 3
  -4807483.775 6  -3746079.30927  23338507.685
  -2017376.965 6  -1571969.52725  23152599.487
   7184780.120 8   5598529.96629  22499458.149
  -8566816.248 7  -6675427.49129  22673900.193
 92  5  9  4 17  0.0040000  0  4G17G16G20G 3
  -4850544.504 6  -3779633.04626  23330314.668
  -1951210.016 6  -1520410.83826  23165187.760
   7277214.361 7   5670556.62828  22517045.490
  -8584861.868 7  -6689489.00529  22670467.246
 92  5  9  4 17 30.0040000  0  4G17G16G20G 3
  -4893348.170 6  -3812986.48126  23322177.108
  -1884517.945 5  -1468442.99725  23177873.195
   7370119.453 7   5742950.22829  22534729.646
  -8602767.362 8  -6703441.32629  22667062.220
 92  5  9  4 18  0.0040000  0  4G17G16G20G 3
  -4935880.404 6  -3846128.45026  23314079.404
  -1817294.024 6  -1416060.72325  23190678.828
   7463498.260 8   5815712.92828  22552497.737
  -8620527.038 8  -6717279.98629  22663684.172
 92  5  9  4 18 30.0040000  0  4G17G16G20G 3
  -4978139.151 7  -3879057.28426  23306041.066
  -1749528.910 6  -1363256.68825  23203565.116
   7557351.566 7   5888845.34528  22570354.265
  -8638136.823 7  -6731001.88529  22660332.474
 92  5  9  4 19  0.0040000  0  4G17G16G20G 3
  -5020119.763 6  -3911769.36526  23298051.903
  -1681222.281 6  -1310030.72625  23216577.604
   7651678.152 7   5962346.57429  22588303.454
  -8655594.789 8  -6744605.48729  22657012.291
 92  5  9  4 19 30.0040000  0  4G17G16G20G 3
  -5061809.189 6  -3944254.61227  23290110.693
  -1612384.004 5  -1256390.50624  23229668.024
   7746474.406 7   6036213.79327  22606344.362
  -8672901.824 8  -6758091.45629  22653716.957
 92  5  9  4 20  0.0040000  0  4G17G16G20G 3
  -5103217.588 6  -3976520.84627  23282236.945
  -1543022.010 5  -1202342.21526  23242858.888
   7841736.138 7   6110443.71028  22624470.706
  -8690058.556 8  -6771460.32229  22650451.323
 92  5  9  4 20 30.0050000  0  4G17G16G20G 3
  -5144355.060 6  -4008575.93526  23274414.173
  -1473120.336 6  -1147873.38426  23256173.285
   7937468.986 7   6185040.72727  22642688.789
  -8707060.419 8  -6784708.49029  22647215.654
 92  5  9  4 21  0.0050000  0  4G17G16G20G 3
  -5185215.211 6  -4040414.95527  23266629.735
  -1402698.032 5  -1092998.82625  23269565.630
   8033656.393 7   6259991.93727  22660996.231
  -8723912.706 8  -6797840.14529  22644008.479
 92  5  9  4 21 30.0050000  0  4G17G16G20G 3
  -5225804.634 6  -4072042.99726  23258911.574
  -1331756.319 5  -1037719.54626  23283068.852
   8130296.034 7   6335295.55827  22679380.978
  -8740618.680 8  -6810857.75928  22640830.690
 92  5  9  4 22  0.0050000  0  4G17G16G20G 3
  -5266117.655 6  -4103455.69926  23251238.713
  -1260302.955 5   -982041.58826  23296668.051
   8227388.594 7   6410952.09527  22697859.293
  -8757173.916 8  -6823757.91629  22637679.564
 92  5  9  4 22 30.0050000  0  4G17G16G20G 3
  -5306140.027 7  -4134641.89326  23243626.963
  -1188345.968 5   -925971.18126  23310353.873
   8324936.986 7   6486963.80827  22716418.262
  -8773572.470 9  -6836536.00029  22634559.012
 92  5  9  4 23  0.0050000  0  4G17G16G20G 3
  -5345866.838 6  -4165597.81126  23236057.826
  -1115914.337 4   -869530.95026  23324147.642
   8422931.255 7   6563322.97227  22735068.357
  -8789821.354 9  -6849197.44429  22631467.252
 92  5  9  4 23 30.0050000  0  4G17G16G20G 3
  -5385307.483 7  -4196330.69025  23228554.302
  -1042992.940 4   -812709.03026  23338016.028
   8521375.198 7   6640032.52327  22753806.575
  -8805913.090 8  -6861736.44529  22628403.098
 92  5  9  4 24  0.0050000  0  4G17G16G20G 3
  -5424468.959 6  -4226846.07926  23221103.862
   -969581.811 5   -755505.57326  23351998.957
   8620268.904 7   6717092.53727  22772617.945
  -8821844.242 9  -6874150.32129  22625375.485
 92  5  9  4 24 30.0050000  0  4G17G16G20G 3
  -5463362.067 7  -4257152.37526  23213706.191
   -895670.433 4   -697912.26727  23366044.812
   8719612.521 7   6794503.14227  22791524.942
  -8837611.173 9  -6886436.20128  22622369.476
 92  5  9  4 25  0.0050000  0  4G17G16G20G 3
  -5502003.057 6  -4287262.20625  23206341.187
     12432.75215      9700.62826  23380219.903
   8819397.447 7   6872257.61727  22810515.316
  -8853219.625 9  -6898598.59729  22619403.602
 92  5  9  4 25 30.0050000  0  4G17G16G20G 3
  -5540400.094 7  -4317181.91025  23199046.019
     87360.557 5     68085.99724  23394476.243
   8919617.354 7   6950351.04927  22829588.997
  -8868672.305 9  -6910639.63928  22616462.961
 92  5  9  4 26  0.0050000  0  3G17G20G 3
  -5578524.451 7  -4346889.14326  23191790.149
   9020270.509 7   7028782.05828  22848741.239
  -8883967.209 8  -6922557.73428  22613550.171
 92  5  9  4 26 30.0050000  0  4G17G16G20G 3
  -5616345.914 7  -4376360.35625  23184589.456
     58247.24616     45400.63123  23423272.208
   9121357.596 7   7107551.19127  22867976.823
  -8899100.497 8  -6934349.86828  22610670.955
 92  5  9  4 27  0.0050000  0  4G17G16G20G 3
  -5653861.450 6  -4405593.19326  23177451.689
    134673.019 6    104953.13625  23437814.835
   9222877.034 7   7186657.24727  22887300.566
  -8914070.112 8  -6946014.47428  22607819.938
 92  5  9  4 27 30.0050000  0  4G17G16G20G 3
  -5691064.462 7  -4434582.49326  23170375.381
    211598.710 6    164895.23023  23452456.092
   9324822.786 8   7266095.47427  22906698.333
  -8928878.828 8  -6957553.70428  22605006.370
 92  5  9  4 28  0.0050000  0  5G17G16G20G 3G23
  -5727956.900 7  -4463329.80426  23163347.655
    289027.384 6    225229.26722  23467187.915
   9427199.090 7   7345869.18428  22926175.254
  -8943518.547 8  -6968961.24628  22602218.907
   -247187.422 4   -192613.26322  26284828.993
 92  5  9  4 28 30.0050000  0  5G17G16G20G 3G23
  -5764564.849 7  -4491855.40026  23156389.450
    366976.558 6    285968.89624  23482018.924
   9530008.926 7   7425980.74127  22945739.391
  -8957983.110 8  -6980232.31427  22599462.610
   -330470.690 5   -257509.48621  26268985.556
 92  5  9  4 29  0.0050000  0  5G17G16G20G 3G23
  -5800915.939 7  -4520180.87027  23149467.263
    445433.500 7    347104.15923  23496954.880
   9633241.770 7   7506421.88527  22965382.683
  -8972279.565 7  -6991372.37228  22596744.983
   -413720.135 4   -322379.41422  26253127.147
 92  5  9  4 29 30.0050000  0  5G17G16G20G 3G23
  -5837003.746 7  -4548301.23326  23142600.498
    524365.728 6    408609.77825  23511969.710
   9736891.345 7   7587187.77627  22985104.849
  -8986410.390 8  -7002383.37228  22594054.369
   -496941.425 4   -387226.97521  26237293.588
 92  5  9  4 30  0.0050000  0  5G17G16G20G 3G23
  -5872829.731 7  -4576217.53226  23135783.814
    603758.549 6    470474.31424  23527082.541
   9840958.796 7   7668279.26727  23004914.231
  -9000370.706 8  -7013261.53028  22591400.016
   -580141.482 5   -452058.37922  26221466.659
 92  5  9  4 30 30.0050000  0  5G17G16G20G 3G23
  -5908385.456 7  -4603923.25527  23129015.713
    683606.156 6    532693.25823  23542276.306
   9945443.033 7   7749695.52927  23024794.357
  -9014158.112 8  -7024004.93629  22588776.516
   -663310.908 4   -516865.56522  26205643.918
 92  5  9  4 31  0.0050000  0  5G17G16G20G 3G23
  -5943659.487 7  -4631409.48327  23122307.256
    763889.748 6    595251.88623  23557544.165
  10050335.538 7   7831429.93027  23044756.045
  -9027777.664 8  -7034617.54328  22586182.715
   -746460.800 4   -581657.40621  26189824.458
 92  5  9  4 31 30.0050000  0  5G17G16G20G 3G23
  -5978653.425 7  -4658677.45527  23115645.565
    844622.380 6    658160.45522  23572917.492
  10155639.144 7   7913484.68127  23064792.978
  -9041222.428 8  -7045093.95128  22583626.398
   -829592.949 4   -646435.87922  26174007.407
 92  5  9  4 32  0.0050000  0  5G17G16G20G 3G23
  -6013373.799 6  -4685732.24427  23109038.738
    925844.594 6    721450.48622  23588373.325
  10261356.553 7   7995861.83027  23084910.846
  -9054486.106 8  -7055429.26629  22581105.435
   -912704.025 5   -711197.54522  26158189.447
 92  5  9  4 32 30.0050000  0  5G17G16G20G 3G23
  -6047815.021 7  -4712569.53528  23102484.995
   1007564.797 6    785128.54724  23603920.247
  10367478.969 7   8078554.60227  23105105.459
  -9067574.387 8  -7065627.92429  22578613.264
   -995800.233 4   -775948.08223  26142358.331
 92  5  9  4 33  0.0050000  0  4G17G16G20G 3
  -6081969.458 6  -4739183.34627  23095986.394
   1089787.573 5    849198.22624  23619561.331
  10474005.622 8   8161562.36828  23125378.633
  -9080484.005 8  -7075687.34629  22576154.354
 92  5  9  4 33 30.0050000  0  5G17G16G20G 3G23
  -6115828.071 7  -4765566.65028  23089543.529
   1172509.596 5    913656.96323  23635310.013
  10580936.098 7   8244884.77128  23145724.052
  -9093211.412 7  -7085604.76529  22573732.613
    -30449.83914    -23726.92522  26110762.303
 92  5  9  4 34  0.0050000  0  5G17G16G20G 3G23
  -6149360.099 7  -4791695.47127  23083160.065
   1255711.698 5    978489.79422  23651136.942
  10688271.401 8   8328522.66028  23166150.404
  -9105751.950 8  -7095376.58929  22571348.390
   -113475.852 5    -88422.75924  26094971.043
 92  5  9  4 34 30.0050000  0  5G17G16G20G 3G23
  -6182567.257 7  -4817571.15128  23076840.434
   1339359.093 5   1043669.56623  23667064.035
  10796003.683 7   8412469.85227  23186649.000
  -9118109.815 8  -7105006.07529  22568994.704
   -196469.999 5   -153093.26722  26079169.871
 92  5  9  4 35  0.0050000  0  5G17G16G20G 3G23
  -6215461.086 7  -4843202.67127  23070578.074
   1423450.802 5   1109195.54423  23683055.868
  10904131.011 7   8496724.89328  23207224.378
  -9130282.936 8  -7114491.60729  22566682.097
   -279422.800 4   -217731.63021  26063383.985
 92  5  9  4 35 30.0050000  0  5G17G16G20G 3G23
  -6248057.182 7  -4868602.17326  23064379.268
   1507980.808 5   1175063.14323  23699137.011
  11012647.470 7   8581283.14127  23227879.467
  -9142273.530 8  -7123834.91129  22564395.595
   -362336.803 5   -282339.75822  26047604.102
 92  5  9  4 36  0.0050000  0  5G17G16G20G 3G23
  -6280374.102 7  -4893784.14927  23058229.916
   1592961.663 5   1241282.06523  23715315.038
  11121550.763 7   8666142.83027  23248598.425
  -9154080.155 8  -7133034.87529  22562150.450
   -445197.431 5   -346906.25423  26031829.943
 92  5  9  4 36 30.0050000  0  5G17G16G20G 3G23
  -6312438.078 7  -4918769.00527  23052125.830
   1678399.600 5   1307857.07522  23731572.185
  11230831.415 7   8751296.54827  23269396.537
  -9165708.291 9  -7142095.74829  22559936.192
   -528003.209 5   -411430.04222  26016084.856
 92  5  9  4 37  0.0050000  0  5G17G16G20G 3G23
  -6344244.802 7  -4943553.44128  23046079.644
   1764304.535 6   1374796.01721  23747923.144
  11340493.488 7   8836747.50027  23290261.797
  -9177149.844 8  -7151011.20429  22557760.603
   -610752.197 5   -475909.56922  26000338.826
 92  5  9  4 37 30.0050000  0  5G17G16G20G 3G23
  -6375798.248 7  -4968140.49328  23040073.872
   1850652.817 6   1442080.38523  23764355.979
  11450522.869 7   8922484.66727  23311198.987
  -9188415.150 8  -7159789.36429  22555615.588
   -693460.187 5   -540357.18922  25984591.331
 92  5  9  4 38  0.0050000  0  5G17G16G20G 3G23
  -6407080.648 7  -4992516.34626  23034115.810
   1937450.818 6   1509715.16924  23780870.341
  11560929.219 7   9008515.54928  23332205.141
  -9199490.901 9  -7168419.82129  22553509.835
   -776109.231 5   -604758.83321  25968868.126
 92  5  9  4 38 30.0050000  0  5G17G16G20G 3G23
  -6438074.114 7  -5016667.03026  23028218.892
   2024694.480 6   1577697.19824  23797472.548
  11671713.991 7   9094841.34227  23353296.137
  -9210371.655 9  -7176898.30729  22551435.877
   -858692.764 5   -669109.42823  25953146.702
 92  5  9  4 39  0.0050000  0  5G17G16G20G 3G23
  -6468789.664 6  -5040601.20826  23022375.059
   2112375.863 6   1646020.34725  23814159.598
  11782868.198 7   9181454.98028  23374449.814
  -9221062.200 8  -7185228.57829  22549403.589
   -941210.667 4   -733408.96322  25937443.879
 92  5  9  4 39 30.0050000  0  5G17G16G20G 3G23
  -6499221.326 7  -5064314.12426  23016586.333
   2200496.206 6   1714685.57225  23830928.490
  11894392.060 7   9268356.65227  23395663.137
  -9231558.773 8  -7193407.71029  22547407.564
  -1023655.523 5   -797651.53121  25921762.031
 92  5  9  4 40  0.0050000  0  5G17G16G20G 3G23
  -6529378.145 7  -5087812.87526  23010853.134
   2289062.075 5   1783697.96823  23847790.914
  12006279.904 7   9355541.95627  23416959.173
  -9241862.764 8  -7201436.78029  22545441.517
  -1106026.446 4   -861836.44822  25906085.000
 92  5  9  4 40 30.0050000  0  5G17G16G20G 3G23
  -6559248.469 7  -5111088.39826  23005160.070
   2378081.553 6   1853063.83724  23864721.988
  12118530.977 7   9443010.30327  23438316.704
  -9251970.907 8  -7209313.24529  22543519.236
  -1188328.151 5   -925967.48724  25890425.035
 92  5  9  4 41  0.0050000  0  5G17G16G20G 3G23
  -6588838.160 7  -5134145.25926  22999533.561
   2467542.866 5   1922773.97823  23881744.222
  12231138.705 7   9530756.55426  23459744.664
  -9261885.620 9  -7217038.97729  22541632.658
  -1270574.625 4   -990055.44422  25874774.353
 92  5  9  4 41 30.0050000  0  5G17G16G20G 3G23
  -6618127.713 7  -5156968.22026  22993959.822
   2557437.424 4   1992821.62422  23898850.670
  12344101.034 7   9618779.11726  23481242.180
  -9271604.940 9  -7224612.45029  22539787.123
  -1352780.637 4  -1054111.87322  25859118.018
 92  5  9  4 42  0.0050000  0  5G17G16G20G 3G23
  -6647114.094 7  -5179554.95328  22988443.041
   2647770.076 5   2063210.68422  23916042.276
  12457417.781 7   9707077.86327  23502804.437
  -9281125.457 9  -7232030.99929  22537974.290
  -1434940.820 5  -1118132.64122  25843488.626
 92  5  9  4 42 30.0050000  0  5G17G16G20G 3G23
  -6675804.338 7  -5201910.96827  22982984.403
   2738522.097 6   2133926.48422  23933314.815
  12571083.977 7   9795648.89726  23524438.659
  -9290447.905 9  -7239295.22229  22536197.125
  -1517047.649 5  -1182111.80622  25827871.239
 92  5  9  4 43  0.0050000  0  5G17G16G20G 3G23
  -6704202.085 7  -5224039.03826  22977580.350
   2829688.928 5   2204965.54923  23950657.191
  12685103.285 7   9884495.08326  23546138.249
  -9299564.483 8  -7246399.01929  22534463.411
  -1599083.385 5  -1246035.60422  25812251.166
 92  5  9  4 43 30.0050000  0  5G17G16G20G 3G23
  -6732313.521 7  -5245943.99028  22972223.063
   2921278.294 5   2276333.89422  23968089.853
  12799472.733 7   9973614.10626  23567896.297
  -9308473.895 9  -7253341.39629  22532771.089
  -1681026.277 5  -1309887.01623  25796668.854
 92  5  9  4 44  0.0050000  0  5G17G16G20G 3G23
  -6760149.909 7  -5267634.67528  22966929.330
   3013288.188 4   2348029.99125  23985595.633
  12914182.148 7  10062998.03626  23589728.683
  -9317182.494 9  -7260127.30129  22531112.027
  -1762854.130 5  -1373648.79823  25781084.134
 92  5  9  4 44 30.0050000  0  5G17G16G20G 3G23
  -6787711.283 7  -5289111.01227  22961687.145
   3105703.434 5   2420041.87723  24003179.030
  13029222.188 7  10152639.59725  23611615.619
  -9325695.320 8  -7266760.63429  22529491.041
  -1844566.906 5  -1437320.90322  25765539.585
 92  5  9  4 45  0.0050000  0  5G17G16G20G 3G23
  -6814973.350 6  -5310354.10927  22956498.358
   3198543.356 5   2492384.75722  24020851.808
  13144598.233 7  10242542.98425  23633574.833
  -9334002.990 9  -7273234.11629  22527912.355
  -1926170.900 5  -1500908.25623  25750019.327
 92  5  9  4 45 30.0050000  0  5G17G16G20G 3G23
  -6841927.290 6  -5331357.15627  22951370.995
   3291821.902 5   2565069.34823  24038605.206
  13260314.393 7  10332711.39426  23655594.565
  -9342097.178 8  -7279541.24629  22526373.211
  -2007666.049 5  -1564410.80923  25734501.790
 92  5  9  4 46  0.0050000  0  5G17G16G20G 3G23
  -6868575.985 7  -5352122.36128  22946299.718
   3385520.097 5   2638080.99123  24056440.760
  13376362.648 7  10423138.56926  23677677.885
  -9349981.668 8  -7285685.00929  22524869.770
  -2089071.625 6  -1627843.57322  25719015.699
 92  5  9  4 46 30.0050000  0  4G17G20G 3G23
  -6894924.156 7  -5372653.33828  22941285.991
  13492746.029 7  10513826.87326  23699826.260
  -9357649.492 9  -7291659.90729  22523412.467
  -2170401.549 5  -1691217.38023  25703538.019
 92  5  9  4 47  0.0050000  0  5G17G16G20G 3G23
  -6920978.252 6  -5392955.20429  22936325.906
     15777.26914     12306.98824  24092343.012
  13609466.252 7  10604777.70026  23722035.187
  -9365094.795 9  -7297461.39929  22521993.834
  -2251662.190 5  -1754537.16323  25688077.126
 92  5  9  4 47 30.0050000  0  4G17G20G 3G23
  -6946749.997 7  -5413037.06727  22931421.592
  13726519.168 7  10695987.71426  23744308.540
  -9372317.578 9  -7303089.52129  22520622.282
  -2332831.405 5  -1817785.73922  25672617.106
 92  5  9  4 48  0.0050000  0  4G17G20G 3G23
  -6972245.337 7  -5432903.50628  22926571.549
  13843899.193 7  10787452.64126  23766643.981
  -9379318.738 8  -7308544.93529  22519289.120
  -2413905.557 5  -1880960.25023  25657194.883
 92  5  9  4 48 30.0050000  0  5G17G16G20G 3G23
  -6997454.473 7  -5452546.98629  22921776.368
     92539.187 5     72121.66921  24146759.562
  13961604.058 7  10879170.68226  23789040.882
  -9386096.195 9  -7313826.05529  22518002.411
  -2494879.707 5  -1944056.85622  25641794.856
 92  5  9  4 49  0.0050000  0  5G17G16G20G 3G23
  -7022385.372 7  -5471973.62928  22917031.270
    188662.086 6    147022.59922  24165051.683
  14079621.349 7  10971132.19125  23811498.929
  -9392658.437 8  -7318939.47929  22516754.092
  -2575743.320 5  -2007067.28922  25626397.831
 92  5  9  4 49 30.0060000  0  5G17G16G20G 3G23
  -7047032.058 7  -5491178.79429  22912338.613
    285179.789 5    222231.21024  24183413.067
  14197954.657 7  11063339.91826  23834019.049
  -9399001.948 8  -7323882.46329  22515543.801
  -2656481.935 5  -2069980.34123  25611041.241
 92  5  9  4 50  0.0060000  0  5G17G16G20G 3G23
  -7071380.894 7  -5510151.89229  22907706.523
    382091.555 6    297746.87624  24201858.401
  14316596.553 7  11155788.11125  23856594.919
  -9405121.433 8  -7328650.88328  22514376.730
  -2737097.125 5  -2132797.24423  25595688.889
 92  5  9  4 50 30.0060000  0  5G17G16G20G 3G23
  -7095427.042 7  -5528889.10429  22903126.608
    479401.951 6    373573.14423  24220372.384
  14435544.511 7  11248474.81725  23879235.843
  -9411019.261 8  -7333246.55528  22513254.297
  -2817586.006 5  -2195515.70524  25580384.454
 92  5  9  4 51  0.0060000  0  5G17G16G20G 3G23
  -7119182.792 7  -5547400.05529  22898610.213
    577108.854 6    449708.37123  24238966.114
  14554793.334 7  11341395.94925  23901927.443
  -9416696.136 9  -7337670.07628  22512175.630
  -2897960.471 5  -2258145.01224  25565083.650
 92  5  9  4 51 30.0060000  0  5G17G16G20G 3G23
  -7142633.613 7  -5565673.40428  22894148.122
    675215.469 6    526155.10622  24257631.495
  14674343.938 7  11434552.26526  23924677.781
  -9422147.262 9  -7341917.68028  22511138.668
  -2978242.385 5  -2320702.21025  25549816.140
 92  5  9  4 52  0.0060000  0  5G17G16G20G 3G23
  -7165782.095 7  -5583711.12628  22889741.454
    773724.380 6    602915.27322  24276379.311
  14794191.837 7  11527940.17825  23947478.794
  -9427372.511 8  -7345989.27329  22510138.840
  -3058436.970 5  -2383191.36024  25534546.187
 92  5  9  4 52 30.0060000  0  5G17G16G20G 3G23
  -7188635.274 7  -5601518.77729  22885395.058
    872637.599 6    679990.53323  24295201.779
  14914335.711 7  11621558.77425  23970347.269
  -9432369.035 8  -7349882.65529  22509193.318
  -3138544.499 5  -2445612.71924  25519305.656
 92  5  9  4 53  0.0060000  0  5G17G16G20G 3G23
  -7211209.087 7  -5619108.73429  22881096.337
    971927.808 6    757359.57022  24314090.209
  15034763.318 7  11715398.41225  23993259.510
  -9437144.708 8  -7353603.95529  22508286.151
  -3218578.703 5  -2507976.91825  25504075.594
 92  5  9  4 53 30.0060000  0  5G17G16G20G 3G23
  -7233497.993 7  -5636476.67929  22876857.295
   1071588.688 5    835017.46522  24333059.887
  15155476.557 6  11809460.66126  24016223.612
  -9441693.419 8  -7357148.36328  22507418.840
  -3298497.630 5  -2570251.29124  25488858.132
 92  5  9  4 54  0.0060000  0  5G17G16G20G 3G23
  -7255515.698 7  -5653633.29727  22872668.894
   1171612.800 5    912958.28022  24352102.088
  15276472.549 7  11903743.23526  24039252.176
  -9446013.766 8  -7360514.83028  22506596.516
  -3378280.427 5  -2632419.58125  25473675.151
 92  5  9  4 54 30.0060000  0  5G17G16G20G 3G23
  -7277257.411 7  -5670574.85128  22868527.259
   1271986.504 6    991171.57524  24371194.371
  15397751.948 7  11998246.61425  24062338.605
  -9450100.328 8  -7363699.13128  22505819.143
  -3457923.636 5  -2694479.13625  25458524.244
 92  5  9  4 55  0.0060000  0  5G17G16G20G 3G23
  -7298723.484 7  -5687301.62629  22864444.362
   1372698.840 6   1069648.73324  24390364.901
  15519307.363 7  12092965.08726  24085468.764
  -9453956.233 8  -7366703.70628  22505084.350
  -3537417.617 5  -2756422.38424  25443407.784
 92  5  9  4 55 30.0060000  0  5G17G16G20G 3G23
  -7319904.452 7  -5703806.23627  22860410.360
   1473770.627 6   1148405.99324  24409584.885
  15641144.273 7  12187902.93026  24108651.134
  -9457571.745 8  -7369520.97429  22504399.638
  -3616748.977 5  -2818238.92824  25428305.458
 92  5  9  4 56  0.0060000  0  5G17G16G20G 3G23
  -7340782.396 8  -5720074.70928  22856440.226
   1575208.205 6   1227448.24523  24428901.439
  15763264.533 7  12283061.53626  24131889.240
  -9460940.646 7  -7372146.07029  22503753.875
  -3695931.671 5  -2879939.62024  25413238.765
 92  5  9  4 56 30.0060000  0  5G17G16G20G 3G23
  -7361342.080 7  -5736095.20429  22852526.142
   1677010.669 5   1306774.81924  24448252.125
  15885669.060 7  12378441.65726  24155180.429
  -9464057.345 8  -7374574.66029  22503161.789
  -3774948.868 5  -2941511.34924  25398193.990
 92  5  9  4 57  0.0060000  0  5G17G16G20G 3G23
  -7381592.211 7  -5751874.51027  22848671.982
   1779177.491 5   1386385.36123  24467705.662
  16008347.767 7  12474035.43325  24178527.669
  -9466927.975 8  -7376811.48129  22502619.472
  -3853799.854 5  -3002953.57723  25383185.198
 92  5  9  4 57 30.0060000  0  5G17G16G20G 3G23
  -7401532.769 7  -5767412.54028  22844878.724
   1881717.589 5   1466286.76223  24487224.848
  16131301.324 6  12569843.35525  24201920.174
  -9469546.838 8  -7378852.13829  22502119.104
  -3932487.759 5  -3064268.72224  25368231.233
 92  5  9  4 58  0.0060000  0  5G17G16G20G 3G23
  -7421166.900 8  -5782711.83529  22841143.016
   1984624.036 5   1546473.65422  24506804.306
  16254522.785 7  12665860.05826  24225374.139
  -9471916.597 7  -7380698.69829  22501666.725
  -4011014.904 4  -3125458.59024  25353264.705
 92  5  9  4 58 30.0060000  0  5G17G16G20G 3G23
  -7440514.708 7  -5797788.01727  22837460.950
   2087899.316 5   1626947.89324  24526462.290
  16378010.542 7  12762084.23326  24248876.058
  -9474034.742 8  -7382349.17929  22501263.799
  -4089377.135 5  -3186519.97523  25338368.606
 92  5  9  4 59  0.0060000  0  5G17G16G20G 3G23
  -7459580.003 7  -5812644.04728  22833832.876
   2191545.764 5   1707711.38122  24546187.737
  16501760.203 6  12858512.53226  24272417.867
  -9475900.817 8  -7383803.23929  22500909.734
  -4167593.824 5  -3247467.91425  25323472.821
 92  5  9  4 59 30.0060000  0  5G17G16G20G 3G23
  -7478371.457 7  -5827286.71729  22830259.350
   2295553.842 5   1788756.67722  24565976.145
  16625758.400 7  12955134.46926  24296016.634
  -9477524.102 8  -7385068.11529  22500603.343
  -4245676.692 5  -3308311.60023  25308616.020
 92  5  9  5  0  0.0060000  0  5G17G16G20G 3G23
  -7496882.410 8  -5841710.78929  22826737.966
   2399910.206 5   1870073.31922  24585835.574
  16750002.824 7  13051948.26726  24319658.259
  -9478902.532 8  -7386142.19529  22500341.939
  -4323621.855 5  -3369048.00722  25293786.476
 92  5  9  5  0 30.0060000  0  5G17G16G20G 3G23
  -7515111.243 8  -5855915.06529  22823263.698
   2504609.974 5   1951657.57522  24605754.090
  16874492.831 6  13148953.43726  24343350.559
  -9480031.824 7  -7387022.14129  22500121.298
  -4401430.420 6  -3429677.96024  25278989.319
 92  5  9  5  1  0.0060000  0  5G17G16G20G 3G23
  -7533054.002 8  -5869896.40028  22819850.540
   2609643.185 5   2033501.67922  24625747.259
  16999219.668 7  13246143.12025  24367087.811
  -9480916.928 7  -7387711.81128  22499950.705
  -4479111.699 6  -3490208.70924  25264203.854
 92  5  9  5  1 30.0060000  0  5G17G16G20G 3G23
  -7550720.807 8  -5883662.71728  22816485.684
   2715003.545 6   2115600.69224  24645792.882
  17124178.873 6  13343513.89925  24390862.546
  -9481557.341 7  -7388210.79229  22499830.194
  -4556658.556 6  -3550634.73423  25249449.870
 92  5  9  5  2  0.0060000  0  5G17G16G20G 3G23
  -7568098.646 8  -5897203.83829  22813185.254
   2820680.128 6   2197946.08323  24665899.058
  17249376.625 6  13441070.53424  24414688.271
  -9481942.683 7  -7388511.02829  22499760.323
  -4634061.664 6  -3610948.74822  25234720.176
 92  5  9  5  2 30.0060000  0  5G17G16G20G 3G23
  -7585187.643 7  -5910519.92729  22809929.812
   2926674.604 5   2280539.23523  24686068.194
  17374809.936 6  13538810.75124  24438558.633
  -9482071.125 7  -7388611.11629  22499730.972
  -4711314.022 6  -3671145.28123  25220010.864
 92  5  9  5  3  0.0060000  0  5G17G16G20G 3G23
  -7601986.135 8  -5923609.64429  22806736.108
   3032983.244 6   2363377.03721  24706304.165
  17500470.191 7  13636727.79825  24462471.888
  -9481946.707 7  -7388514.15529  22499759.730
  -4788412.322 6  -3731221.80124  25205343.502
 92  5  9  5  3 30.0060000  0  5G17G16G20G 3G23
  -7618494.757 8  -5936473.44529  22803593.114
   3139603.269 6   2446457.51121  24726596.848
  17626350.603 7  13734816.38024  24486428.001
  -9481571.958 7  -7388222.12729  22499831.101
  -4865351.734 6  -3791174.47224  25190701.932
 92  5  9  5  4  0.0060000  0  5G17G16G20G 3G23
  -7634690.294 8  -5949093.32229  22800511.545
   3246544.433 5   2529788.35121  24746939.544
  17752452.313 6  13833077.45025  24510421.876
  -9480941.246 7  -7387730.66229  22499950.426
  -4942118.435 6  -3850992.57825  25176092.156
 92  5  9  5  4 30.0060000  0  5G17G16G20G 3G23
  -7650579.988 8  -5961474.88129  22797485.119
   3353825.934 5   2613384.33621  24767355.112
  17878776.525 7  13931511.82625  24534463.145
  -9480048.901 7  -7387035.30929  22500122.206
  -5018699.340 6  -3910665.89123  25161517.455
 92  5  9  5  5  0.0060000  0  5G17G16G20G 3G23
  -7666170.408 8  -5973623.22829  22794520.781
   3461445.599 6   2697244.02621  24787830.640
  18005321.489 6  14030118.25724  24558538.268
  -9478892.170 7  -7386133.97629  22500342.846
  -5095091.093 6  -3970191.83122  25146985.891
 92  5  9  5  5 30.0060000  0  5G17G16G20G 3G23
  -7681482.830 8  -5985554.93929  22791607.083
   3569377.849 6   2781346.85221  24808383.227
  18132071.417 6  14128884.39625  24582663.474
  -9477482.082 8  -7385035.15229  22500608.753
  -5171308.277 6  -4029581.72624  25132487.656
 92  5  9  5  6  0.0060000  0  5G17G16G20G 3G23
  -7696507.332 8  -5997262.31829  22788745.282
   3677624.554 6   2865695.19422  24828971.447
  18259043.017 6  14227823.28925  24606818.938
  -9475797.215 7  -7383722.24729  22500930.430
  -5247332.921 5  -4088821.61024  25118012.457
 92  5  9  5  6 30.0060000  0  5G17G16G20G 3G23
  -7711261.155 8  -6008758.77029  22785938.624
   3786171.113 6   2950276.90823  24849637.950
  18386233.825 7  14326932.95724  24631029.579
  -9473835.626 8  -7382193.69129  22501304.563
  -5323170.900 5  -4147916.03724  25103575.647
 92  5  9  5  7  0.0060000  0  5G17G16G20G 3G23
  -7725734.137 8  -6020036.37429  22783187.144
   3895003.839 5   3035081.69024  24870338.934
  18513643.980 6  14426213.53924  24655269.013
  -9471593.085 8  -7380446.27229  22501730.278
  -5398830.057 5  -4206871.12724  25089182.010
 92  5  9  5  7 30.0060000  0  5G17G16G20G 3G23
  -7739920.351 8  -6031090.55529  22780488.712
   4004120.500 5   3120107.68223  24891108.532
  18641271.776 6  14525663.72325  24679555.808
  -9469066.535 7  -7378477.50629  22502211.451
  -5474313.342 6  -4265689.13424  25074829.450
 92  5  9  5  8  0.0060000  0  5G17G16G20G 3G23
  -7753820.248 8  -6041921.59529  22777840.920
   4113523.969 6   3205357.16323  24911925.245
  18769108.958 6  14625277.08025  24703879.457
  -9466259.340 8  -7376290.06029  22502744.485
  -5549621.311 6  -4324370.54824  25060492.176
 92  5  9  5  8 30.0060000  0  5G17G16G20G 3G23
  -7767428.912 7  -6052525.71129  22775252.809
   4223230.776 5   3290843.03824  24932804.291
  18897155.697 6  14725053.70225  24728254.375
  -9463167.211 8  -7373880.57229  22503336.571
  -5624742.076 6  -4382906.12623  25046191.479
 92  5  9  5  9  0.0060000  0  5G17G16G20G 3G23
  -7780738.082 8  -6062896.47929  22772720.468
   4333251.414 5   3376573.44422  24953734.885
  19025409.966 6  14824992.04624  24752657.492
  -9459787.204 8  -7371246.80329  22503972.736
  -5699668.850 6  -4441290.54025  25031946.831
 92  5  9  5  9 30.0060000  0  5G17G16G20G 3G23
  -7793742.211 8  -6073029.51329  22770245.992
   4443608.595 5   3462566.06422  24974738.665
  19153876.294 6  14925095.64125  24777099.279
  -9456110.616 8  -7368381.90329  22504675.142
  -5774381.487 6  -4499508.06924  25017711.816
 92  5  9  5 10  0.0060000  0  5G17G16G20G 3G23
  -7806441.265 8  -6082924.86129  22767827.567
   4554291.458 6   3548812.34022  24995796.087
  19282545.865 6  15025357.58423  24801583.924
  -9452141.321 8  -7365288.94929  22505429.131
  -5848876.611 6  -4557556.13225  25003540.320
 92  5  9  5 10 30.0060000  0  5G17G16G20G 3G23
  -7818839.647 7  -6092585.91029  22765467.878
   4665287.660 6   3635302.88921  25016923.345
  19411415.377 6  15125775.35824  24826112.055
  -9447878.655 7  -7361967.39229  22506238.263
  -5923151.144 6  -4615432.28723  24989404.212
 92  5  9  5 11  0.0060000  0  5G17G16G20G 3G23
  -7830928.609 8  -6102005.84329  22763165.183
   4776588.903 6   3722031.13622  25038100.092
  19540480.318 6  15226345.36225  24850671.352
  -9443322.049 8  -7358416.76329  22507108.854
  -5997209.143 6  -4673139.71923  24975316.651
 92  5  9  5 11 30.0060000  0  5G17G16G20G 3G23
  -7842699.936 8  -6111178.28628  22760926.355
   4888195.978 6   3808997.7072   25059340.671
  19669747.893 6  15327073.33224  24875270.225
  -9438459.713 8  -7354627.92429  22508032.808
  -6071039.221 6  -4730669.58824  24961264.166
 92  5  9  5 12  0.0060000  0  5G17G16G20G 3G23
  -7854164.265 7  -6120111.46929  22758747.451
   5000083.345 5   3896182.73521  25080625.330
  19799207.909 6  15427951.20924  24899902.045
  -9433297.452 8  -7350605.37329  22509014.348
  -6144653.560 6  -4788031.30723  24947259.389
 92  5  9  5 12 30.0060000  0  5G17G16G20G 3G23
  -7865335.081 7  -6128816.00529  22756620.723
   5112266.421 4   3983598.20622  25101972.670
  19928853.848 6  15528973.94125  24924568.068
  -9427836.766 8  -7346350.27029  22510057.906
  -6218053.025 6  -4845225.59325  24933292.653
 92  5  9  5 13  0.0060000  0  5G17G16G20G 3G23
  -7876203.885 7  -6137285.16628  22754549.452
   5224766.092 4   4071260.37222  25123375.746
  20058693.012 6  15630147.29923  24949275.482
  -9422066.442 8  -7341853.92429  22511152.453
  -6291225.860 6  -4902243.30323  24919367.589
 92  5  9  5 13 30.0060000  0  5G17G16G20G 3G23
  -7886791.678 8  -6145535.34829  22752537.546
   5337567.243 4   4159157.39222  25144850.473
  20188709.224 6  15731458.55923  24974031.129
  -9415997.651 8  -7337124.97829  22512308.740
  -6364186.507 6  -4959095.64824  24905480.008
 92  5  9  5 14  0.0060000  0  4G17G20G 3G23
  -7897083.389 7  -6153554.84429  22750576.910
  20318908.266 6  15832912.31125  24998799.689
  -9409620.351 8  -7332155.63129  22513522.926
  -6436912.634 6  -5015765.27825  24891643.067
 92  5  9  5 14 30.0060000  0  4G17G20G 3G23
  -7907066.449 7  -6161333.83329  22748678.605
  20449291.116 6  15934509.29224  25023615.923
  -9402929.103 8  -7326941.65329  22514792.848
  -6509389.660 6  -5072240.79122  24877850.833
 92  5  9  5 15  0.0060000  0  4G17G20G 3G23
  -7916738.470 8  -6168870.44229  22746838.200
  20579856.709 6  16036248.66222  25048464.195
  -9395919.817 7  -7321479.84728  22516125.696
  -6581616.038 6  -5128520.97923  24864109.834
 92  5  9  5 15 30.0060000  0  4G17G20G 3G23
  -7926099.448 8  -6176164.68629  22745058.034
  20710595.906 6  16138123.32624  25073332.605
  -9388597.177 7  -7315773.89628  22517519.131
  -6653598.017 6  -5184610.73125  24850410.820
 92  5  9  5 16  0.0060000  0  4G17G20G 3G23
  -7935154.835 8  -6183220.77929  22743334.232
  20841507.325 6  16240132.15624  25098251.655
  -9380958.316 7  -7309821.51128  22518976.154
  -6725325.741 6  -5240502.36925  24836760.352
 92  5  9  5 16 30.0060000  0  4G17G20G 3G23
  -7943914.078 8  -6190046.16029  22741667.073
  20972590.342 6  16342274.71824  25123189.866
  -9372998.999 8  -7303619.42928  22520492.787
  -6796809.596 6  -5296203.98925  24823156.093
 92  5  9  5 17  0.0060000  0  4G17G20G 3G23
  -7952374.746 8  -6196638.85229  22740058.093
  21103843.048 6  16444549.52824  25148164.688
  -9364716.928 7  -7297165.83828  22522069.380
  -6868054.625 6  -5351719.49626  24809600.659
 92  5  9  5 17 30.0060000  0  4G17G20G 3G23
  -7960515.570 8  -6202982.32029  22738506.350
  21235268.914 6  16546959.24722  25173183.868
  -9356104.261 7  -7290454.65028  22523702.057
  -6939049.175 6  -5407039.84724  24796090.211
 92  5  9  5 18  0.0060000  0  4G17G20G 3G23
  -7968350.876 8  -6209087.73129  22737015.787
  21366848.773 6  16649488.94524  25198213.832
  -9347174.997 7  -7283496.76528  22525404.291
  -7009806.061 6  -5462174.99825  24782623.250
 92  5  9  5 18 30.0060000  0  4G17G20G 3G23
  -7975856.379 8  -6214936.16129  22735586.091
  21498587.899 6  16752142.74824  25223292.063
  -9337919.553 6  -7276284.71629  22527167.077
  -7080318.226 6  -5517119.46825  24769204.242
 92  5  9  5 19  0.0060000  0  4G17G20G 3G23
  -7983026.892 8  -6220523.56229  22734224.729
  21630486.148 7  16854920.55824  25248391.898
  -9328333.146 6  -7268814.78228  22528986.506
  -7150574.029 6  -5571864.16526  24755836.782
 92  5  9  5 19 30.0060000  0  4G17G20G 3G23
  -7989874.533 8  -6225859.34029  22732921.233
  21762546.997 6  16957825.04724  25273510.021
  -9318407.874 7  -7261080.81728  22530874.306
  -7220564.513 6  -5626402.14325  24742517.624
 92  5  9  5 20  0.0060000  0  4G17G20G 3G23
  -7996431.163 8  -6230968.37929  22731670.785
  21894755.717 6  17060844.80024  25298677.283
  -9308154.165 7  -7253090.89127  22532826.252
  -7290303.578 7  -5680744.20626  24729246.699
 92  5  9  5 20 30.0070000  0  5G17G16G20G 3G23
  -8002712.924 8  -6235863.24229  22730477.316
    112732.01615     87857.13021  25450945.775
  22027107.052 6  17163975.64324  25323873.638
  -9297576.433 7  -7244848.48527  22534846.240
  -7359800.724 7  -5734897.77925  24716027.656
 92  5  9  5 21  0.0070000  0  5G17G16G20G 3G23
  -8008722.082 8  -6240545.66529  22729333.594
    229604.701 5    178926.76622  25473192.185
  22159593.976 6  17267212.14223  25349073.602
  -9286669.557 7  -7236349.61227  22536919.919
  -7429052.660 6  -5788860.23526  24702843.074
 92  5  9  5 21 30.0070000  0  4G17G20G 3G23
  -8014452.533 7  -6245010.93529  22728242.676
  22292217.886 6  17370555.41624  25374314.330
  -9275431.385 7  -7227592.55727  22539057.152
  -7498062.902 7  -5842634.38726  24689712.483
 92  5  9  5 22  0.0070000  0  4G17G20G 3G23
  -8019890.198 8  -6249248.07129  22727206.866
  22424977.056 6  17474004.08325  25399575.440
  -9263859.066 6  -7218575.18827  22541258.218
  -7566827.781 7  -5896217.35225  24676628.938
 92  5  9  5 22 30.0070000  0  4G17G20G 3G23
  -8025019.561 8  -6253244.93129  22726230.456
  22557877.147 6  17577562.52024  25424855.152
  -9251942.113 7  -7209289.25527  22543526.153
  -7635340.456 7  -5949603.77425  24663587.658
 92  5  9  5 23  0.0070000  0  4G17G20G 3G23
  -8029847.436 8  -6257006.91829  22725312.505
  22690904.790 6  17681220.41524  25450180.722
  -9239689.706 7  -7199741.90227  22545859.736
  -7703603.715 7  -6002795.86925  24650596.145
 92  5  9  5 23 30.0070000  0  4G17G20G 3G23
  -8034376.360 8  -6260535.92029  22724452.698
  22824052.296 6  17784971.65624  25475511.982
  -9227105.062 7  -7189935.68527  22548252.963
  -7771609.209 7  -6055787.08126  24637658.309
 92  5  9  5 24  0.0070000  0  4G17G20G 3G23
  -8038605.613 8  -6263831.41629  22723646.533
  22957318.079 7  17888815.07023  25500876.502
  -9214185.212 7  -7179868.24626  22550710.373
  -7839341.672 7  -6108565.56326  24624768.741
 92  5  9  5 24 30.0070000  0  4G17G20G 3G23
  -8042525.049 8  -6266885.51029  22722902.176
  23090703.999 6  17992752.11224  25526254.249
  -9200923.225 7  -7169534.23226  22553236.117
  -7906789.284 6  -6161122.07625  24611933.408
 92  5  9  5 25  0.0070000  0  4G17G20G 3G23
  -8046123.197 7  -6269689.21629  22722215.022
  23224207.290 7  18096780.62424  25551661.940
  -9187317.938 7  -7158932.70125  22555823.321
  -7973941.275 7  -6213448.25126  24599156.847
 92  5  9  5 25 30.0070000  0  4G17G20G 3G23
  -8049401.436 8  -6272243.68029  22721594.771
  23357823.333 7  18200896.96323  25577093.957
  -9173369.053 7  -7148063.44424  22558480.396
  -8040794.497 6  -6265541.59225  24586430.054
 92  5  9  5 26  0.0070000  0  4G17G20G 3G23
  -8052371.488 8  -6274557.98629  22721027.255
  23491540.017 6  18305091.76223  25602531.628
  -9159084.348 7  -7136932.50025  22561197.709
  -8107357.015 6  -6317408.45325  24573770.131
 92  5  9  5 26 30.0070000  0  4G17G20G 3G23
  -8055045.697 8  -6276641.75529  22720514.917
  23625352.841 6  18409361.44124  25627995.405
  -9144463.834 7  -7125539.85324  22563977.983
  -8173645.062 6  -6369061.39325  24561152.471
 92  5  9  5 27  0.0070000  0  4G17G20G 3G23
  -8057425.850 9  -6278496.40629  22720067.633
  23759267.266 6  18513710.29624  25653484.659
  -9129497.300 6  -7113877.62126  22566823.310
  -8239644.990 6  -6420489.84125  24548592.677
 92  5  9  5 27 30.0070000  0  4G17G20G 3G23
  -8059530.705 9  -6280136.50529  22719665.300
  23893281.945 6  18618137.24224  25678982.009
  -9114181.940 6  -7101943.56225  22569740.289
  -8305366.182 6  -6471701.07125  24536087.432
 92  5  9  5 28  0.0070000  0  4G17G20G 3G23
  -8061368.929 8  -6281568.88329  22719312.457
  24027386.131 6  18722633.97625  25704505.431
  -9098523.764 6  -7089742.28226  22572717.226
  -8370829.480 6  -6522711.36926  24523625.953
 92  5  9  5 28 30.0070000  0  4G17G20G 3G23
  -8062931.246 8  -6282786.24129  22719015.350
  24161586.813 6  18827205.85924  25730038.764
  -9082511.183 6  -7077264.93826  22575770.910
  -8436029.949 6  -6573516.87326  24511219.336
 92  5  9  5 29  0.0070000  0  4G17G20G 3G23
  -8064208.861 9  -6283781.77629  22718772.233
  24295881.742 6  18931851.19624  25755596.667
  -9066142.239 6  -7064509.88426  22578880.957
  -8500965.103 6  -6624115.61226  24498868.770
 92  5  9  5 29 30.0070000  0  5G17G16G20G 3G23
  -8065195.932 9  -6284550.89429  22718587.540
     92629.88915     72193.04322  25858054.329
  24430271.784 6  19036570.65925  25781168.984
  -9049411.351 5  -7051472.79425  22582066.564
  -8565635.339 6  -6674507.94026  24486556.595
 92  5  9  5 30  0.0070000  0  5G17G16G20G 3G23
  -8065894.833 8  -6285095.46129  22718452.929
    213640.120 5    166486.68022  25881079.298
  24564741.433 6  19141352.15523  25806760.147
  -9032329.314 5  -7038162.08226  22585313.596
  -8630031.483 7  -6724686.69426  24474305.879
 92  5  9  5 30 30.0070000  0  5G17G16G20G 3G23
  -8066288.089 9  -6285401.87729  22718382.186
    334866.732 5    260948.92622  25904154.942
  24699301.441 6  19246204.03924  25832371.727
  -9014881.279 5  -7024566.23324  22588642.818
  -8694120.900 6  -6774626.42126  24462109.119
 92  5  9  5 31  0.0070000  0  5G17G16G20G 3G23
  -8066373.211 9  -6285468.24429  22718362.118
    456291.688 4    355565.82721  25927256.343
  24833946.635 6  19351122.27924  25857979.991
  -8997067.629 6  -7010685.48725  22592028.056
  -8757887.764 6  -6824314.84926  24449971.445
 92  5  9  5 31 30.0070000  0  5G17G16G20G 3G23
  -8066144.671 8  -6285290.08329  22718404.976
    577895.559 5    450322.11121  25950400.916
  24968677.898 6  19456107.66624  25883625.424
  -8978883.483 7  -6996516.01625  22595489.760
  -8821305.955 7  -6873731.55926  24437902.700
 92  5  9  5 32  0.0070000  0  5G17G16G20G 3G23
  -8065604.248 9  -6284868.96529  22718510.201
    699651.519 5    545196.71222  25973573.968
  25103483.248 6  19561150.75123  25909278.989
  -8960336.000 7  -6982063.44925  22599020.114
  -8884382.357 6  -6922881.93726  24425904.105
 92  5  9  5 32 30.0070000  0  5G17G16G20G 3G23
  -8064749.336 8  -6284202.75229  22718671.196
    821571.809 5    640199.48421  25996767.122
  25238365.491 6  19666253.70522  25934935.521
  -8941418.590 7  -6967322.59426  22602618.244
  -8947134.396 6  -6971779.58226  24413960.059
 92  5  9  5 33  0.0070000  0  5G17G16G20G 3G23
  -8063588.777 8  -6283298.41129  22718893.652
    943651.799 4    735326.73721  26019989.941
  25373311.730 6  19771406.59422  25960627.442
  -8922138.853 7  -6952299.42426  22606287.990
  -9009582.646 7  -7020440.50326  24402078.380
 92  5  9  5 33 30.0070000  0  5G17G16G20G 3G23
  -8062132.359 8  -6282163.51429  22719169.156
   1065907.846 5    830591.31022  26043266.124
  25508314.276 6  19876603.31524  25986318.141
  -8902500.787 7  -6936997.01228  22610021.325
  -9071751.104 6  -7068883.38326  24390245.283
 92  5  9  5 34  0.0070000  0  5G17G16G20G 3G23
  -8060375.387 8  -6280794.44129  22719501.024
   1188365.560 5    926012.79922  26066565.375
  25643376.470 6  19981846.53023  26012024.441
  -8882496.138 7  -6921408.98328  22613830.184
  -9133657.576 6  -7117122.15626  24378469.422
 92  5  9  5 34 30.0070000  0  5G17G16G20G 3G23
  -8058326.182 8  -6279197.62229  22719894.038
   1311029.908 4   1021595.32921  26089903.052
  25778490.840 6  20087130.39924  26037723.272
  -8862128.351 7  -6905537.96428  22617707.971
  -9195302.970 7  -7165157.46126  24366737.955
 92  5  9  5 35  0.0070000  0  5G17G16G20G 3G23
  -8055977.866 8  -6277367.75229  22720340.449
   1433893.278 3   1117332.99121  26113289.241
  25913660.036 6  20192456.95422  26063453.234
  -8841390.246 7  -6889378.39628  22621651.441
  -9256663.138 7  -7212970.51026  24355064.039
 92  5  9  5 35 30.0070000  0  4G17G20G 3G23
  -8053345.365 8  -6275316.44024  22720839.595
  26048879.062 6  20297822.37224  26089176.355
  -8820282.217 7  -6872930.57929  22625669.284
  -9317733.213 6  -7260557.52226  24343435.981
 92  5  9  5 36  0.0070000  0  4G17G20G 3G23
  -8050434.710 8  -6273048.39129  22721396.920
  26184146.998 6  20403225.89623  26114921.325
  -8798800.933 7  -6856191.90329  22629756.962
  -9378493.387 7  -7307903.07226  24331878.388
 92  5  9  5 36 30.0070000  0  4G17G20G 3G23
  -8047246.372 8  -6270563.94629  22722003.979
  26319462.927 6  20508666.80823  26140664.793
  -8776943.220 7  -6839159.90029  22633917.478
  -9438928.233 6  -7354995.07827  24320375.344
 92  5  9  5 37  0.0070000  0  4G17G20G 3G23
  -8043782.734 8  -6267864.97629  22722661.433
  26454826.900 6  20614145.14123  26166428.644
  -8754704.299 8  -6821830.85327  22638147.830
  -9499039.766 6  -7401835.16826  24308938.262
 92  5  9  5 37 30.0070000  0  4G17G20G 3G23
  -8040044.288 8  -6264951.89721  22723375.531
  26590237.828 6  20719660.08223  26192194.623
  -8732080.969 8  -6804202.32228  22642453.462
  -9558832.551 6  -7448426.89027  24297558.452
 92  5  9  5 38  0.0070000  0  4G17G20G 3G23
  -8036022.067 8  -6261817.69929  22724134.615
  26725682.962 5  20825201.70323  26217977.669
  -8709081.502 7  -6786280.65327  22646828.929
  -9618315.364 7  -7494777.09326  24286242.788
 92  5  9  5 38 30.0070000  0  4G17G20G 3G23
  -8031705.443 8  -6258454.06429  22724960.534
  26861159.961 5  20930768.12923  26243754.433
  -8685704.215 8  -6768064.55527  22651276.955
  -9677491.629 6  -7540888.38327  24274977.486
 92  5  9  5 39  0.0070000  0  4G17G20G 3G23
  -8027069.022 8  -6254841.24829  22725842.224
  26996683.462 6  21036370.78322  26269533.569
  -8661929.946 8  -6749539.13928  22655799.912
  -9736334.731 6  -7586740.09927  24263781.740
 92  5  9  5 39 30.0070000  0  4G17G20G 3G23
  -8022110.812 8  -6250977.67929  22726784.780
  27132236.717 6  21141996.60423  26295337.625
  -8637771.102 8  -6730714.05427  22660402.930
  -9794852.080 6  -7632337.96227  24252644.139
 92  5  9  5 40  0.0070000  0  4G17G20G 3G23
  -8016831.047 8  -6246863.56029  22727789.389
  27267817.398 6  21247643.81622  26321134.457
  -8613225.959 7  -6711587.93027  22665070.095
  -9853040.684 6  -7677679.67626  24241577.001
 92  5  9  5 40 30.0070000  0  4G17G20G 3G23
  -8011229.738 8  -6242498.89529  22728855.143
  27403436.830 6  21353321.20524  26346942.700
  -8588278.719 7  -6692148.49927  22669816.101
  -9910879.731 6  -7722749.01527  24230569.230
 92  5  9  5 41  0.0070000  0  4G17G20G 3G23
  -8005322.326 8  -6237895.70629  22729977.576
  27539083.436 5  21459019.81822  26372754.539
  -8562936.646 7  -6672401.39826  22674642.168
  -9968384.511 6  -7767557.87527  24219625.605
 92  5  9  5 41 30.0070000  0  4G17G20G 3G23
  -7999135.664 9  -6233074.90429  22731156.932
  27674751.384 5  21564735.01322  26398576.534
  -8537201.642 7  -6652348.15726  22679533.569
 -10025557.676 6  -7812108.34926  24208744.347
 92  5  9  5 42  0.0070000  0  4G17G20G 3G23
  -7992681.220 8  -6228045.43029  22732386.090
  27810445.065 5  21670470.27523  26424389.559
  -8511064.678 7  -6631981.68927  22684509.533
 -10082375.730 6  -7856382.11128  24197926.015
 92  5  9  5 42 30.0070000  0  4G17G20G 3G23
  -7985966.564 8  -6222813.22729  22733662.923
  27946153.184 5  21776216.81423  26450221.186
  -8484533.141 8  -6611307.75526  22689560.743
 -10138850.606 7  -7900388.44927  24187187.151
 92  5  9  5 43  0.0070000  0  4G17G20G 3G23
  -7978983.039 9  -6217371.49329  22734993.083
  28081880.410 6  21881978.19622  26476055.221
  -8457598.059 8  -6590319.38526  22694683.604
 -10194983.404 6  -7944128.24927  24176503.150
 92  5  9  5 43 30.0070000  0  4G17G20G 3G23
  -7971724.516 8  -6211715.47729  22736370.324
  28217630.454 5  21987757.35721  26501884.440
  -8430251.327 8  -6569010.26027  22699890.993
 -10250758.576 7  -7987589.38727  24165891.708
 92  5  9  5 44  0.0070000  0  4G17G20G 3G23
  -7964172.337 8  -6205830.64329  22737811.154
  28353391.858 5  22093545.38621  26527712.158
  -8402500.381 7  -6547386.15728  22705167.625
 -10306186.722 7  -8030780.10527  24155342.911
 92  5  9  5 44 30.0070000  0  4G17G20G 3G23
  -7956310.267 9  -6199704.34029  22739308.906
  28489166.525 5  22199343.74722  26553545.880
  -8374339.254 7  -6525442.42229  22710526.726
 -10361279.621 7  -8073709.60827  24144860.670
 92  5  9  5 45  0.0070000  0  4G17G20G 3G23
  -7948139.151 9  -6193337.21629  22740863.022
  28624946.540 5  22305146.29523  26579397.260
  -8345771.138 7  -6503181.53329  22715962.853
 -10416027.499 6  -8116370.26227  24134435.387
 92  5  9  5 45 30.0070000  0  4G17G20G 3G23
  -7939647.551 9  -6186720.37229  22742475.911
  28760732.539 5  22410953.47223  26605237.892
  -8316791.405 8  -6480599.91429  22721481.135
 -10470403.950 7  -8158741.46827  24124095.539
 92  5  9  5 46  0.0070000  0  4G17G20G 3G23
  -7930825.415 8  -6179845.97429  22744157.135
  28896527.271 5  22516767.44522  26631073.393
  -8287393.357 8  -6457692.33129  22727074.070
 -10524405.429 6  -8200820.51727  24113814.464
 92  5  9  5 46 30.0070000  0  4G17G20G 3G23
  -7921696.455 9  -6172732.45329  22745893.536
  29032318.512 5  22622578.73321  26656900.204
  -8257585.219 7  -6434465.19129  22732746.437
 -10578045.073 6  -8242617.62227  24103610.101
 92  5  9  5 47  0.0070000  0  4G17G20G 3G23
  -7912265.281 9  -6165383.48329  22747687.209
  29168105.669 5  22728386.78921  26682752.527
  -8227363.169 8  -6410915.53929  22738495.272
 -10631305.016 7  -8284118.84828  24093477.422
 92  5  9  5 47 30.0070000  0  4G17G20G 3G23
  -7902527.274 8  -6157795.43329  22749541.120
  29303895.818 5  22834197.21021  26708583.526
  -8196716.410 8  -6387034.96429  22744329.822
 -10684178.958 6  -8325319.26527  24083413.393
 92  5  9  5 48  0.0070000  0  5G17G16G20G 3G23
  -7892483.452 9  -6149969.03229  22751455.304
     21161.86215     16503.74621  26731841.141
  29439686.027 5  22940007.69122  26734418.433
  -8165643.514 8  -6362822.32729  22750242.340
 -10736687.727 6  -8366235.17327  24073421.922
 92  5  9  5 48 30.0070000  0  5G17G16G20G 3G23
  -7882125.018 8  -6141897.50529  22753423.131
    148233.043 4    115520.09423  26756011.298
  29575482.985 5  23045823.44922  26760277.946
  -8134133.548 8  -6338269.10329  22756239.386
 -10788808.179 6  -8406848.47027  24063498.472
 92  5  9  5 49  0.0070000  0  4G17G20G 3G23
  -7871464.065 8  -6133590.25929  22755455.732
  29711273.085 5  23151633.79822  26786111.667
  -8102196.645 8  -6313383.22029  22762315.587
 -10840553.149 7  -8447169.19927  24053655.118
 92  5  9  5 49 30.0070000  0  4G17G20G 3G23
  -7860509.673 8  -6125054.35129  22757535.100
  29847042.451 4  23257428.01222  26811947.762
  -8069842.243 8  -6288171.99229  22768473.629
 -10891953.595 6  -8487221.46928  24043872.561
 92  5  9  5 50  0.0070000  0  4G17G20G 3G23
  -7849266.354 8  -6116293.31529  22759677.707
  29982792.350 5  23363207.05321  26837784.484
  -8037065.030 8  -6262631.31029  22774709.011
 -10943011.271 6  -8527006.63128  24034158.688
 92  5  9  5 50 30.0070000  0  6G17G16G20G 3G23G21
  -7837753.722 8  -6107322.43029  22761864.673
    159265.825 5    124117.60923  26852935.985
  30118512.440 5  23468962.81323  26863612.202
  -8003871.127 7  -6236765.93829  22781026.234
 -10993727.618 7  -8566525.83528  24024507.496
    -13905.113 5    -10834.97721  27204492.713
 92  5  9  5 51  0.0070000  0  6G17G16G20G 3G23G21
  -7825963.185 8  -6098134.96829  22764110.132
    286793.092 4    223489.55821  26877197.302
  30254214.370 5  23574704.51623  26889422.540
  -7970245.160 8  -6210563.86829  22787426.799
 -11044103.660 6  -8605779.84327  24014919.508
    -97309.221 5    -75825.00421  27188619.297
 92  5  9  5 51 30.0070000  0  5G17G20G 3G23G21
  -7813896.369 8  -6088732.23329  22766408.954
  30389893.554 4  23680428.40722  26915248.165
  -7936187.667 8  -6184025.56928  22793903.797
 -11094123.440 7  -8644756.27228  24005400.799
   -180630.383 4   -140750.46622  27172753.105
 92  5  9  5 52  0.0080000  0  5G17G20G 3G23G21
  -7801561.146 8  -6079120.36029  22768752.714
  30525537.506 4  23786124.87522  26941064.491
  -7901710.415 8  -6157160.18329  22800466.879
 -11143782.990 7  -8683451.99527  23995952.538
   -263875.802 4   -205616.83921  27156908.154
 92  5  9  5 52 30.0080000  0  5G17G20G 3G23G21
  -7788943.031 8  -6069288.07929  22771153.445
  30661133.357 4  23891783.81022  26966874.515
  -7866815.887 7  -6129969.64529  22807106.373
 -11193069.090 7  -8721856.72027  23986575.629
   -347026.551 4   -270409.42222  27141097.419
 92  5  9  5 53  0.0080000  0  5G17G20G 3G23G21
  -7776016.824 8  -6059215.69929  22773612.669
  30796687.429 4  23997410.28322  26992661.469
  -7831496.866 8  -6102448.30328  22813829.523
 -11241968.765 7  -8759960.32427  23977266.776
   -430059.910 4   -335110.59122  27125298.655
 92  5  9  5 53 30.0080000  0  5G17G20G 3G23G21
  -7762774.074 8  -6048896.63529  22776136.320
  30932197.931 5  24103002.76622  27018449.017
  -7795751.360 8  -6074594.66228  22820627.011
 -11290474.087 7  -8797756.64128  23968037.669
   -512996.252 5   -399736.14724  27109501.077
 92  5  9  5 54  0.0080000  0  5G17G20G 3G23G21
  -7749202.240 8  -6038321.1672   22778717.521
  31067665.675 4  24208561.91522  27044216.462
  -7759574.660 8  -6046405.01228  22827513.844
 -11338596.558 7  -8835254.65628  23958883.495
   -595843.665 4   -464292.47221  27093737.109
 92  5  9  5 54 30.0080000  0  5G17G20G 3G23G21
  -7735301.680 8  -6027489.58321  22781361.089
  31203094.296 4  24314090.61722  27069994.133
  -7722959.418 8  -6017873.63428  22834482.205
 -11386343.169 7  -8872459.76128  23949793.502
   -678589.203 5   -528769.30221  27077994.988
 92  5  9  5 55  0.0080000  0  5G17G20G 3G23G21
  -7721094.464 8  -6016418.99729  22784065.524
  31338473.727 5  24419580.94523  27095757.111
  -7685911.676 9  -5989005.26627  22841532.128
 -11433725.544 7  -8909381.05629  23940772.437
   -761238.150 5   -593170.94623  27062271.191
 92  5  9  5 55 30.0080000  0  5G17G20G 3G23G21
  -7706581.417 8  -6005110.10929  22786828.696
  31473816.361 4  24525042.60421  27121508.084
  -7648415.229 9  -5959787.26527  22848667.801
 -11480734.920 7  -8946011.70829  23931834.750
   -843783.505 5   -657491.87322  27046561.143
 92  5  9  5 56  0.0080000  0  5G17G20G 3G23G21
  -7691775.845 8  -5993573.29129  22789644.045
  31609120.683 5  24630474.46421  27147267.432
  -7610467.874 9  -5930217.91027  22855888.003
 -11527362.106 7  -8982344.53227  23922957.580
   -926209.840 5   -721720.04523  27030876.923
 92  5  9  5 56 30.0080000  0  5G17G20G 3G23G21
  -7676697.162 8  -5981823.65729  22792513.977
  31744378.930 4  24735870.36322  27173001.338
  -7572072.953 9  -5900299.79226  22863196.049
 -11573590.657 7  -9018366.75729  23914166.160
  -1008524.729 4   -785861.38324  27015192.074
 92  5  9  5 57  0.0080000  0  5G17G20G 3G23G21
  -7661344.657 8  -5969860.65829  22795437.831
  31879590.746 5  24841230.05722  27198738.489
  -7533227.682 9  -5870030.75028  22870589.532
 -11619405.359 7  -9054066.48128  23905443.704
  -1090740.276 5   -849925.33122  26999568.091
 92  5  9  5 57 30.0080000  0  4G17G 3G23G21
  -7645709.637 8  -5957677.50429  22798412.081
  -7493928.525 9  -5839408.02928  22878065.450
 -11664808.478 7  -9089445.50228  23896797.679
  -1172860.977 5   -913915.36124  26983942.294
 92  5  9  5 58  0.0080000  0  4G17G 3G23G21
  -7629782.333 8  -5945266.60929  22801443.289
  -7454173.409 9  -5808430.01829  22885628.618
 -11709789.974 7  -9124495.98628  23888248.224
  -1254885.940 5   -977830.79424  26968337.820
 92  5  9  5 58 30.0080000  0  4G17G 3G23G21
  -7613551.685 8  -5932619.34729  22804533.862
  -7413963.090 9  -5777097.29128  22893278.724
 -11754354.845 7  -9159221.82129  23879766.197
  -1336826.254 5  -1041680.26523  26952731.497
 92  5  9  5 59  0.0080000  0  4G17G 3G23G21
  -7597000.259 8  -5919722.12429  22807678.670
  -7373288.793 8  -5745403.04127  22901022.049
 -11798510.447 7  -9193628.75529  23871362.102
  -1418667.405 5  -1105452.48922  26937164.193
 92  5  9  5 59 30.0080000  0  4G17G 3G23G21
  -7580137.868 8  -5906582.59829  22810888.847
  -7332161.036 8  -5713355.42028  22908848.122
 -11842264.427 7  -9227722.72528  23863037.162
  -1500399.368 5  -1169139.56224  26921617.864
 92  5  9  6  0  0.0080000  0  4G17G 3G23G21
  -7562957.480 9  -5893195.25922  22814157.203
  -7290567.164 8  -5680944.59828  22916763.262
 -11885601.539 7  -9261491.85929  23854785.093
  -1582003.441 4  -1232726.97923  26906084.099
 92  5  9  6  0 30.0080000  0  4G17G 3G23G21
  -7545462.883 8  -5879563.09029  22817486.076
  -7248504.487 8  -5648168.48228  22924768.898
 -11928540.149 7  -9294950.50928  23846622.335
  -1663478.270 5  -1296213.77423  26890577.626
 92  5  9  6  1  0.0080000  0  4G17G 3G23G21
  -7527661.814 8  -5865692.12321  22820871.628
  -7205970.729 8  -5615025.28127  22932863.007
 -11971083.583 7  -9328101.19028  23838520.443
  -1744807.444 4  -1359587.01222  26875099.667
 92  5  9  6  1 30.0080000  0  4G17G 3G23G21
  -7509550.673 8  -5851579.53825  22824316.859
  -7162961.188 8  -5581511.35927  22941047.927
 -12013222.784 7  -9360936.88428  23830502.487
  -1825983.928 5  -1422841.29323  26859659.435
 92  5  9  6  2  0.0080000  0  4G17G 3G23G21
  -7491130.731 9  -5837226.33324  22827828.018
  -7119475.971 8  -5547626.75629  22949319.505
 -12054960.556 7  -9393459.82128  23822563.685
  -1907017.466 5  -1485984.23122  26844238.712
 92  5  9  6  2 30.0080000  0  4G17G 3G23G21
  -7472383.345 9  -5822617.97929  22831393.760
  -7075505.769 9  -5513364.23628  22957687.931
 -12096273.025 7  -9425651.30528  23814696.219
  -1987892.671 5  -1549003.77723  26828851.878
 92  5  9  6  3  0.0080000  0  4G17G 3G23G21
  -7453294.005 9  -5807743.15129  22835025.744
  -7031042.942 8  -5478717.87926  22966148.076
 -12137122.772 7  -9457482.25928  23806928.604
  -2068583.025 4  -1611879.25821  26813504.307
 92  5  9  6  3 30.0080000  0  4G17G 3G23G21
  -7433869.216 9  -5792606.91823  22838723.375
  -6986102.279 8  -5443699.20627  22974701.440
 -12177513.035 7  -9488955.15827  23799240.422
  -2149109.467 3  -1674627.02522  26798149.825
 92  5  9  6  4  0.0080000  0  4G17G 3G23G21
  -7414111.913 9  -5777211.62726  22842484.560
  -6940695.110 8  -5408316.97828  22983341.776
 -12217458.095 7  -9520081.16727  23791633.802
  -2229477.205 3  -1737251.13221  26782869.088
 92  5  9  6  4 30.0080000  0  3G17G 3G23
  -7394015.286 9  -5761551.92623  22846306.926
  -6894818.136 7  -5372568.67428  22992070.235
 -12256960.230 7  -9550862.00728  23784122.496
 92  5  9  6  5  0.0080000  0  3G17G 3G23
  -7373610.768 9  -5745652.28629  22850186.842
  -6848482.469 8  -5336462.94829  23000893.100
 -12296049.811 7  -9581321.40527  23776680.152
 92  5  9  6  5 30.0080000  0  3G17G 3G23
  -7352908.815 9  -5729520.86629  22854129.998
  -6801683.321 7  -5299996.08628  23009793.967
 -12334745.590 7  -9611473.91628  23769314.555
 92  5  9  6  6  0.0080000  0  3G17G 3G23
  -7331923.128 9  -5713168.38124  22858121.456
  -6754420.658 7  -5263168.05129  23018790.113
 -12373060.104 7  -9641329.33828  23762028.077
 92  5  9  6  6 30.0080000  0  3G17G 3G23
  -7310673.475 9  -5696610.20122  22862166.242
  -6706683.981 7  -5225970.61829  23027870.543
 -12410979.048 7  -9670876.55628  23754808.782
 92  5  9  6  7  0.0080000  0  3G17G 3G23
  -7289174.952 9  -5679858.11329  22866259.924
  -6658471.604 7  -5188402.54529  23037044.193
 -12448486.597 8  -9700103.16527  23747674.016
 92  5  9  6  7 30.0080000  0  3G17G 3G23
  -7267419.688 9  -5662905.94229  22870397.056
  -6609796.944 7  -5150474.20828  23046308.059
 -12485576.383 7  -9729004.26529  23740615.124
 92  5  9  6  8  0.0080000  0  3G17G 3G23
  -7245390.530 9  -5645740.35829  22874591.740
  -6560654.080 7  -5112181.08228  23055660.713
 -12522230.094 7  -9757565.57728  23733640.447
 92  5  9  6  8 30.0080000  0  3G17G 3G23
  -7223077.068 8  -5628353.21629  22878834.411
  -6511034.207 7  -5073516.23828  23065102.956
 -12558433.224 7  -9785775.77328  23726751.519
 92  5  9  6  9  0.0080000  0  4G17G 3G23G21
  -7200459.999 8  -5610729.51829  22883138.542
  -6460949.222 7  -5034488.99428  23074634.265
 -12594205.212 7  -9813650.00528  23719946.528
    -13157.33414    -10248.91423  26631442.730
 92  5  9  6  9 30.0080000  0  4G17G 3G23G21
  -7177520.905 9  -5592854.90029  22887507.099
  -6410395.072 7  -4995096.14829  23084254.919
 -12629563.349 7  -9841201.76828  23713211.686
    -92034.205 4    -71711.26423  26616435.717
 92  5  9  6 10  0.0080000  0  4G17G 3G23G21
  -7154273.620 9  -5574740.11029  22891929.962
  -6359360.934 7  -4955329.27328  23093969.385
 -12664509.749 8  -9868432.71128  23706565.282
   -170764.888 4   -133059.77822  26601458.405
 92  5  9  6 10 30.0080000  0  4G17G 3G23G21
  -7130719.662 9  -5556386.37529  22896410.061
  -6307843.277 7  -4915185.62428  23103765.100
 -12699039.210 7  -9895338.74728  23699999.219
   -249337.933 4   -194285.44422  26586503.254
 92  5  9  6 11  0.0080000  0  4G17G 3G23G21
  -7106847.458 8  -5537784.65729  22900951.899
  -6255841.985 7  -4874665.16128  23113663.631
 -12733144.415 8  -9921914.20428  23693506.342
   -327742.885 5   -255380.10022  26571592.462
 92  5  9  6 11 30.0080000  0  4G17G 3G23G21
  -7082676.090 9  -5518949.80829  22905551.602
  -6203350.662 7  -4833762.82429  23123653.916
 -12766806.899 7  -9948144.67829  23687100.646
   -405969.681 5   -316335.94324  26556698.491
 92  5  9  6 12  0.0080000  0  4G17G 3G23G21
  -7058209.738 8  -5499885.09229  22910210.391
  -6150369.817 7  -4792479.02528  23133728.450
 -12800013.844 8  -9974020.18929  23680780.736
   -484008.363 4   -377145.20523  26541837.467
 92  5  9  6 12 30.0080000  0  4G17G 3G23G21
  -7033431.027 8  -5480576.99829  22914924.044
  -6096908.392 7  -4750820.81628  23143909.396
 -12832768.556 7  -9999543.31728  23674547.169
   -561866.439 5   -437813.75323  26527030.434
 92  5  9  6 13  0.0080000  0  4G17G 3G23G21
  -7008343.236 8  -5461028.08329  22919698.807
  -6042969.138 7  -4708790.19928  23154167.087
 -12865083.873 7 -10024724.04729  23668396.002
   -639554.848 5   -498350.08524  26512250.344
 92  5  9  6 13 30.0080000  0  4G17G 3G23G21
  -6982961.824 9  -5441250.34729  22924529.691
  -5988557.021 7  -4666391.16628  23164523.443
 -12896981.114 8 -10049579.00829  23662327.619
   -717098.304 5   -558773.47823  26497490.077
 92  5  9  6 14  0.0080000  0  4G17G 3G23G21
  -6957277.408 9  -5421236.47129  22929415.682
  -5933672.373 7  -4623623.89827  23174970.295
 -12928466.315 7 -10074112.89729  23656336.261
   -794502.039 4   -619087.97923  26482756.754
 92  5  9  6 14 30.0080000  0  4G17G 3G23G21
  -6931287.247 8  -5400984.41129  22934360.166
  -5878302.979 7  -4580478.91327  23185511.902
 -12959528.639 8 -10098317.29528  23650427.652
   -871751.671 4   -679282.37322  26468061.541
 92  5  9  6 15  0.0080000  0  4G17G 3G23G21
  -6905007.962 8  -5380507.05729  22939359.828
  -5822443.839 7  -4536952.30728  23196139.538
 -12990170.652 8 -10122194.15029  23644595.476
   -948842.088 4   -739352.72023  26453409.501
 92  5  9  6 15 30.0080000  0  4G17G 3G23G21
  -6878440.024 8  -5359804.75529  22944417.913
  -5766092.521 7  -4493042.17527  23206864.023
 -13020369.428 7 -10145725.62829  23638846.083
  -1025744.419 5   -799276.5252   26438759.520
 92  5  9  6 16  0.0080000  0  4G17G 3G23G21
  -6851592.043 8  -5338884.23629  22949526.081
  -5709261.769 7  -4448758.48727  23217672.129
 -13050120.279 8 -10168908.10529  23633185.371
  -1102450.423 4   -859047.31822  26424155.747
 92  5  9  6 16 30.0080000  0  4G17G 3G23G21
  -6824456.274 9  -5317739.46429  22954691.799
  -5651950.905 7  -4404100.67427  23228579.493
 -13079424.418 8 -10191742.45928  23627609.852
  -1178958.024 4   -918663.53222  26409606.802
 92  5  9  6 17  0.0080000  0  4G17G 3G23G21
  -6797018.385 9  -5296359.27529  22959913.288
  -5594162.818 7  -4359070.98228  23239580.982
 -13108288.163 8 -10214233.67729  23622116.454
  -1255274.165 4   -978130.57622  26395080.682
 92  5  9  6 17 30.0080000  0  4G17G 3G23G21
  -6769272.369 8  -5274739.00229  22965192.328
  -5535892.473 7  -4313665.53327  23250664.593
 -13136711.329 7 -10236381.56728  23616707.305
  -1331398.109 5  -1037447.78222  26380608.484
 92  5  9  6 18  0.0080000  0  4G17G 3G23G21
  -6741219.341 8  -5252879.49529  22970532.234
  -5477137.834 7  -4267882.73227  23261843.272
 -13164712.062 8 -10258200.29829  23611377.869
  -1407350.052 3  -1096630.99722  26366125.815
 92  5  9  6 18 30.0080000  0  4G17G 3G23G21
  -6712864.924 8  -5230785.16529  22975924.910
  -5417898.634 7  -4221722.29827  23273124.454
 -13192294.585 8 -10279693.15329  23606131.217
  -1483135.905 5  -1155684.83122  26351720.486
 92  5  9  6 19  0.0080000  0  4G17G 3G23G21
  -6684232.098 8  -5208473.84929  22981376.916
  -5358180.337 7  -4175188.54827  23284485.697
 -13219461.304 8 -10300862.01128  23600965.499
  -1558765.249 5  -1214616.68322  26337330.757
 92  5  9  6 19 30.0080000  0  4G17G 3G23G21
  -6655340.997 8  -5185961.30129  22986871.815
  -5297979.175 7  -4128278.55527  23295935.972
 -13246201.007 7 -10321698.10929  23595872.618
  -1634238.616 6  -1273426.98822  26322970.973
 92  5  9  6 20  0.0080000  0  4G17G 3G23G21
  -6626186.041 9  -5163243.13829  22992420.077
  -5237296.823 7  -4080993.62226  23307486.969
 -13272497.126 8 -10342188.56129  23590872.677
  -1709554.685 5  -1332114.80221  26308635.200
 92  5  9  6 20 30.0080000  0  4G17G 3G23G21
  -6596773.039 8  -5140323.91829  22998019.014
  -5176135.260 7  -4033335.25627  23319128.812
 -13298343.833 7 -10362328.83628  23585951.576
  -1784713.641 6  -1390680.12022  26294341.099
 92  5  9  6 21  0.0080000  0  4G17G 3G23G21
  -6567094.903 8  -5117198.08129  23003663.811
  -5114490.585 8  -3985300.44826  23330859.093
 -13323742.041 8 -10382119.61929  23581119.820
  -1859699.136 5  -1449110.26222  26280063.784
 92  5  9  6 21 30.0080000  0  4G17G 3G23G21
  -6537130.564 8  -5093849.24829  23009369.439
  -5052360.198 8  -3936887.19425  23342681.999
 -13348681.988 8 -10401553.31629  23576372.314
  -1934489.031 5  -1507388.01122  26265829.048
 92  5  9  6 22  0.0080000  0  4G17G 3G23G21
  -6506842.781 8  -5070248.38229  23015128.464
  -4989735.875 7  -3888089.03326  23354599.032
 -13373159.248 8 -10420626.49529  23571713.559
  -2009064.954 6  -1565499.05923  26251629.387
 92  5  9  6 22 30.0080000  0  4G17G 3G23G21
  -6476242.875 8  -5046404.29729  23020948.914
  -4926622.921 7  -3838910.12427  23366606.632
 -13397189.299 7 -10439351.17928  23567140.206
  -2083426.553 6  -1623443.09024  26237496.875
 92  5  9  6 23  0.0080000  0  4G17G 3G23G21
  -6445332.109 8  -5022318.00029  23026839.864
  -4863031.502 8  -3789358.38026  23378708.672
 -13420794.190 8 -10457744.59228  23562647.822
  -2157581.022 5  -1681225.71322  26223370.330
 92  5  9  6 23 30.0090000  0  4G17G 3G23G21
  -6414115.976 8  -4997993.75129  23032776.937
  -4798956.952 7  -3739430.14626  23390902.730
 -13443972.137 7 -10475805.30228  23558237.859
  -2231546.727 5  -1738861.25622  26209298.077
 92  5  9  6 24  0.0090000  0  4G17G 3G23G21
  -6382623.274 8  -4973453.97129  23038770.982
  -4734403.138 8  -3689128.51926  23403184.298
 -13466731.611 8 -10493539.94629  23553906.784
  -2305330.526 5  -1796355.05923  26195257.911
 92  5  9  6 24 30.0090000  0  4G17G 3G23G21
  -6350869.183 8  -4948710.53029  23044811.515
  -4669363.263 7  -3638448.11027  23415561.249
 -13489067.378 7 -10510944.40428  23549655.702
  -2378931.353 5  -1853706.26523  26181260.602
 92  5  9  6 25  0.0090000  0  4G17G 3G23G21
  -6318845.427 8  -4923756.95329  23050904.502
  -4603840.440 7  -3587391.36926  23428027.231
 -13510977.650 7 -10528017.33028  23545492.185
  -2452352.466 4  -1910917.39222  26167287.271
 92  5  9  6 25 30.0090000  0  4G17G 3G23G21
  -6286558.951 7  -4898598.66929  23057052.040
  -4537838.781 8  -3535961.49827  23440590.026
 -13532441.525 7 -10544742.39528  23541405.728
  -2525593.536 5  -1967988.29723  26153357.704
 92  5  9  6 26  0.0090000  0  4G17G 3G23G21
  -6253987.880 8  -4873218.62729  23063249.659
  -4471348.499 8  -3484150.94827  23453243.074
 -13553445.198 7 -10561108.86629  23537407.394
  -2598642.430 3  -2024909.43524  26139416.167
 92  5  9  6 26 30.0090000  0  4G17G 3G23G21
  -6221113.146 8  -4847601.95529  23069503.328
  -4404373.794 7  -3431962.86827  23465986.026
 -13573990.428 7 -10577118.12728  23533496.905
  -2671501.024 4  -2081682.32323  26125578.947
 92  5  9  6 27  0.0090000  0  4G17G 3G23G21
  -6187933.528 8  -4821747.67929  23075815.735
  -4336909.772 7  -3379393.51927  23478822.267
 -13594072.508 7 -10592766.48128  23529674.854
  -2744164.132 5  -2138302.84923  26111760.015
 92  5  9  6 27 30.0090000  0  4G17G 3G23G21
  -6154459.574 7  -4795664.08829  23082188.136
  -4268952.731 7  -3326439.98727  23491754.693
 -13613692.427 7 -10608054.69528  23525938.832
  -2816624.127 3  -2194765.05723  26097959.650
 92  5  9  6 28  0.0090000  0  3G17G 3G23
  -6120694.357 7  -4769353.55129  23088612.085
  -4200511.818 7  -3273109.41727  23504780.687
 -13632874.706 7 -10623001.91029  23522292.469
 92  5  9  6 28 30.0090000  0  3G17G 3G23
  -6086651.616 8  -4742826.76829  23095091.490
  -4131584.565 7  -3219399.89327  23517898.993
 -13651617.026 7 -10637606.31129  23518726.413
 92  5  9  6 29  0.0090000  0  4G17G 3G23G21
  -6052346.609 8  -4716095.57029  23101618.884
  -4062173.017 7  -3165312.96726  23531106.644
 -13669917.560 7 -10651866.43228  23515242.826
    -26315.05015    -20498.32223  26056828.125
 92  5  9  6 29 30.0090000  0  4G17G 3G23G21
  -6017784.218 8  -4689163.84529  23108193.916
  -3992279.936 7  -3110850.85127  23544410.550
 -13687778.206 7 -10665783.78229  23511849.491
    -97946.968 4    -76315.36724  26043206.171
 92  5  9  6 30  0.0090000  0  4G17G 3G23G21
  -5982965.221 8  -4662032.14529  23114819.345
  -3921893.738 7  -3056004.46627  23557798.672
 -13705187.615 7 -10679349.55029  23508532.589
   -169371.307 5   -131970.67623  26029603.378
 92  5  9  6 30 30.0090000  0  4G17G 3G23G21
  -5947914.366 8  -4634719.79729  23121490.912
  -3851025.945 7  -3000782.83826  23571289.051
 -13722161.151 7 -10692575.66029  23505298.121
   -240598.059 4   -187471.95923  26016059.949
 92  5  9  6 31  0.0090000  0  4G17G 3G23G21
  -5912613.588 8  -4607212.69029  23128205.686
  -3779675.523 7  -2945185.11726  23584860.958
 -13738696.173 7 -10705460.07829  23502153.906
   -311624.178 5   -242816.92723  26002537.531
 92  5  9  6 31 30.0090000  0  4G17G 3G23G21
  -5877038.335 8  -4579491.68929  23134977.104
  -3707836.892 7  -2889206.94427  23598530.586
 -13754796.340 7 -10718005.63929  23499087.623
   -382446.653 5   -298003.23624  25989056.156
 92  5  9  6 32  0.0090000  0  4G17G 3G23G21
  -5841169.024 8  -4551541.56529  23141803.350
  -3635506.708 7  -2832845.78226  23612299.750
 -13770462.393 7 -10730212.92529  23496112.187
   -453050.225 5   -353018.93424  25975635.333
 92  5  9  6 32 30.0090000  0  4G17G 3G23G21
  -5804987.664 8  -4523348.29229  23148686.902
  -3562684.277 7  -2776101.06227  23626156.165
 -13785686.082 7 -10742075.54129  23493213.182
   -523431.451 5   -407861.43422  25962241.209
 92  5  9  6 33  0.0090000  0  4G17G 3G23G21
  -5768475.188 8  -4494897.02329  23155636.975
  -3489357.812 7  -2718963.53726  23640112.675
 -13800445.282 7 -10753576.18929  23490406.524
   -593582.256 5   -462524.34024  25948886.348
 92  5  9  6 33 30.0090000  0  4G17G 3G23G21
  -5731653.986 8  -4466205.18229  23162640.724
  -3415534.130 7  -2661438.61127  23654157.064
 -13814742.801 7 -10764717.09929  23487686.803
   -663511.126 5   -517014.31122  25935577.661
 92  5  9  6 34  0.0090000  0  4G17G 3G23G21
  -5694542.492 8  -4437287.10029  23169703.840
  -3341210.437 7  -2603524.04827  23668299.488
 -13828564.936 7 -10775487.57229  23485051.645
   -733202.676 5   -571319.34725  25922313.645
 92  5  9  6 34 30.0090000  0  4G17G 3G23G21
  -5657143.700 8  -4408145.16229  23176823.912
  -3266387.420 7  -2545220.43026  23682541.728
 -13841913.634 7 -10785889.14529  23482512.394
   -802660.050 5   -625441.91424  25909089.521
 92  5  9  6 35  0.0090000  0  4G17G 3G23G21
  -5619470.277 8  -4378789.24529  23183988.972
  -3191081.297 7  -2486540.32327  23696865.809
 -13854814.257 7 -10795941.54529  23480058.894
   -871891.351 6   -679388.34223  25895927.730
 92  5  9  6 35 30.0090000  0  4G17G 3G23G21
  -5581521.044 8  -4349218.41629  23191214.863
  -3115290.676 7  -2427482.71527  23711289.426
 -13867277.309 7 -10805652.98429  23477681.546
   -940891.625 6   -733154.69825  25882799.198
 92  5  9  6 36  0.0090000  0  4G17G 3G23G21
  -5543285.335 8  -4319424.35529  23198492.616
  -3039021.264 7  -2368052.02726  23725805.354
 -13879322.091 7 -10815038.53229  23475391.135
  -1009661.938 5   -786741.90324  25869703.089
 92  5  9  6 36 30.0090000  0  4G17G 3G23G21
  -5504752.769 8  -4289398.97929  23205821.951
  -2962274.018 7  -2308248.99327  23740412.443
 -13890952.276 7 -10824100.99628  23473181.065
  -1078208.889 5   -840155.06423  25856670.184
 92  5  9  6 37  0.0090000  0  4G17G 3G23G21
  -5465933.263 8  -4259150.01329  23213211.839
  -2885043.980 7  -2248069.74427  23755110.971
 -13902150.539 7 -10832826.88128  23471048.648
  -1146527.667 5   -893390.41224  25843666.107
 92  5  9  6 37 30.0090000  0  4G17G 3G23G21
  -5426841.911 7  -4228689.22229  23220646.993
  -2807332.892 7  -2187515.67326  23769895.842
 -13912908.563 7 -10841209.74829  23469004.635
  -1214617.842 5   -946447.62124  25830710.856
 92  5  9  6 38  0.0090000  0  4G17G 3G23G21
  -5387494.467 8  -4198028.88129  23228137.011
  -2729144.738 7  -2126589.84426  23784775.434
 -13923217.094 7 -10849242.36529  23467041.590
  -1282485.275 5   -999331.34324  25817790.401
 92  5  9  6 38 30.0090000  0  5G28G17G 3G23G21
   -189626.361 4   -147760.52822  26695065.581
  -5347907.372 8  -4167181.77029  23235668.664
  -2650473.632 7  -2065287.69726  23799738.088
 -13933048.695 7 -10856903.31929  23465167.611
  -1350133.321 5  -1052044.05823  25804910.116
 92  5  9  6 39  0.0090000  0  5G28G17G 3G23G21
   -269542.974 4   -210033.17422  26679867.628
  -5308087.759 8  -4136153.49429  23243242.652
  -2571320.447 7  -2003609.91026  23814808.061
 -13942404.172 7 -10864193.28529  23463390.725
  -1417558.180 5  -1104582.85924  25792086.195
 92  5  9  6 39 30.0090000  0  5G28G17G 3G23G21
   -349329.214 3   -272204.11621  26664657.635
  -5268004.899 8  -4104920.09329  23250872.969
  -2491679.450 7  -1941551.97627  23829962.877
 -13951292.635 7 -10871119.35529  23461697.216
  -1484758.762 5  -1156946.94924  25779300.072
 92  5  9  6 40  0.0090000  0  5G28G17G 3G23G21
   -428985.143 4   -334273.63821  26649523.235
  -5227655.526 9  -4073478.99429  23258553.333
  -2411557.165 7  -1879119.02726  23845208.818
 -13959723.854 7 -10877689.10229  23460093.018
  -1551746.030 6  -1209144.80524  25766552.897
 92  5  9  6 40 30.0090000  0  5G28G17G 3G23G21
   -508523.496 4   -396251.57723  26634379.518
  -5187028.500 9  -4041821.55529  23266282.873
  -2330967.123 7  -1816321.61626  23860542.290
 -13967723.839 7 -10883922.85429  23458573.976
  -1618520.995 5  -1261177.23224  25753842.298
 92  5  9  6 41  0.0090000  0  5G28G17G 3G23G21
   -587940.314 4   -458134.81522  26619274.155
  -5146103.118 9  -4009931.64629  23274070.311
  -2249908.319 7  -1753158.93226  23875963.606
 -13975315.120 7 -10889838.10229  23457129.273
  -1685068.304 5  -1313032.23724  25741175.150
 92  5  9  6 41 30.0090000  0  5G28G17G 3G23G21
   -667244.169 5   -519930.01921  26604185.301
  -5104890.002 8  -3977817.52029  23281912.579
  -2168391.463 7  -1689639.30526  23891481.456
 -13982509.177 7 -10895443.86129  23455758.628
  -1751398.620 6  -1364718.15325  25728560.493
 92  5  9  6 42  0.0090000  0  5G28G17G 3G23G21
   -746422.337 5   -581627.29722  26589114.455
  -5063401.600 8  -3945488.91029  23289806.394
  -2086403.406 7  -1625752.51225  23907081.776
 -13989283.192 8 -10900722.30729  23454471.291
  -1817487.899 6  -1416216.29025  25715988.693
 92  5  9  6 42 30.0090000  0  5G28G17G 3G23G21
   -825481.872 5   -643232.10921  26574070.239
  -5021637.144 8  -3912945.16429  23297757.202
  -2003944.902 7  -1561499.14426  23922775.001
 -13995641.418 7 -10905676.72929  23453261.362
  -1883332.569 5  -1467523.79124  25703444.185
 92  5  9  6 43  0.0090000  0  5G28G17G 3G23G21
   -904417.350 4   -704740.21822  26559050.348
  -4979618.062 8  -3880203.04229  23305751.147
  -1921015.291 7  -1496878.69526  23938554.291
 -14001575.982 7 -10910301.07429  23452131.740
  -1948953.662 6  -1518657.12225  25690968.326
 92  5  9  6 43 30.0090000  0  5G28G17G 3G23G21
   -983221.553 4   -766146.12322  26544042.148
  -4937354.522 8  -3847270.37729  23313795.488
  -1837615.962 7  -1431892.21526  23954427.707
 -14007073.569 8 -10914584.89229  23451082.144
  -2014365.359 5  -1569627.22624  25678511.942
 92  5  9  6 44  0.0090000  0  5G28G17G 3G23G21
  -1061891.718 4   -827447.55622  26529073.212
  -4894834.802 8  -3814138.13729  23321884.187
  -1753743.583 7  -1366537.15026  23970380.836
 -14012128.925 7 -10918524.10829  23450117.426
  -2079562.345 5  -1620430.07924  25666099.323
 92  5  9  6 44 30.0090000  0  5G28G17G 3G23G21
  -1140413.378 5   -888633.38021  26514139.036
  -4852049.683 7  -3780799.05729  23330026.563
  -1669401.827 7  -1300816.32825  23986431.755
 -14016747.328 7 -10922122.85329  23449241.111
  -2144554.196 5  -1671073.05825  25653743.696
 92  5  9  6 45  0.0090000  0  5G28G17G 3G23G21
  -1218769.688 4   -949690.37721  26499224.370
  -4809005.663 7  -3747258.26529  23338217.172
  -1584585.612 7  -1234725.73026  24002573.172
 -14020921.993 7 -10925375.82529  23448446.079
  -2209331.209 6  -1721548.62825  25641415.606
 92  5  9  6 45 30.0090000  0  5G28G17G 3G23G21
  -1296969.750 3  -1010625.39921  26484350.154
  -4765694.294 7  -3713509.14029  23346457.898
  -1499295.601 7  -1168266.02925  24018806.342
 -14024646.613 8 -10928278.11429  23447739.764
  -2273870.865 5  -1771839.23325  25629131.909
 92  5  9  6 46  0.0090000  0  4G17G 3G23G21
  -4722112.613 7  -3679549.38029  23354753.731
  -1413527.357 7  -1101433.65626  24035129.136
 -14027927.933 7 -10930834.96929  23447112.289
  -2338161.353 5  -1821935.67425  25616897.701
 92  5  9  6 46 30.0090000  0  4G17G 3G23G21
  -4678271.902 7  -3645387.78429  23363099.054
  -1327284.305 7  -1034231.27426  24051539.181
 -14030773.373 8 -10933052.20229  23446573.880
  -2402208.143 6  -1871842.22324  25604715.634
 92  5  9  6 47  0.0090000  0  4G17G 3G23G21
  -4634166.168 7  -3611019.68129  23371490.863
  -1240559.791 7   -966653.77526  24068043.632
 -14033173.301 8 -10934922.24129  23446115.777
  -2465996.147 5  -1921547.11624  25592579.112
 92  5  9  6 47 30.0090000  0  4G17G 3G23G21
  -4589793.215 7  -3576443.34729  23379932.127
  -1153363.470 7   -898708.60426  24084637.148
 -14035131.016 8 -10936447.72929  23445744.960
  -2529530.507 6  -1971054.37224  25580487.298
 92  5  9  6 48  0.0090000  0  4G17G 3G23G21
  -4545137.355 7  -3541646.56428  23388435.723
  -1065678.862 7   -830382.95826  24101319.417
 -14036632.775 8 -10937617.92429  23445460.452
  -2592799.384 5  -2020354.72925  25568440.436
 92  5  9  6 48 30.0090000  0  4G17G 3G23G21
  -4500196.984 7  -3506628.12328  23396983.398
   -977511.267 7   -761680.95726  24118099.686
 -14037670.694 8 -10938426.64729  23445259.879
  -2655800.288 6  -2069446.32424  25556461.036
 92  5  9  6 49  0.0090000  0  4G17G 3G23G21
  -4454972.017 6  -3471387.88827  23405584.436
   -888860.699 7   -692602.61526  24134970.207
 -14038241.402 8 -10938871.36129  23445152.246
  -2718523.760 6  -2118321.71124  25544518.211
 92  5  9  6 49 30.0090000  0  4G17G 3G23G21
  -4409461.420 7  -3435925.08526  23414245.467
   -799721.414 7   -623143.47326  24151929.481
 -14038341.940 8 -10938949.73529  23445132.178
  -2780962.641 6  -2166975.33825  25532643.129
 92  5  9  6 50  0.0090000  0  4G17G 3G23G21
  -4363672.449 7  -3400245.32926  23422963.736
   -710100.560 8   -553309.05226  24168986.475
 -14037986.840 8 -10938672.99729  23445200.513
  -2843131.701 6  -2215418.69525  25520809.124
 92  5  9  6 50 30.0090000  0  4G17G 3G23G21
  -4317601.252 7  -3364345.70126  23431728.143
   -619997.193 7   -483098.64126  24186131.279
 -14037174.128 8 -10938039.70529  23445353.133
  -2905027.262 5  -2263648.94724  25509023.666
 92  5  9  6 51  0.0090000  0  4G17G 3G23G21
  -4271244.792 7  -3328223.75926  23440551.636
   -529409.935 7   -412511.18026  24203372.653
 -14035900.289 8 -10937047.07529  23445599.844
  -2966650.446 6  -2311666.99124  25497307.764
 92  5  9  6 51 30.0090000  0  4G17G 3G23G21
  -4224604.927 6  -3291880.99126  23449426.084
   -438351.755 7   -341556.78425  24220699.463
 -14034183.097 8 -10935709.00229  23445923.336
  -3028029.678 6  -2359494.91324  25485620.376
 92  5  9  6 52  0.0090000  0  4G17G 3G23G21
  -4177677.002 6  -3255313.82727  23458352.708
   -346822.446 7   -270235.27526  24238115.897
 -14032026.262 8 -10934028.33629  23446334.045
  -3089171.096 6  -2407137.55024  25473987.537
 92  5  9  6 52 30.0090000  0  4G17G 3G23G21
  -4130471.402 6  -3218530.24727  23467340.198
   -254823.892 7   -198548.07625  24255620.175
 -14029437.214 8 -10932010.87729  23446826.315
  -3150066.999 6  -2454588.85125  25462402.059
 92  5  9  6 53  0.0090000  0  5G28G17G 3G23G21
    -27632.03315    -21530.79522  26265300.223
  -4082990.377 6  -3181532.06828  23476374.734
   -162359.192 7   -126497.70426  24273219.488
 -14026425.035 8 -10929663.69229  23447402.207
  -3210718.257 5  -2501849.53424  25450857.344
 92  5  9  6 53 30.0090000  0  5G28G17G 3G23G21
   -102843.209 5    -80136.81721  26250993.522
  -4035244.554 7  -3144327.53029  23485460.260
    -69424.569 7    -54081.10726  24290906.365
 -14022996.810 8 -10926992.36429  23448051.565
  -3271119.191 6  -2548915.14926  25439361.489
 92  5  9  6 54  0.0090000  0  5G28G17G 3G23G21
   -177841.525 5   -138576.93221  26236722.211
  -3987251.017 7  -3106929.96129  23494591.924
     23980.476 6     18702.00525  24308670.861
 -14019141.070 8 -10923987.85929  23448783.951
  -3331250.789 6  -2595770.91125  25427922.313
 92  5  9  6 54 30.0100000  0  5G28G17G 3G23G21
   -252633.585 5   -196856.36822  26222493.743
  -3939012.623 7  -3069341.60729  23503773.377
    117852.734 7     91849.20725  24326541.196
 -14014857.337 8 -10920649.88229  23449597.884
  -3391115.079 6  -2642418.36325  25416526.888
 92  5  9  6 55  0.0100000  0  5G28G17G 3G23G21
   -327209.988 5   -254967.71822  26208305.773
  -3890531.528 7  -3031564.11029  23512994.700
    212183.314 7    165353.49526  24344495.760
 -14010133.362 8 -10916968.85329  23450499.642
  -3450718.975 6  -2688862.93025  25405190.249
 92  5  9  6 55 30.0100000  0  5G28G17G 3G23G21
   -401559.597 5   -312902.53822  26194158.847
  -3841806.527 7  -2993596.56629  23522271.480
    306975.865 7    239217.83026  24362524.383
 -14004966.732 8 -10912942.87529  23451487.778
  -3510066.488 6  -2735107.70824  25393894.060
 92  5  9  6 56  0.0100000  0  5G28G17G 3G23G21
   -475694.142 4   -370669.63521  26180051.812
  -3792817.856 7  -2955423.59829  23531589.931
    402229.765 7    313441.58825  24380657.916
 -13999355.890 8 -10908570.79929  23452552.346
  -3569151.562 6  -2781147.98623  25382653.049
 92  5  9  6 56 30.0100000  0  5G28G17G 3G23G21
   -549618.066 4   -428272.68721  26165984.982
  -3743542.418 7  -2917027.14729  23540966.840
    497947.045 7    388026.47426  24398871.511
 -13993295.164 8 -10903848.13529  23453704.130
  -3627971.355 6  -2826981.58125  25371460.618
 92  5  9  6 57  0.0100000  0  4G17G 3G23G21
  -3693981.854 7  -2878408.53229  23550403.395
    594125.750 7    462970.89326  24417174.731
 -13986780.530 8 -10898771.76429  23454945.887
  -3686518.266 6  -2872602.49324  25360319.108
 92  5  9  6 57 30.0100000  0  4G17G 3G23G21
  -3644141.081 7  -2839571.56429  23559882.527
    690760.431 7    538270.57425  24435558.011
 -13979826.452 8 -10893353.00129  23456270.045
  -3744788.186 6  -2918007.58923  25349224.399
 92  5  9  6 58  0.0100000  0  4G17G 3G23G21
  -3594028.267 7  -2800522.59329  23569422.212
    787849.625 7    613924.45826  24454032.731
 -13972421.850 8 -10887583.17129  23457678.173
  -3802771.775 6  -2963189.57425  25338193.837
 92  5  9  6 58 30.0100000  0  4G17G 3G23G21
  -3543645.135 7  -2761263.01627  23579005.383
    885397.849 7    689936.06026  24472593.481
 -13964566.618 8 -10881462.20829  23459170.864
  -3860468.822 6  -3008148.27526  25327213.323
 92  5  9  6 59  0.0100000  0  4G17G 3G23G21
  -3493000.258 7  -2721799.45027  23588647.920
    983407.975 7    766307.52825  24491249.544
 -13956289.438 8 -10875012.43629  23460746.863
  -3917881.261 6  -3052885.18325  25316290.394
 92  5  9  6 59 30.0100000  0  4G17G 3G23G21
  -3442099.542 7  -2682136.55526  23598329.999
   1081879.538 7    843038.58025  24509988.076
 -13947601.117 8 -10868242.31029  23462399.329
  -3975006.932 5  -3097398.63925  25305410.323
 92  5  9  7  0  0.0100000  0  4G17G 3G23G21
  -3390932.801 7  -2642266.35626  23608065.161
   1180812.114 7    920128.85725  24528814.139
 -13938502.949 8 -10861152.82029  23464131.228
  -4031853.345 6  -3141694.53625  25294602.216
 92  5  9  7  0 30.0100000  0  4G17G 3G23G21
  -3339483.688 7  -2602176.14425  23617855.187
   1280214.338 7    997585.10425  24547732.269
 -13928996.499 8 -10853745.18529  23465940.153
  -4088423.593 6  -3185775.21225  25283841.470
 92  5  9  7  1  0.0100000  0  4G17G 3G23G21
  -3287776.186 7  -2561884.56026  23627695.888
   1380076.669 7   1075399.82025  24566730.391
 -13919065.778 8 -10846006.93529  23467827.673
  -4144716.549 6  -3229639.82726  25273124.488
 92  5  9  7  1 30.0100000  0  4G17G 3G23G21
  -3235811.584 7  -2521392.67526  23637589.952
   1480390.761 6   1153566.62425  24585823.581
 -13908684.708 8 -10837917.78029  23469803.910
  -4200740.959 6  -3273295.17025  25262470.747
 92  5  9  7  2  0.0100000  0  5G28G17G 3G23G21
    -11885.95714     -9260.16722  26014021.052
  -3183580.741 7  -2480693.28527  23647525.653
   1581155.703 7   1232084.72025  24604996.520
 -13897850.013 8 -10829475.15829  23471870.365
  -4256507.104 6  -3316749.25926  25251850.893
 92  5  9  7  2 30.0100000  0  5G28G17G 3G23G21
    -83060.128 5    -64720.77423  26000479.159
  -3131098.064 6  -2439797.70426  23657513.250
   1682369.248 6   1310952.37125  24624250.985
 -13886551.336 8 -10820670.98729  23474018.975
  -4312002.727 6  -3359992.57525  25241287.718
 92  5  9  7  3  0.0100000  0  5G28G17G 3G23G21
   -154019.652 5   -120013.81221  25986970.806
  -3078369.987 6  -2398710.90128  23667543.705
   1784022.863 6   1390162.93926  24643601.078
 -13874798.058 8 -10811512.55329  23476252.743
  -4367231.119 7  -3403027.64926  25230781.779
 92  5  9  7  3 30.0100000  0  5G28G17G 3G23G21
   -224747.090 6   -175126.07122  25973510.720
  -3025357.983 5  -2357402.88727  23677631.711
   1886126.930 6   1469724.49025  24663031.232
 -13862602.154 7 -10802009.25729  23478575.506
  -4422194.664 6  -3445856.36726  25220322.642
 92  5  9  7  4  0.0100000  0  5G28G17G 3G23G21
   -295233.441 5   -230050.45722  25960098.902
  -2972060.636 5  -2315872.49629  23687776.395
   1988679.470 6   1549635.53025  24682547.137
 -13849972.862 8 -10792168.24229  23480983.148
  -4476885.335 6  -3488472.44825  25209913.238
 92  5  9  7  4 30.0100000  0  5G28G17G 3G23G21
   -365470.142 5   -284780.25222  25946731.442
  -2918491.522 5  -2274130.32628  23697965.437
   2091672.063 6   1629889.46324  24702147.570
 -13836919.620 8 -10781996.86729  23483463.033
  -4531297.186 6  -3530871.23426  25199554.196
 92  5  9  7  5  0.0100000  0  5G28G17G 3G23G21
   -435429.283 4   -339293.83823  25933416.786
  -2864631.493 5  -2232161.50429  23708219.534
   2195107.420 6   1710488.40025  24721831.346
 -13823461.419 8 -10771509.93929  23486022.980
  -4585424.674 6  -3573048.49226  25189261.743
 92  5  9  7  5 30.0100000  0  5G28G17G 3G23G21
   -505090.774 4   -393575.46122  25920146.140
  -2810474.410 6  -2189961.17128  23718524.621
   2298985.160 6   1791432.06424  24741594.555
 -13809592.341 7 -10760702.86329  23488662.954
  -4639247.391 6  -3614988.22724  25179015.743
 92  5  9  7  6  0.0100000  0  5G28G17G 3G23G21
   -574447.332 5   -447619.48522  25906967.282
  -2756043.095 7  -2147547.12428  23728885.722
   2403306.982 6   1872721.76624  24761452.205
 -13795310.146 8 -10749573.87229  23491377.859
  -4692748.682 6  -3656677.49925  25168842.860
 92  5  9  7  6 30.0100000  0  5G28G17G 3G23G21
   -643501.969 4   -501428.21822  25893827.686
  -2701336.331 7  -2104918.49328  23739293.940
   2508077.100 6   1954360.77824  24781378.225
 -13780617.488 8 -10738125.01629  23494175.827
  -4745928.277 6  -3698116.12526  25158718.278
 92  5  9  7  7  0.0100000  0  5G28G17G 3G23G21
   -712272.344 4   -555015.54625  25880733.636
  -2646363.817 7  -2062082.76926  23749751.890
   2613285.242 6   2036341.11125  24801405.247
 -13765510.901 8 -10726353.66529  23497050.541
  -4798802.433 6  -3739316.71825  25148653.342
 92  5  9  7  7 30.0100000  0  5G28G17G 3G23G21
   -780786.177 5   -608402.92924  25867710.364
  -2591152.560 7  -2019061.01726  23760262.296
   2718924.579 6   2118657.43425  24821508.142
 -13749977.263 8 -10714249.48729  23500006.189
  -4851386.266 6  -3780291.10625  25138645.083
 92  5  9  7  8  0.0100000  0  5G28G17G 3G23G21
   -849043.686 4   -661590.59424  25854709.568
  -2535705.273 7  -1975855.33726  23770815.001
   2825002.340 6   2201315.39624  24841687.469
 -13734012.841 8 -10701809.67529  23503048.180
  -4903690.376 6  -3821047.54025  25128694.376
 92  5  9  7  8 30.0100000  0  5G28G17G 3G23G21
   -917051.636 4   -714583.80623  25841771.698
  -2480011.028 7  -1932457.21127  23781411.471
   2931513.694 6   2284311.20826  24861959.736
 -13717608.462 8 -10689027.04429  23506166.918
  -4955724.210 6  -3861593.36526  25118794.937
 92  5  9  7  9  0.0100000  0  5G28G17G 3G23G21
   -984803.574 5   -767377.53925  25828874.940
  -2424062.868 7  -1888861.23827  23792057.709
   3038461.794 6   2367647.37625  24882316.846
 -13700761.800 8 -10675899.73629  23509372.593
  -5007474.007 7  -3901917.84326  25108950.327
 92  5  9  7  9 30.0100000  0  5G28G17G 3G23G21
  -1052285.376 5   -819960.73925  25816036.919
  -2367863.123 7  -1845069.22028  23802752.494
   3145844.050 6   2451321.78124  24902747.072
 -13683494.284 8 -10662444.52629  23512658.609
  -5058941.137 6  -3942022.05425  25099154.333
 92  5  9  7 10  0.0100000  0  5G28G17G 3G23G21
  -1119482.634 5   -872322.22025  25803254.390
  -2311386.183 7  -1801061.21628  23813499.141
   3253661.268 6   2535335.17925  24923272.367
 -13665809.664 8 -10648664.30829  23516024.092
  -5110123.131 6  -3981904.09926  25089409.852
 92  5  9  7 10 30.0100000  0  5G28G17G 3G23G21
  -1186393.722 5   -924460.71624  25790518.000
  -2254624.519 7  -1756831.37628  23824301.873
   3361906.324 6   2619681.94625  24943866.905
 -13647710.678 8 -10634561.15829  23519470.196
  -5161009.409 6  -4021555.72425  25079733.462
 92  5  9  7 11  0.0100000  0  5G28G17G 3G23G21
  -1253001.528 6   -976362.87724  25777837.660
  -2197579.992 7  -1712381.10929  23835157.653
   3470582.054 6   2704364.28025  24964537.909
 -13629209.803 8 -10620144.89329  23522989.172
  -5211592.363 6  -4060970.95925  25070107.713
 92  5  9  7 11 30.0100000  0  5G28G17G 3G23G21
  -1319312.000 5  -1028033.36223  25765222.409
  -2140264.613 7  -1667719.79329  23846062.329
   3579681.492 6   2789376.79325  24985307.542
 -13610307.164 8 -10605415.56229  23526582.800
  -5261896.126 6  -4100168.70426  25060534.140
 92  5  9  7 12  0.0100000  0  5G28G17G 3G23G21
  -1385339.654 4  -1079483.41422  25752659.299
  -2082680.809 7  -1622849.29329  23857022.427
   3689200.330 6   2874716.11725  25006139.193
 -13590996.224 8 -10590368.05829  23530261.551
  -5311918.233 6  -4139146.90626  25051007.961
 92  5  9  7 12 30.0100000  0  5G28G17G 3G23G21
  -1451076.770 5  -1130707.05822  25740148.051
  -2024853.225 7  -1577788.82929  23868023.009
   3799138.163 6   2960381.93225  25027064.133
 -13571282.268 8 -10575006.50029  23534010.451
  -5361654.719 6  -4177902.60326  25041551.304
 92  5  9  7 13  0.0100000  0  5G28G17G 3G23G21
  -1516526.262 5  -1181706.73022  25727700.078
  -1966794.048 6  -1532547.88929  23879068.578
   3909491.717 6   3046371.66325  25048068.786
 -13551162.058 8 -10559328.42429  23537839.098
  -5411117.919 6  -4216445.31826  25032134.818
 92  5  9  7 13 30.0100000  0  5G28G17G 3G23G21
  -1581681.951 4  -1232477.35822  25715292.868
  -1908501.446 7  -1487125.08629  23890169.290
   4020264.041 6   3132687.76825  25069144.182
 -13530619.405 8 -10543321.16229  23541750.774
  -5460303.058 6  -4254771.38126  25022776.475
 92  5  9  7 14  0.0100000  0  5G28G17G 3G23G21
  -1646528.366 5  -1283007.01822  25702958.217
  -1849969.166 7  -1441515.55829  23901302.389
   4131454.136 6   3219329.34924  25090304.141
 -13509659.514 8 -10526988.75329  23545737.730
  -5509186.308 6  -4292862.21126  25013478.720
 92  5  9  7 14 30.0100000  0  5G28G17G 3G23G21
  -1711040.646 5  -1333276.36022  25690678.708
  -1791189.311 7  -1395713.08429  23912490.631
   4243064.539 6   3306298.51525  25111542.941
 -13488278.151 7 -10510327.95129  23549807.121
  -5557756.258 6  -4330708.87126  25004231.047
 92  5  9  7 15  0.0100000  0  5G28G17G 3G23G21
  -1775214.403 5  -1383281.77621  25678466.662
  -1732147.615 7  -1349706.57829  23923725.047
   4355092.282 6   3393592.78725  25132861.767
 -13466475.948 8 -10493339.20929  23553956.538
  -5606018.040 6  -4368315.42826  24995050.487
 92  5  9  7 15 30.0100000  0  5G28G17G 3G23G21
  -1839051.008 5  -1433024.47822  25666313.667
  -1672851.374 7  -1303501.72929  23935005.635
   4467523.908 6   3481201.84225  25154252.558
 -13444280.470 8 -10476044.01929  23558179.107
  -5653981.035 6  -4405689.16226  24985923.605
 92  5  9  7 16  0.0100000  0  5G28G17G 3G23G21
  -1902536.145 5  -1482493.38822  25654237.139
  -1613283.054 7  -1257084.86329  23946343.495
   4580368.379 6   3569132.57025  25175732.694
 -13421683.552 7 -10458436.01129  23562476.642
  -5701627.559 6  -4442816.30526  24976857.274
 92  5  9  7 16 30.0100000  0  5G28G17G 3G23G21
  -1965667.660 5  -1531686.75322  25642225.072
  -1553438.556 7  -1210452.78529  23957729.623
   4693633.106 7   3657390.77624  25197285.668
 -13398669.151 7 -10440502.70729  23566858.706
  -5748958.095 6  -4479697.24326  24967852.124
 92  5  9  7 17  0.0100000  0  5G28G17G 3G23G21
  -2028467.460 5  -1580621.66421  25630269.928
  -1493327.438 8  -1163612.95729  23969169.078
   4807308.913 6   3745969.28525  25218915.108
 -13375251.658 7 -10422255.29429  23571314.514
  -5795988.658 6  -4516344.39726  24958893.113
 92  5  9  7 17 30.0100000  0  5G28G17G 3G23G21
  -2090951.581 5  -1629310.67521  25618387.970
  -1432957.325 8  -1116571.33829  23980659.837
   4921393.370 6   3834866.25024  25240628.169
 -13351440.980 8 -10403701.51429  23575847.383
  -5842705.858 6  -4552747.37826  24950002.785
 92  5  9  7 18  0.0100000  0  5G28G17G 3G23G21
  -2153143.439 6  -1677771.90223  25606548.870
  -1372340.607 8  -1069337.51229  23992192.546
   5035880.299 6   3924076.81725  25262409.008
 -13327231.701 8 -10384837.12329  23580450.994
  -5889118.400 6  -4588912.98127  24941174.476
 92  5  9  7 18 30.0100000  0  5G28G17G 3G23G21
  -2215047.126 6  -1726008.60222  25594772.102
  -1311481.885 8  -1021915.14129  24003774.116
   5150771.474 6   4013602.35624  25284271.373
 -13302626.441 8 -10365664.22029  23585135.261
  -5935235.831 6  -4624848.62327  24932402.251
 92  5  9  7 19  0.0100000  0  5G28G17G 3G23G21
  -2276655.945 6  -1774015.45422  25583039.413
  -1250373.745 8   -974298.40529  24015407.269
   5266067.842 6   4103443.66025  25306212.858
 -13277637.281 7 -10346192.13129  23589890.550
  -5981054.998 6  -4660551.83827  24923679.201
 92  5  9  7 19 30.0100000  0  5G28G17G 3G23G21
  -2337952.938 5  -1821779.33923  25571381.411
  -1189012.975 8   -926484.83829  24027078.498
   5381772.216 6   4193602.88724  25328228.123
 -13252242.146 8 -10326403.71029  23594722.620
  -6026567.738 6  -4696016.26927  24915021.799
 92  5  9  7 20  0.0100000  0  5G28G17G 3G23G21
  -2398903.031 6  -1869272.88023  25559779.425
  -1127377.252 8   -878457.01729  24038809.093
   5497894.901 6   4284088.06223  25350329.731
 -13226410.593 8 -10306275.22229  23599638.905
  -6071775.371 6  -4731242.97027  24906414.165
 92  5  9  7 20 30.0100000  0  5G28G17G 3G23G21
  -2459477.168 6  -1916473.47723  25548258.093
  -1065468.190 8   -830216.22129  24050587.641
   5614423.502 6   4374889.54824  25372502.082
 -13200163.146 7 -10285822.65229  23604630.749
  -6116687.046 6  -4766239.04228  24897867.677
 92  5  9  7 21  0.0100000  0  5G28G17G 3G23G21
  -2519663.977 6  -1963372.27424  25536802.444
  -1003266.574 8   -781747.42929  24062429.114
   5731361.013 6   4466009.64024  25394757.183
 -13173491.861 7 -10265039.83029  23609711.624
  -6161290.433 7  -4800994.91728  24889382.055
 92  5  9  7 21 30.0100000  0  5G28G17G 3G23G21
  -2579441.711 6  -2009952.34526  25525427.415
   -940755.241 8   -733037.30729  24074322.206
   5848719.276 6   4557457.62624  25417094.718
 -13146384.233 7 -10243916.99629  23614866.558
  -6205570.873 7  -4835499.12527  24880956.357
 92  5  9  7 22  0.0100000  0  5G28G17G 3G23G21
  -2638807.025 6  -2056211.03825  25514126.723
   -877933.833 8   -684085.54829  24086277.001
   5966494.862 6   4649230.77025  25439502.403
 -13118870.298 8 -10222477.56429  23620103.648
  -6249525.450 7  -4869749.43228  24872590.373
 92  5  9  7 22 30.0100000  0  5G28G17G 3G23G21
  -2697783.902 6  -2102167.04325  25502910.596
   -814809.387 8   -634897.65729  24098291.790
   6084680.123 6   4741323.14225  25461983.518
 -13090960.918 7 -10200729.99629  23625414.761
  -6293142.565 7  -4903736.76328  24864294.819
 92  5  9  7 23  0.0100000  0  5G28G17G 3G23G21
  -2756421.504 6  -2147858.67524  25491749.018
   -751408.302 8   -585494.22129  24110354.253
   6203258.193 6   4833721.58924  25484553.421
 -13062663.084 8 -10178679.73429  23630795.431
  -6336428.744 6  -4937466.22427  24856050.499
 92  5  9  7 23 30.0100000  0  5G28G17G 3G23G21
  -2814708.165 6  -2193276.86225  25480657.904
   -687741.877 8   -535883.99229  24122466.170
   6322237.725 5   4926432.90624  25507191.030
 -13033963.335 8 -10156316.28729  23636259.443
  -6379377.763 7  -4970932.97127  24847885.961
 92  5  9  7 24  0.0100000  0  5G28G17G 3G23G21
  -2872665.280 6  -2238438.25725  25469625.248
   -623835.572 7   -486086.88729  24134628.134
   6441601.738 6   5019443.76824  25529911.108
 -13004864.859 8 -10133642.15229  23641798.107
  -6422009.657 7  -5004152.59727  24839767.282
 92  5  9  7 24 30.0100000  0  5G28G17G 3G23G21
  -2930302.427 7  -2283350.32226  25458660.927
   -559694.796 7   -436107.03629  24146836.306
   6561344.625 6   5112749.91124  25552695.648
 -12975357.588 8 -10110649.46129  23647414.739
  -6464335.285 7  -5037133.58726  24831716.345
 92  5  9  7 25  0.0100000  0  5G28G17G 3G23G21
  -2987599.532 7  -2327997.40825  25447758.973
   -495328.387 7   -385951.39129  24159082.206
   6681463.191 6   5206348.76124  25575557.807
 -12945451.282 8 -10087345.82529  23653101.800
  -6506365.525 7  -5069884.39227  24823717.584
 92  5  9  7 25 30.0100000  0  5G28G17G 3G23G21
  -3044530.953 6  -2372359.55626  25436921.795
   -430720.741 8   -335607.77228  24171382.097
   6801956.607 6   5300239.71825  25598484.147
 -12915150.785 8 -10063735.04029  23658870.388
  -6548096.853 7  -5102402.27926  24815777.002
 92  5  9  7 26  0.0110000  0  5G28G17G 3G23G21
  -3101093.017 6  -2416433.84225  25426163.128
   -365854.806 7   -285062.91329  24183721.271
   6922824.521 6   5394422.49724  25621478.215
 -12884460.537 8 -10039820.57129  23664708.554
  -6589520.249 7  -5134680.24527  24807892.770
 92  5  9  7 26 30.0110000  0  5G28G17G 3G23G21
  -3157290.029 6  -2460223.69325  25415466.843
   -300746.936 7   -234329.51529  24196113.194
   7044043.730 6   5488878.97224  25644547.263
 -12853399.741 8 -10015617.33929  23670619.257
  -6630641.888 7  -5166723.05327  24800070.256
 92  5  9  7 27  0.0110000  0  5G28G17G 3G23G21
  -3213107.265 7  -2503717.61426  25404843.080
   -235391.088 7   -183402.84829  24208549.476
   7165624.147 6   5583616.96022  25667689.114
 -12821962.368 8  -9991120.67729  23676601.645
  -6671452.121 7  -5198523.20027  24792303.234
 92  5  9  7 27 30.0110000  0  5G28G17G 3G23G21
  -3268539.402 7  -2546911.48325  25394300.287
   -169776.142 7   -132274.32829  24221033.710
   7287568.419 6   5678638.40823  25690890.051
 -12790150.683 8  -9966332.35129  23682657.429
  -6711950.891 7  -5230080.65326  24784597.985
 92  5  9  7 28  0.0110000  0  5G28G17G 3G23G21
  -3323594.823 6  -2589811.81525  25383812.636
   -103917.776 7    -80956.11829  24233567.748
   7409869.477 6   5773937.90922  25714162.952
 -12757982.367 7  -9941266.12729  23688776.487
  -6752153.127 7  -5261407.03627  24776943.377
 92  5  9  7 28 30.0110000  0  5G28G17G 3G23G21
  -3378260.301 7  -2632408.30123  25373417.053
    -37804.133 7    -29439.01128  24246147.052
   7532541.214 6   5869526.22522  25737507.191
 -12725448.012 8  -9915914.67129  23694969.605
  -6792049.643 7  -5292495.20226  24769348.449
 92  5  9  7 29  0.0110000  0  5G28G17G 3G23G21
  -3432520.304 7  -2674688.82024  25363088.897
     28565.054 7     22277.21928  24258781.498
   7655582.864 6   5965402.83323  25760925.767
 -12692558.987 8  -9890286.84629  23701227.776
  -6831631.687 7  -5323338.33326  24761822.450
 92  5  9  7 29 30.0110000  0  5G28G17G 3G23G21
  -3486377.224 7  -2716655.25724  25352844.991
     95191.309 7     74193.76827  24271457.022
   7778991.984 6   6061565.75724  25784402.243
 -12659313.406 7  -9864381.21029  23707551.316
  -6870896.542 7  -5353934.28426  24754346.532
 92  5  9  7 30  0.0110000  0  5G28G17G 3G23G21
  -3539830.125 7  -2758306.88125  25342670.642
    162077.594 7    126312.97529  24284181.128
   7902774.779 6   6158019.83225  25807965.027
 -12625684.197 7  -9838176.61429  23713953.068
  -6909825.666 7  -5384268.65625  24746939.543
 92  5  9  7 30 30.0110000  0  5G28G17G 3G23G21
  -3592888.586 7  -2799651.14625  25332574.539
    229217.647 7    178629.86729  24296960.376
   8026924.350 6   6254759.70723  25831594.646
 -12591670.292 7  -9811672.29029  23720424.098
  -6948427.542 7  -5414347.99526  24739593.141
 92  5  9  7 31  0.0110000  0  5G28G17G 3G23G21
  -3645557.574 7  -2840691.89127  25322552.774
    296610.163 7    231143.49229  24309782.482
   8151432.080 5   6351778.69924  25855275.569
 -12557283.920 7  -9784877.69029  23726969.744
  -6986718.263 7  -5444184.91626  24732309.071
 92  5  9  7 31 30.0110000  0  5G28G17G 3G23G21
  -3697863.236 6  -2881449.52426  25312593.063
    364255.086 7    283853.82727  24322657.392
   8276289.675 6   6449070.29924  25879041.300
 -12522529.687 8  -9757796.47029  23733582.295
  -7024719.589 7  -5473796.30626  24725078.399
 92  5  9  7 32  0.0110000  0  5G28G17G 3G23G21
  -3749802.900 7  -2921921.96826  25302716.693
    432150.336 7    336759.14827  24335579.034
   8401491.942 6   6546630.45024  25902862.208
 -12487420.868 7  -9730438.93129  23740265.554
  -7062442.688 6  -5503190.91328  24717897.739
 92  5  9  7 32 30.0110000  0  5G28G17G 3G23G21
  -3801347.760 7  -2962086.80326  25292902.097
    500318.983 7    389877.56827  24348546.535
   8527053.799 6   6644470.82923  25926762.864
 -12451951.669 8  -9702800.59629  23747013.588
  -7099866.214 6  -5532352.08926  24710773.478
 92  5  9  7 33  0.0110000  0  5G28G17G 3G23G21
  -3852491.850 7  -3001939.34527  25283172.624
    568752.551 7    443202.43029  24361569.528
   8652969.658 6   6742587.05123  25950719.291
 -12416115.645 7  -9674876.42429  23753830.550
  -7136977.484 7  -5561269.93327  24703713.958
 92  5  9  7 33 30.0110000  0  5G28G17G 3G23G21
  -3903221.339 7  -3041468.79228  25273523.212
    637431.797 7    496718.70029  24374641.695
   8779234.831 5   6840975.44422  25974746.147
 -12379900.792 7  -9646657.04229  23760722.793
  -7173766.593 7  -5589936.75427  24696713.209
 92  5  9  7 34  0.0110000  0  5G28G17G 3G23G21
  -3953519.396 7  -3080662.10026  25263945.729
    706350.170 7    550421.33529  24387760.315
   8905842.373 5   6939630.60823  25998842.559
 -12343302.212 8  -9618138.67329  23767688.187
  -7210222.131 6  -5618343.64927  24689777.516
 92  5  9  7 34 30.0110000  0  5G28G17G 3G23G21
  -4003387.644 7  -3119520.45827  25254461.501
    775502.279 7    604306.07428  24400910.695
   9032787.408 5   7038548.79823  26023001.967
 -12306322.349 8  -9589323.18629  23774725.790
  -7246337.758 7  -5646485.66527  24682907.470
 92  5  9  7 35  0.0110000  0  5G28G17G 3G23G21
  -4052826.461 6  -3158044.19926  25245049.831
    844888.247 7    658373.07328  24414119.567
   9160066.932 5   7137727.58423  26047222.485
 -12268961.429 8  -9560210.77029  23781836.893
  -7282130.464 6  -5674376.06327  24676094.381
 92  5  9  7 35 30.0110000  0  5G28G17G 3G23G21
  -4101824.580 7  -3196224.54427  25235729.565
    914523.716 7    712634.48629  24427370.983
   9287682.916 5   7237168.59023  26071494.865
 -12231216.125 8  -9530798.85629  23789016.297
  -7317601.686 7  -5702015.95927  24669347.883
 92  5  9  7 36  0.0110000  0  5G28G17G 3G23G21
  -4150395.498 7  -3234071.99927  25226482.764
    984416.128 7    767096.10829  24440670.387
   9415627.416 5   7336865.57223  26095844.620
 -12193102.809 8  -9501100.15129  23796268.572
  -7352764.368 7  -5729415.43328  24662653.805
 92  5  9  7 36 30.0110000  0  5G28G17G 3G23G21
  -4198541.134 7  -3271588.08125  25217323.494
   1054571.855 7    821762.89929  24454017.152
   9543903.900 5   7436821.20123  26120255.241
 -12154620.669 8  -9471114.06529  23803596.128
  -7387629.590 7  -5756583.11728  24656015.183
 92  5  9  7 37  0.0110000  0  5G28G17G 3G23G21
  -4246262.035 7  -3308773.21926  25208241.284
   1124979.510 7    876625.96829  24467423.561
   9672508.641 5   7537032.65923  26144735.663
 -12115765.060 8  -9440836.95929  23810988.389
  -7422202.285 7  -5783522.85828  24649437.743
 92  5  9  7 37 30.0110000  0  5G28G17G 3G23G21
  -4293561.143 7  -3345629.64627  25199238.542
   1195626.800 7    931675.78929  24480863.544
   9801436.852 5   7637496.18223  26169273.984
 -12076547.543 8  -9410277.84629  23818449.335
  -7456476.260 7  -5810229.83127  24642917.573
 92  5  9  7 38  0.0110000  0  5G28G17G 3G23G21
  -4340452.878 7  -3382168.61327  25190315.513
   1266508.162 6    986908.01629  24494348.514
   9930685.947 5   7738209.72724  26193864.482
 -12036993.122 8  -9379456.20729  23825978.615
  -7490448.084 7  -5836701.35927  24636450.139
 92  5  9  7 38 30.0110000  0  5G28G17G 3G23G21
  -4386941.779 7  -3418393.71925  25181473.732
   1337615.064 6   1042315.98229  24507877.249
  10060252.112 5   7839170.33223  26218520.593
 -11997113.878 8  -9348381.46229  23833566.354
  -7524100.246 7  -5862923.81228  24630044.792
 92  5  9  7 39  0.0110000  0  5G28G17G 3G23G21
  -4433018.112 7  -3454297.37525  25172699.413
   1408941.068 7   1097894.69929  24521456.659
  10190127.834 5   7940372.15022  26243228.601
 -11956935.462 8  -9317073.60929  23841211.957
  -7557409.141 7  -5888878.77027  24623708.967
 92  5  9  7 39 30.0110000  0  5G28G17G 3G23G21
  -4478680.021 7  -3489878.10626  25164010.531
   1480499.915 7   1153654.84529  24535070.516
  10320303.863 5   8041807.97923  26267998.033
 -11916483.453 8  -9285552.56029  23848910.051
  -7590382.758 7  -5914572.48927  24617433.415
 92  5  9  7 40  0.0110000  0  5G28G17G 3G23G21
  -4523912.698 7  -3525124.36327  25155406.178
   1552316.544 7   1209615.85628  24548740.773
  10450788.910 6   8143484.59824  26292834.335
 -11875745.335 8  -9253808.55929  23856662.659
  -7623007.574 7  -5939994.40628  24611229.200
 92  5  9  7 40 30.0110000  0  5G28G17G 3G23G21
  -4568700.180 7  -3560023.70027  25146880.979
   1624387.936 7   1265775.37928  24562454.166
  10581580.642 6   8245400.21823  26317731.502
 -11834704.509 8  -9221828.68929  23864471.666
  -7655299.896 7  -5965157.23328  24605081.662
 92  5  9  7 41  0.0110000  0  5G28G17G 3G23G21
  -4613039.585 7  -3594573.85227  25138448.126
   1696711.324 6   1322131.26228  24576214.954
  10712669.953 5   8347547.62622  26342667.933
 -11793353.186 8  -9189606.88329  23872339.132
  -7687294.903 7  -5990088.37428  24598991.083
 92  5  9  7 41 30.0110000  0  5G28G17G 3G23G21
  -4656941.911 7  -3628783.46027  25130092.892
   1769279.641 7   1378677.97229  24590027.883
  10844054.084 6   8449924.87123  26367670.326
 -11751665.820 8  -9157123.23629  23880271.024
  -7719022.807 7  -6014811.39828  24592955.960
 92  5  9  7 42  0.0110000  0  5G28G17G 3G23G21
  -4700409.287 7  -3662654.12227  25121820.721
   1842085.780 7   1435410.03329  24603876.795
  10975735.674 6   8552533.83023  26392727.582
 -11709616.047 8  -9124357.16929  23888276.974
  -7750475.418 8  -6039319.93228  24586971.477
 92  5  9  7 42 30.0110000  0  5G28G17G 3G23G21
  -4743441.136 7  -3696185.45427  25113627.390
   1915109.650 7   1492311.74728  24617769.785
  11107706.556 6   8655368.27922  26417843.890
 -11667202.132 8  -9091307.34329  23896347.107
  -7781654.671 7  -6063615.42927  24581036.798
 92  5  9  7 43  0.0110000  0  5G28G17G 3G23G21
  -4786036.753 7  -3729376.83928  25105523.125
   1988350.965 7   1549382.89927  24631712.824
  11239966.368 6   8758427.79623  26443004.591
 -11624425.291 8  -9057974.74329  23904487.354
  -7812542.726 7  -6087684.02228  24575157.261
 92  5  9  7 43 30.0110000  0  5G28G17G 3G23G21
  -4828202.657 6  -3762233.38326  25097499.759
   2061813.752 7   1606626.61327  24645695.753
  11372516.399 5   8861713.49022  26468229.125
 -11581287.812 7  -9024361.12729  23912694.471
  -7843111.265 8  -6111503.65828  24569343.686
 92  5  9  7 44  0.0110000  0  5G28G17G 3G23G21
  -4869930.792 7  -3794748.81527  25089557.048
   2135493.532 7   1664039.41629  24659710.127
  11505354.684 5   8965223.75022  26493519.028
 -11537802.243 8  -8990476.26929  23920970.865
  -7873339.469 7  -6135058.07927  24563589.477
 92  5  9  7 44 30.0110000  0  5G28G17G 3G23G21
  -4911221.988 7  -3826923.77827  25081703.089
   2209378.338 7   1721612.00928  24673777.900
  11638473.101 5   9068952.31823  26518840.690
 -11493990.154 8  -8956336.97429  23929304.495
  -7903234.614 8  -6158352.97429  24557900.915
 92  5  9  7 45  0.0110000  0  5G28G17G 3G23G21
  -4952076.376 7  -3858758.38127  25073930.064
   2283478.014 7   1779351.98327  24687873.837
  11771873.223 5   9172900.43823  26544240.599
 -11449853.992 7  -8921945.15529  23937707.962
  -7932801.319 7  -6181391.95228  24552272.313
 92  5  9  7 45 30.0110000  0  5G28G17G 3G23G21
  -4992484.469 7  -3890245.22028  25066241.289
   2357793.877 7   1837260.41826  24702018.634
  11905551.106 6   9277064.93123  26569670.801
 -11405397.613 8  -8887303.81329  23946166.012
  -7962048.368 7  -6204181.85028  24546711.766
 92  5  9  7 46  0.0110000  0  5G28G17G 3G23G21
  -5032425.768 7  -3921368.30628  25058634.355
   2432338.613 7   1895347.18926  24716199.414
  12039508.544 5   9381447.28522  26595162.149
 -11360625.047 8  -8852416.10029  23954687.024
  -7990988.846 7  -6226732.83529  24541203.395
 92  5  9  7 46 30.0110000  0  5G28G17G 3G23G21
  -5071904.035 7  -3952130.59528  25051124.863
   2507129.688 7   1953625.94427  24730431.462
  12173738.235 4   9486041.79822  26620697.576
 -11315548.391 8  -8817291.41029  23963265.865
  -8019645.442 7  -6249062.66128  24535748.946
 92  5  9  7 47  0.0110000  0  5G28G17G 3G23G21
  -5110923.163 7  -3982535.12928  25043703.216
   2582178.595 7   2012105.61127  24744717.188
  12308232.075 4   9590842.08122  26646291.461
 -11270185.385 8  -8781943.61929  23971894.509
  -8048037.770 7  -6271186.52227  24530348.208
 92  5  9  7 47 30.0110000  0  5G28G17G 3G23G21
  -5149468.972 7  -4012570.82428  25036367.877
   2657501.732 7   2070798.96827  24759048.773
  12442994.924 4   9695852.06223  26671934.487
 -11224530.905 7  -8746368.71729  23980583.391
  -8076158.072 7  -6293098.43728  24524996.889
 92  5  9  7 48  0.0110000  0  5G28G17G 3G23G21
  -5187549.882 7  -4042244.26028  25029119.790
   2733101.641 7   2129707.98226  24773437.001
  12578031.552 4   9801075.30222  26697638.099
 -11178582.568 8  -8710564.83229  23989324.449
  -8104001.935 7  -6314794.93528  24519695.967
 92  5  9  7 48 30.0110000  0  5G28G17G 3G23G21
  -5225170.792 6  -4071559.23627  25021956.266
   2808948.909 6   2188809.73426  24787865.713
  12713333.263 5   9906505.18523  26723394.795
 -11132337.336 7  -8674529.58129  23998127.840
  -8131564.694 7  -6336272.40427  24514449.908
 92  5  9  7 49  0.0110000  0  5G28G17G 3G23G21
  -5262316.523 7  -4100503.97927  25014890.742
   2885023.612 6   2248088.68925  24802345.694
  12848905.491 4  10012145.75822  26749177.247
 -11085775.039 7  -8638247.25929  24006985.815
  -8158817.048 7  -6357507.99227  24509261.679
 92  5  9  7 49 30.0110000  0  5G28G17G 3G23G21
  -5298992.220 7  -4129082.42827  25007914.285
   2961300.128 7   2307524.92826  24816858.936
  12984741.085 4  10117991.62123  26775032.223
 -11038881.113 7  -8601706.53529  24015908.844
  -8185735.442 7  -6378483.32529  24504140.634
 92  5  9  7 50  0.0110000  0  4G28G17G23G21
  -5335204.739 7  -4157300.00127  25001021.763
   3037756.678 7   2367101.46926  24831411.754
 -10991669.007 7  -8564917.86129  24024892.111
  -8212316.971 7  -6399196.22027  24499086.143
 92  5  9  7 50 30.0110000  0  5G28G17G 3G23G21
  -5370935.394 7  -4185142.07128  24994222.146
   3114402.825 7   2426825.73426  24845992.179
     22733.27515     17725.72222  26826872.632
 -10944130.509 8  -8527874.86629  24033941.341
  -8238551.516 7  -6419638.68428  24494093.706
 92  5  9  7 51  0.0110000  0  5G28G17G 3G23G21
  -5406192.308 7  -4212614.98927  24987511.909
   3191258.136 6   2486713.00526  24860616.055
    159328.905 5    124163.78923  26852866.441
 -10896274.044 7  -8490584.12629  24043046.934
  -8264443.778 7  -6439814.45328  24489164.508
 92  5  9  7 51 30.0110000  0  5G28G17G 3G23G21
  -5440966.018 7  -4239711.40127  24980894.577
   3268350.182 6   2546784.71726  24875285.196
    296179.669 5    230800.68522  26878919.616
 -10848105.166 7  -8453049.95329  24052215.488
  -8289999.215 7  -6459727.78028  24484302.458
 92  5  9  7 52  0.0110000  0  5G28G17G 3G23G21
  -5475238.683 7  -4266417.37928  24974375.316
   3345693.040 6   2607051.86426  24890009.202
    433284.562 5    337635.59824  26905002.457
 -10799637.618 7  -8415283.05529  24061437.404
  -8315227.188 7  -6479385.91227  24479500.088
 92  5  9  7 52 30.0110000  0  5G28G17G 3G23G21
  -5508994.504 7  -4292720.62327  24967953.147
   3423305.549 6   2667529.13826  24904776.378
    570648.827 5    444672.61922  26931143.162
 -10750860.252 7  -8377274.72429  24070720.501
  -8340126.888 7  -6498788.27528  24474766.961
 92  5  9  7 53  0.0110000  0  5G28G17G 3G23G21
  -5542249.921 7  -4318633.93328  24961625.139
   3501177.850 7   2728208.84327  24919591.229
    708264.824 5    551905.78722  26957334.822
 -10701795.086 7  -8339042.12529  24080053.611
  -8364713.330 7  -6517946.51428  24470084.230
 92  5  9  7 53 30.0110000  0  5G28G17G 3G23G21
  -5574987.611 7  -4344143.82829  24955390.630
   3579303.945 7   2789086.27626  24934463.038
    846133.345 5    659335.74325  26983564.872
 -10652440.735 7  -8300584.20129  24089449.122
  -8388981.299 7  -6536856.61328  24465466.519
 92  5  9  7 54  0.0110000  0  5G28G17G 3G23G21
  -5607220.147 7  -4369260.08529  24949260.194
   3657667.716 6   2850149.00426  24949379.798
    984243.549 5    766954.02222  27009849.472
 -10602794.777 7  -8261899.02429  24098893.773
  -8412937.990 7  -6555524.15328  24460909.673
 92  5  9  7 54 30.0110000  0  5G28G17G 3G23G21
  -5638961.012 7  -4393993.22828  24943219.976
   3736268.235 6   2911396.16026  24964333.762
   1122594.748 5    874760.10422  27036166.146
 -10552843.007 7  -8222975.55928  24108400.198
  -8436586.594 7  -6573951.61328  24456406.191
 92  5  9  7 55  0.0110000  0  5G28G17G 3G23G21
  -5670211.808 7  -4418344.50328  24937272.069
   3815095.459 6   2972819.95427  24979330.584
   1261183.257 5    982751.04922  27062547.594
 -10502577.854 7  -8183807.89129  24117965.675
  -8459920.458 7  -6592133.82228  24451965.948
 92  5  9  7 55 30.0110000  0  5G28G17G 3G23G21
  -5700963.283 7  -4442306.70127  24931421.639
   3894143.271 6   3034415.64027  24994373.858
   1400000.575 5   1090920.26521  27088958.394
 -10452000.369 7  -8144396.87229  24127592.017
  -8482933.797 7  -6610066.28428  24447587.200
 92  5  9  7 56  0.0110000  0  5G28G17G 3G23G21
  -5731216.532 7  -4465880.66327  24925665.022
   3973414.317 6   3096185.27327  25009461.526
   1539054.877 5   1199274.22721  27115412.401
 -10401106.676 7  -8104739.44228  24137272.002
  -8505628.389 7  -6627750.36128  24443270.191
 92  5  9  7 56 30.0110000  0  5G28G17G 3G23G21
  -5760966.676 7  -4489062.60327  24920004.346
   4052909.631 6   3158129.67627  25024587.235
   1678341.933 5   1307809.53324  27141920.922
 -10349909.369 7  -8064845.42929  24147016.762
  -8528010.874 7  -6645191.24328  24439010.418
 92  5  9  7 57  0.0110000  0  5G28G17G 3G23G21
  -5790192.706 7  -4511836.12429  24914442.298
   4132627.204 6   3220247.25226  25039757.931
   1817856.427 5   1416522.02922  27168471.463
 -10298427.331 7  -8024729.55229  24156812.791
  -8550082.051 7  -6662389.54628  24434810.639
 92  5  9  7 57 30.0110000  0  5G28G17G 3G23G21
  -5818896.593 7  -4534202.80427  24908980.380
   4212569.040 6   3282539.58426  25054968.518
   1957592.508 5   1525407.20322  27195063.954
 -10246685.270 7  -7984411.05029  24166664.276
  -8571862.916 7  -6679361.63528  24430661.815
 92  5  9  7 58  0.0110000  0  5G28G17G 3G23G21
  -5847091.799 7  -4556173.08927  24903616.777
   4292732.754 6   3345004.78925  25070224.929
   2097541.480 5   1634458.28922  27221696.896
 -10194678.504 7  -7943886.32529  24176558.026
  -8593371.240 7  -6696121.35529  24426572.636
 92  5  9  7 58 30.0110000  0  5G28G17G 3G23G21
  -5874757.873 7  -4577731.07627  24898347.334
   4373147.573 6   3407665.67925  25085526.641
   2237706.034 5   1743677.38722  27248381.140
 -10142395.895 7  -7903146.65729  24186506.640
  -8614585.769 7  -6712652.14329  24422535.947
 92  5  9  7 59  0.0120000  0  5G28G17G 3G23G21
  -5901900.612 7  -4598881.27727  24893184.324
   4453810.405 6   3470519.85727  25100874.512
   2378094.210 4   1853070.62822  27275086.346
 -10089826.931 7  -7862183.82829  24196511.010
  -8635496.504 7  -6728946.21029  24418558.574
 92  5  9  7 59 30.0120000  0  5G28G17G 3G23G21
  -5928552.551 7  -4619649.03028  24888113.605
   4534702.864 6   3533552.94426  25116270.072
   2518689.424 4   1962625.28523  27301829.049
 -10036965.038 7  -7820992.73629  24206571.444
  -8656106.032 7  -6745005.54828  24414632.205
 92  5  9  8  0  0.0120000  0  5G28G17G 3G23G21
  -5954717.113 7  -4640036.99528  24883131.079
   4615817.176 6   3596758.89526  25131707.581
   2659490.307 5   2072340.14422  27328644.589
  -9983799.359 8  -7779564.92428  24216687.022
  -8676396.212 7  -6760816.06429  24410774.172
 92  5  9  8  0 30.0120000  0  5G28G17G 3G23G21
  -5980401.938 7  -4660051.15628  24878246.554
   4697139.358 6   3660126.81926  25147176.885
   2800493.563 4   2182212.72423  27355451.404
  -9930344.305 8  -7737911.61829  24226860.498
  -8696363.685 7  -6776375.13329  24406973.409
 92  5  9  8  1  0.0120000  0  5G28G17G 3G23G21
  -6005603.709 7  -4679688.91629  24873446.557
   4778660.361 6   3723649.66224  25162690.233
   2941700.762 4   2292244.25021  27382338.316
  -9876598.621 8  -7696031.84329  24237089.118
  -8716015.747 7  -6791688.38928  24403235.608
 92  5  9  8  1 30.0120000  0  5G28G17G 3G23G21
  -6030308.228 7  -4698939.17728  24868750.320
   4860388.584 5   3787333.96025  25178242.565
   3083105.090 4   2402429.31023  27409245.260
  -9822581.351 8  -7653940.45629  24247366.598
  -8735357.443 7  -6806759.82429  24399551.448
 92  5  9  8  2  0.0120000  0  5G28G17G 3G23G21
  -6054475.602 7  -4717770.90527  24864149.710
   4942340.468 5   3851192.58323  25193836.883
   3224707.557 4   2512768.84323  27436197.820
  -9768305.655 8  -7611647.70629  24257691.159
  -8754385.166 7  -6821586.59929  24395932.343
 92  5  9  8  2 30.0120000  0  5G28G17G 3G23G21
  -6078094.344 8  -4736175.12728  24859659.105
   5024527.112 6   3915234.09624  25209481.526
   3366505.210 4   2623260.41323  27463164.444
  -9713779.521 8  -7569159.82629  24268067.582
  -8773108.195 7  -6836175.94829  24392369.601
 92  5  9  8  3  0.0120000  0  5G28G17G 3G23G21
  -6101144.748 7  -4754136.50328  24855268.945
   5106955.125 6   3979463.68825  25225166.969
   3508493.108 5   2733900.26023  27490197.344
  -9659007.046 8  -7526479.97829  24278491.365
  -8791525.057 7  -6850526.75329  24388859.351
 92  5  9  8  3 30.0120000  0  5G28G17G 3G23G21
  -6123608.297 7  -4771640.55228  24850994.514
   5189626.631 5   4043883.04424  25240891.081
   3650685.235 4   2844699.23222  27517249.404
  -9603973.203 8  -7483596.48229  24288964.009
  -8809611.344 7  -6864619.93728  24385424.031
 92  5  9  8  4  0.0120000  0  5G28G17G 3G23G21
  -6145508.165 7  -4788705.40528  24846826.809
   5272519.610 6   4108475.00525  25256666.776
   3793061.732 4   2955641.87623  27544330.258
  -9548674.308 8  -7440506.42629  24299489.701
  -8827373.899 7  -6878460.85129  24382044.761
 92  5  9  8  4 30.0120000  0  5G28G17G 3G23G21
  -6166864.048 7  -4805346.36829  24842763.421
   5355627.586 6   4173234.41524  25272485.607
   3935626.283 5   3066731.05222  27571476.479
  -9493096.993 8  -7397199.41929  24310067.290
  -8844808.209 7  -6892046.03929  24378727.545
 92  5  9  8  5  0.0120000  0  5G28G17G 3G23G21
  -6187679.698 7  -4821566.34629  24838803.757
   5438944.479 6   4238156.66224  25288340.456
   4078383.613 5   3177970.40222  27598640.954
  -9437232.063 8  -7353668.30629  24320696.427
  -8861921.622 7  -6905381.16429  24375470.008
 92  5  9  8  5 30.0120000  0  5G28G17G 3G23G21
  -6207974.648 7  -4837380.59027  24834936.126
   5522461.339 6   4303234.71824  25304230.939
   4221329.680 4   3289356.91022  27625836.316
  -9381085.280 8  -7309917.56528  24331380.741
  -8878718.579 7  -6918469.66329  24372270.615
 92  5  9  8  6  0.0120000  0  6G28G17G11G 3G23G21
  -6227762.694 7  -4852799.84527  24831174.347
   5606197.384 6   4368483.56922  25320161.906
   -184971.242 5   -144133.52521  27596586.470
   4364456.052 5   3400883.86123  27653087.169
  -9324672.247 8  -7265959.33428  24342113.917
  -8895203.322 7  -6931314.90529  24369134.811
 92  5  9  8  6 30.0120000  0  6G28G17G11G 3G23G21
  -6247040.997 8  -4867821.91827  24827507.568
   5690162.715 6   4433911.08025  25336146.235
   -270224.309 3   -210564.39021  27580350.334
   4507765.650 5   3512553.62023  27680342.804
  -9268008.002 8  -7221805.36028  24352899.233
  -8911387.565 7  -6943926.00829  24366056.244
 92  5  9  8  7  0.0120000  0  5G28G17G 3G23G21
  -6265803.314 7  -4882441.90328  24823936.451
   5774359.825 6   4499519.20725  25352164.453
   4651247.336 5   3624357.44223  27707649.393
  -9211108.077 7  -7177467.76729  24363722.940
  -8927275.036 7  -6956305.82729  24363032.540
 92  5  9  8  7 30.0120000  0  5G28G17G 3G23G21
  -6284038.596 8  -4896651.22328  24820468.464
   5858807.502 6   4565322.57923  25368235.720
   4794895.368 5   3736290.88621  27734989.557
  -9153978.337 7  -7132951.08328  24374597.008
  -8942845.878 7  -6968438.94629  24360069.667
 92  5  9  8  8  0.0120000  0  6G28G17G11G 3G23G21
  -6301723.674 7  -4910431.83127  24817101.480
   5943515.507 6   4631328.79825  25384357.662
    -14166.77914    -11039.36422  27531771.964
   4938709.511 5   3848353.78522  27762360.921
  -9096600.840 7  -7088241.36829  24385517.250
  -8958101.048 7  -6980326.09329  24357167.382
 92  5  9  8  8 30.0120000  0  6G28G17G11G 3G23G21
  -6318828.783 7  -4923760.48628  24813844.222
   6028475.700 6   4697531.53126  25400523.997
    -99113.221 5    -77231.32722  27515605.035
   5082694.622 5   3960549.90722  27789758.950
  -9038955.699 7  -7043323.09729  24396483.665
  -8973036.149 7  -6991963.82629  24354322.647
 92  5  9  8  9  0.0120000  0  6G28G17G11G 3G23G21
  -6335326.469 7  -4936615.83429  24810701.822
   6113684.327 6   4763927.86825  25416741.567
   -183963.597 5   -143348.48122  27499466.027
   5226854.612 5   4072882.27123  27817180.362
  -8981028.626 7  -6998185.10228  24407507.630
  -8987628.783 7  -7003334.69229  24351547.784
 92  5  9  8  9 30.0120000  0  6G28G17G11G 3G23G21
  -6351220.532 7  -4949000.82029  24807682.306
   6199122.198 6   4830502.81725  25432998.085
   -268717.090 5   -209390.16622  27483332.673
   5371185.324 5   4185347.64322  27844652.763
  -8922812.470 7  -6952821.85327  24418586.180
  -9001887.108 7  -7014445.06429  24348833.751
 92  5  9  8 10  0.0120000  0  6G28G17G11G 3G23G21
  -6366524.542 7  -4960926.02528  24804768.922
   6284758.131 6   4897232.11925  25449293.936
   -353372.585 5   -275355.41023  27467220.049
   5515682.351 5   4297942.65222  27872147.605
  -8864312.122 7  -6907237.17127  24429718.966
  -9015824.344 7  -7025305.24229  24346181.493
 92  5  9  8 10 30.0120000  0  6G28G17G11G 3G23G21
  -6381255.526 7  -4972404.71829  24801965.265
   6370582.758 7   4964108.42425  25465626.327
   -437930.475 3   -341244.60422  27451128.086
   5660339.617 5   4410662.50321  27899668.553
  -8805558.275 6  -6861454.95727  24440896.109
  -9029442.955 7  -7035917.12929  24343584.377
 92  5  9  8 11  0.0120000  0  6G28G17G11G 3G23G21
  -6395452.475 7  -4983467.28829  24799264.739
   6456576.318 6   5031116.38526  25481990.479
   -522405.530 4   -407069.32922  27435058.320
   5805137.478 5   4523491.91623  27927237.489
  -8746578.908 6  -6815497.04026  24452117.367
  -9042769.216 7  -7046301.21229  24341054.130
 92  5  9  8 11 30.0120000  0  6G28G17G11G 3G23G21
  -6409115.086 7  -4994113.47828  24796665.809
   6542772.400 6   5098282.12625  25498390.647
   -606775.465 4   -472812.12521  27418990.334
   5950092.566 4   4636443.80421  27954801.294
  -8687363.374 6  -6769355.03025  24463388.951
  -9055802.200 7  -7056456.78229  24338572.744
 92  5  9  8 12  0.0120000  0  6G28G17G11G 3G23G21
  -6422236.999 7  -5004338.34329  24794165.542
   6629189.192 7   5165619.85624  25514834.860
   -691035.990 5   -538469.63722  27402967.614
   6095203.522 4   4749517.23821  27982431.062
  -8627929.300 6  -6723042.80526  24474699.519
  -9068533.470 7  -7066377.24829  24336150.724
 92  5  9  8 12 30.0120000  0  6G28G17G11G 3G23G21
  -6434816.498 7  -5014140.55529  24791770.499
   6715843.177 6   5233142.44624  25531324.931
   -775187.079 5   -604041.97921  27386953.898
   6240465.269 3   4862708.12421  28010066.832
  -8568266.242 7  -6676552.12026  24486058.355
  -9080957.768 7  -7076058.49929  24333789.884
 92  5  9  8 13  0.0120000  0  6G28G17G11G 3G23G21
  -6446838.053 7  -5023507.99828  24789483.683
   6802748.835 6   5300861.13926  25547863.271
   -859218.143 5   -669520.76321  27370962.693
   6385882.975 4   4976020.52322  28037758.059
  -8508336.461 6  -6629853.58825  24497459.175
  -9093065.906 7  -7085493.37129  24331480.277
 92  5  9  8 13 30.0120000  0  6G28G17G11G 3G23G21
  -6458277.616 7  -5032421.94628  24787311.096
   6889914.956 6   5368782.82426  25564452.285
   -943119.569 5   -734898.47121  27354995.744
   6531460.859 4   5089457.70622  28065448.693
  -8448125.414 6  -6582935.85426  24508917.232
  -9104837.678 8  -7094666.19528  24329245.009
 92  5  9  8 14  0.0120000  0  6G28G17G11G 3G23G21
  -6469121.309 7  -5040871.59529  24785244.641
   6977330.924 6   5436899.10425  25581086.566
  -1026879.342 4   -800166.04921  27339060.868
   6677205.415 3   5203024.78522  28093175.902
  -8387610.772 6  -6535781.59424  24520432.841
  -9116249.890 7  -7103558.80928  24327068.828
 92  5  9  8 14 30.0120000  0  6G28G17G11G 3G23G21
  -6479382.004 7  -5048866.94127  24783292.067
   7064967.307 6   5505187.17626  25597759.237
  -1110511.751 3   -865333.91121  27323141.872
   6823096.781 4   5316706.25222  28120947.470
  -8326799.541 6  -6488396.22623  24532005.441
  -9127333.345 8  -7112195.23929  24324963.668
 92  5  9  8 15  0.0120000  0  5G28G17G 3G23G21
  -6489043.814 7  -5056395.62428  24781453.756
   7152807.953 7   5573634.42726  25614481.047
   6969132.475 4   5430500.28522  28148734.952
  -8265714.344 6  -6440797.35824  24543627.495
  -9138096.447 8  -7120582.08329  24322916.409
 92  5  9  8 15 30.0120000  0  5G28G17G 3G23G21
  -6498117.917 7  -5063466.35727  24779729.360
   7240839.647 6   5642230.57026  25631231.965
   7115302.258 4   5544398.76421  28176548.191
  -8204397.611 6  -6393018.08825  24555288.813
  -9148545.286 8  -7128724.00428  24320924.292
 92  5  9  8 16  0.0120000  0  5G28G17G 3G23G21
  -6506617.955 7  -5070089.76227  24778106.560
   7329068.403 6   5710980.20626  25648012.234
   7261601.248 5   5658397.75022  28204391.410
  -8142868.684 6  -6345073.45426  24567002.935
  -9158692.470 8  -7136630.85629  24318995.414
 92  5  9  8 16 30.0120000  0  5G28G17G 3G23G21
  -6514513.653 7  -5076242.25827  24776607.307
   7417534.631 6   5779914.90625  25664845.901
   7408046.739 5   5772511.06722  28232252.602
  -8081123.368 6  -6296960.22226  24578752.376
  -9168523.326 7  -7144291.27428  24317125.589
 92  5  9  8 17  0.0120000  0  5G28G17G 3G23G21
  -6521827.244 7  -5081941.17628  24775218.374
   7506246.423 6   5849040.94927  25681736.211
   7554628.735 4   5886730.69322  28260142.308
  -8019175.222 6  -6248688.92026  24590540.207
  -9178031.066 8  -7151699.87727  24315312.162
 92  5  9  8 17 30.0120000  0  5G28G17G 3G23G21
  -6528570.814 7  -5087195.90428  24773933.480
   7595216.359 6   5918368.18126  25698667.285
   7701340.871 5   6001051.78922  28288080.560
  -7957022.374 6  -6200258.12826  24602368.523
  -9187223.988 8  -7158863.14829  24313563.162
 92  5  9  8 18  0.0120000  0  5G28G17G 3G23G21
  -6534733.639 7  -5091998.10328  24772758.871
   7684448.734 6   5987899.86226  25715642.438
   7848183.966 4   6115474.83722  28316013.438
  -7894642.360 6  -6151650.31726  24614242.105
  -9196103.831 8  -7165782.52529  24311876.249
 92  5  9  8 18 30.0120000  0  4G28G17G23G21
  -6540293.690 7  -5096330.61829  24771703.621
   7773951.098 6   6057641.95827  25732678.422
  -7831998.669 5  -6102837.06027  24626165.176
  -9204645.441 8  -7172438.32329  24310254.077
 92  5  9  8 19  0.0120000  0  4G28G17G23G21
  -6545264.485 7  -5100203.96428  24770754.155
   7863694.822 6   6127572.12626  25749750.110
  -7769096.379 5  -6053822.31227  24638129.883
  -9212856.211 8  -7178836.29729  24308689.455
 92  5  9  8 19 30.0120000  0  4G28G17G23G21
  -6549626.308 7  -5103602.79328  24769927.050
   7953673.908 6   6197685.66326  25766876.067
  -7705929.661 6  -6004601.52327  24650153.955
  -9220725.742 7  -7184968.38129  24307190.482
 92  5  9  8 20  0.0120000  0  4G28G17G23G21
  -6553397.499 7  -5106541.39928  24769205.134
   8043860.029 6   6267960.57125  25784040.381
  -7642507.655 6  -5955181.79528  24662217.919
  -9228261.092 7  -7190840.08129  24305752.968
 92  5  9  8 20 30.0120000  0  4G28G17G23G21
  -6556571.262 7  -5109014.46528  24768601.042
   8134244.364 6   6338389.89626  25801231.986
  -7578836.507 6  -5905567.93928  24674335.804
  -9235456.487 8  -7196446.86529  24304387.733
 92  5  9  8 21  0.0120000  0  4G28G17G23G21
  -6559152.664 7  -5111025.94427  24768110.307
   8224822.457 6   6408970.19724  25818476.955
  -7514929.396 6  -5855770.17025  24686497.489
  -9242326.966 8  -7201800.46029  24303082.142
 92  5  9  8 21 30.0120000  0  4G28G17G23G21
  -6561128.348 7  -5112565.44328  24767735.267
   8315613.199 6   6479716.22426  25835748.273
  -7450778.374 7  -5805782.36325  24698702.345
  -9248880.312 7  -7206906.94829  24301832.009
 92  5  9  8 22  0.0120000  0  4G28G17G23G21
  -6562495.544 7  -5113630.80029  24767477.737
   8406617.714 6   6550628.84524  25853063.391
  -7386383.379 6  -5755604.39026  24710957.564
  -9255141.169 7  -7211785.54029  24300636.704
 92  5  9  8 22 30.0120000  0  4G28G17G23G21
  -6563257.099 7  -5114224.21429  24767331.120
   8497851.752 6   6621720.28825  25870434.280
  -7321753.394 6  -5705243.36926  24723256.861
  -9261100.931 7  -7216429.49729  24299504.987
 92  5  9  8 23  0.0120000  0  4G28G17G23G21
  -6563416.746 7  -5114348.68128  24767299.954
   8589326.799 6   6692999.50925  25887836.614
  -7256904.445 5  -5654711.71725  24735596.608
  -9266757.415 7  -7220837.12029  24298429.635
 92  5  9  8 23 30.0120000  0  5G28G17G11G23G21
  -6562961.758 7  -5113994.10429  24767386.298
   8681054.706 5   6764475.80523  25905285.750
    -45762.07615    -35658.61923  27041502.164
  -7191838.275 5  -5604010.80125  24747972.337
  -9272089.054 7  -7224991.65029  24297411.554
 92  5  9  8 24  0.0120000  0  5G28G17G11G23G21
  -6561914.122 8  -5113177.75729  24767591.059
   8773022.882 6   6836139.29925  25922790.343
   -126375.461 5    -98474.23521  27026156.687
  -7126565.432 5  -5553148.87724  24760393.926
  -9277086.796 7  -7228885.98329  24296465.718
 92  5  9  8 24 30.0120000  0  5G28G17G11G23G21
  -6560290.960 7  -5111912.96429  24767893.541
   8865216.579 6   6907978.53524  25940334.163
   -206805.408 5   -161146.97322  27010856.475
  -7061093.224 5  -5502131.53025  24772855.126
  -9281742.890 7  -7232514.09329  24295579.212
 92  5  9  8 25  0.0120000  0  4G28G17G11G21
  -6558077.430 7  -5110188.12728  24768317.756
   8957620.754 6   6979981.78124  25957926.914
   -287045.620 5   -223671.85523  26995580.834
  -9286076.196 7  -7235890.68529  24294754.200
 92  5  9  8 25 30.0120000  0  4G28G17G11G21
  -6555274.484 7  -5108004.01628  24768850.790
   9050228.970 6   7052144.00824  25975543.607
   -367098.038 5   -286050.36824  26980350.493
  -9290104.341 7  -7239029.50429  24293989.706
 92  5  9  8 26  0.0120000  0  4G28G17G11G21
  -6551864.611 7  -5105346.97927  24769498.647
   9143049.405 6   7124471.57525  25993207.067
   -446946.221 5   -348269.77524  26965157.601
  -9293821.599 7  -7241926.05929  24293278.924
 92  5  9  8 26 30.0120000  0  4G28G17G11G21
  -6547822.817 7  -5102197.52428  24770268.515
   9236085.965 5   7196967.60725  26010916.734
   -526579.122 6   -410321.43722  26950003.099
  -9297229.596 7  -7244581.61929  24292629.846
 92  5  9  8 27  0.0120000  0  3G28G17G11
  -6543133.579 7  -5098543.57628  24771159.768
   9329355.512 5   7269645.15224  26028653.345
   -605991.993 5   -472201.62323  26934894.770
 92  5  9  8 27 30.0120000  0  4G28G17G11G21
  -6537808.490 7  -5094394.17828  24772176.976
   9422865.058 6   7342509.73226  26046452.323
   -685187.363 5   -533912.30323  26919820.888
     -3685.24817     -2858.71529  24291513.450
 92  5  9  8 28  0.0120000  0  5G28G17G11G23G21
  -6531854.363 7  -5089754.58728  24773307.506
   9516628.271 6   7415571.93425  26064293.251
   -764163.931 5   -595452.50523  26904784.803
     38063.85715     29679.24221  24861374.846
     -6113.007 7     -4750.46729  24291053.253
 92  5  9  8 28 30.0120000  0  5G28G17G11G23G21
  -6525269.796 7  -5084623.75028  24774562.141
   9610660.491 6   7488843.83024  26082192.358
   -842912.285 6   -656814.83622  26889808.956
    105404.804 5     82152.77022  24874179.257
     -8186.698 7     -6366.30829  24290656.645
 92  5  9  8 29  0.0120000  0  5G28G17G11G23G21
  -6518050.581 7  -5078998.37728  24775936.067
   9704961.010 6   7562324.73924  26100135.544
   -921421.906 6   -717991.13922  26874863.403
    172971.503 5    134802.16523  24887046.943
     -9892.596 7     -7695.57629  24290334.060
 92  5  9  8 29 30.0120000  0  5G28G17G11G23G21
  -6510205.431 7  -5072885.28928  24777424.850
   9799511.143 6   7636000.15024  26118133.001
   -999694.528 6   -778982.75522  26859977.216
    240756.930 5    187621.91824  24899932.323
    -11243.569 7     -8748.27929  24290072.028
 92  5  9  8 30  0.0120000  0  5G28G17G11G23G21
  -6501720.914 7  -5066273.96327  24779042.834
   9894295.746 5   7709858.24523  26136160.995
  -1077730.549 6   -839789.95221  26845124.324
    308761.062 3    240612.18124  24912885.760
    -12263.532 7     -9543.01629  24289881.367
 92  5  9  8 30 30.0120000  0  4G28G17G11G23
  -6492582.900 7  -5059153.45428  24780781.608
   9989287.912 5   7783878.11224  26154242.388
  -1155525.702 5   -900409.55721  26830317.569
    377011.578 4    293794.39224  24925870.990
 92  5  9  8 31  0.0120000  0  4G28G17G11G21
  -6482786.909 7  -5051520.19927  24782645.117
  10084483.200 5   7858056.25924  26172349.257
  -1233075.140 5   -960837.41421  26815562.957
      -270.71618      -198.08129  24289676.012
 92  5  9  8 31 30.0120000  0  4G28G17G11G21
  -6472347.774 7  -5043385.83627  24784630.952
  10179902.990 6   7932409.32924  26190507.988
  -1310375.751 5  -1021071.47821  26800851.271
      -350.099 7      -259.94929  24289658.004
 92  5  9  8 32  0.0120000  0  4G28G17G11G21
  -6461284.140 7  -5034764.80128  24786739.113
  10275546.971 6   8006937.07625  26208714.394
  -1387429.359 4  -1081113.29822  26786189.598
      -114.410 7       -76.25929  24289702.397
 92  5  9  8 32 30.0120000  0  4G28G17G23G21
  -6449629.005 7  -5025682.89829  24788955.465
  10371410.014 5   8081635.53223  26226946.870
     11541.10915      9011.80921  24978257.905
       442.418 8       357.65329  24289809.123
 92  5  9  8 33  0.0120000  0  4G28G17G23G21
  -6437389.194 7  -5016145.35728  24791282.137
  10467513.427 6   8156521.26625  26245241.713
     80948.009 4     63095.31722  24991470.965
      1325.111 7      1045.47129  24289974.900
 92  5  9  8 33 30.0120000  0  3G28G17G23
  -6424558.757 7  -5006147.64128  24793725.168
  10563851.350 6   8231589.79422  26263581.787
    150570.044 5    117346.54521  25004717.879
 92  5  9  8 34  0.0120000  0  4G28G17G23G21
  -6411111.383 7  -4995669.13427  24796283.893
  10660402.285 6   8306824.25724  26281947.374
    220404.405 4    171762.93022  25018003.812
      1499.51217      1180.86129  24290503.746
 92  5  9  8 34 30.0130000  0  4G28G17G23G21
  -6397023.441 7  -4984691.54328  24798964.337
  10757172.014 6   8382229.24823  26300363.621
    290431.373 3    226329.39822  25031327.458
      3382.798 7      2648.37729  24290860.484
 92  5  9  8 35  0.0130000  0  3G28G17G21
  -6382285.614 7  -4973207.53127  24801768.901
  10854150.124 6   8457796.54123  26318817.052
      5589.150 8      4367.60928  24291283.198
 92  5  9  8 35 30.0130000  0  3G28G17G21
  -6366883.142 7  -4961205.61028  24804701.166
  10951348.842 6   8533535.81723  26337315.749
      8139.097 7      6354.61128  24291767.372
 92  5  9  8 36  0.0130000  0  3G28G17G21
  -6350825.124 7  -4948692.89927  24807758.758
  11048786.908 6   8609461.61923  26355863.620
     11038.485 8      8613.87729  24292320.160
 92  5  9  8 36 30.0130000  0  3G28G17G21
  -6334141.547 7  -4935692.68528  24810929.044
  11146469.315 6   8685577.69023  26374444.751
     14264.808 7     11127.91929  24292933.256
 92  5  9  8 37  0.0130000  0  4G28G17G11G21
  -6316828.283 7  -4922201.84828  24814227.659
  11244410.282 6   8761895.30923  26393075.965
    -42134.39815    -32831.92823  26642248.148
     17825.356 7     13902.39929  24293608.370
 92  5  9  8 37 30.0130000  0  4G28G17G11G21
  -6298894.093 7  -4908227.14228  24817638.408
  11342604.249 6   8838410.10222  26411768.010
   -116270.392 5    -90600.16421  26628142.020
     21710.250 7     16929.61529  24294348.259
 92  5  9  8 38  0.0130000  0  4G28G17G11G21
  -6280344.233 7  -4893772.72428  24821168.762
  11441026.488 7   8915102.71824  26430498.760
   -190120.240 4   -148145.45922  26614100.632
     25892.767 7     20188.71529  24295144.827
 92  5  9  8 38 30.0130000  0  4G28G17G11G21
  -6261169.457 7  -4878831.34728  24824819.627
  11539656.752 6   8991957.40223  26449271.460
   -263684.300 4   -205468.10922  26600110.514
     30362.744 7     23671.83729  24295996.816
 92  5  9  8 39  0.0130000  0  5G28G17G11G23G21
  -6241372.147 7  -4863404.87827  24828583.220
  11638471.458 6   9068955.85723  26468073.825
   -336973.165 4   -262576.32923  26586153.097
     26364.40715     20562.97721  25152946.681
     35124.505 7     27382.32029  24296899.795
 92  5  9  8 39 30.0130000  0  5G28G17G11G23G21
  -6220936.101 7  -4847480.70427  24832473.921
  11737465.340 6   9146093.94924  26486910.707
   -409975.305 5   -319461.14723  26572264.014
     98399.252 5     76694.18121  25166663.669
     40190.706 7     31329.99729  24297861.546
 92  5  9  8 40  0.0130000  0  5G28G17G11G23G21
  -6199857.410 7  -4831055.77328  24836485.167
  11836635.192 6   9223369.12522  26505777.847
   -482690.907 5   -376122.67624  26558419.884
    170601.536 5    132955.80522  25180401.981
     45567.820 7     35519.96829  24298887.445
 92  5  9  8 40 30.0130000  0  5G28G17G11G23G21
  -6178144.442 7  -4814136.56728  24840613.889
  11936004.280 6   9300799.52523  26524688.125
   -555115.755 5   -432557.59424  26544637.842
    242969.500 3    189346.35724  25194152.543
     51274.786 7     39966.99729  24299975.361
 92  5  9  8 41  0.0130000  0  5G28G17G11G23G21
  -6155802.321 7  -4796727.12728  24844869.159
  12035585.018 6   9378394.86922  26543638.608
   -627237.867 6   -488756.63122  26530916.317
    315520.292 3    245879.44323  25207971.196
     57313.189 7     44672.25729  24301126.587
 92  5  9  8 41 30.0130000  0  5G28G17G11G23G21
  -6132840.802 7  -4778835.05528  24849236.530
  12135387.417 6   9456162.99424  26562631.390
   -699060.353 5   -544722.22124  26517243.408
    388247.660 3    302550.12125  25221821.608
     63677.257 7     49631.26229  24302337.457
 92  5  9  8 42  0.0130000  0  4G28G17G11G21
  -6109278.146 8  -4760474.53328  24853724.726
  12235435.926 6   9534122.86024  26581673.277
   -770587.314 4   -600457.51224  26503637.613
     70358.251 7     54837.23329  24303605.879
 92  5  9  8 42 30.0130000  0  4G28G17G11G21
  -6085114.278 7  -4741645.57229  24858316.053
  12335736.919 6   9612279.43522  26600754.182
   -841807.145 5   -655953.49125  26490081.900
     77354.458 7     60288.84329  24304939.634
 92  5  9  8 43  0.0130000  0  4G28G17G11G21
  -6060332.726 7  -4722335.28829  24863030.578
  12436281.710 6   9690626.01424  26619888.451
   -912714.750 5   -711206.15522  26476588.240
     84659.707 7     65981.27129  24306329.474
 92  5  9  8 43 30.0130000  0  4G28G17G11G21
  -6034915.552 7  -4702529.67428  24867872.525
  12537064.074 5   9769157.72523  26639070.952
   -983309.036 5   -766214.65324  26463158.727
     92280.406 7     71919.47629  24307777.772
 92  5  9  8 44  0.0130000  0  4G28G17G11G21
  -6008859.475 7  -4682226.26228  24872830.795
  12638061.598 6   9847857.05222  26658291.250
  -1053585.522 5   -820975.53724  26449777.516
    100204.247 7     78093.89829  24309283.342
 92  5  9  8 44 30.0130000  0  4G28G17G11G21
  -5982164.650 7  -4661425.13728  24877909.576
  12739247.022 5   9926702.83823  26677535.838
  -1123541.640 5   -875486.81323  26436468.514
    108426.581 7     84500.93329  24310849.150
 92  5  9  8 45  0.0130000  0  4G28G17G11G21
  -5954811.610 7  -4640111.07528  24883115.779
  12840632.564 6  10005704.55324  26696834.662
  -1193163.415 5   -929737.58424  26423215.876
    116965.911 7     91154.94729  24312474.010
 92  5  9  8 45 30.0130000  0  4G28G17G11G21
  -5926805.521 7  -4618288.15029  24888441.306
  12942221.580 5  10084864.82424  26716161.372
  -1262444.142 5   -983722.56724  26410033.424
    125828.935 7     98061.21829  24314162.772
 92  5  9  8 46  0.0130000  0  4G28G17G11G21
  -5898173.152 7  -4595977.20528  24893895.406
  13044022.333 5  10164190.06824  26735537.256
  -1331381.011 5  -1037439.59523  26396924.401
    135013.830 7    105218.30829  24315908.143
 92  5  9  8 46 30.0130000  0  4G28G17G11G21
  -5868909.412 7  -4573174.31028  24899463.771
  13146042.606 5  10243686.38223  26754951.531
  -1399971.905 6  -1090887.02124  26383868.742
    144530.790 7    112634.10529  24317717.381
 92  5  9  8 47  0.0130000  0  4G28G17G11G21
  -5838996.325 7  -4549865.44928  24905158.300
  13248286.613 6  10323357.01525  26774408.070
  -1468206.444 6  -1144056.80424  26370886.827
    154393.287 7    120319.17529  24319598.584
 92  5  9  8 47 30.0130000  0  4G28G17G11G21
  -5808460.623 7  -4526071.39229  24910965.000
  13350741.785 6  10403192.21326  26793904.151
  -1536093.968 6  -1196956.22524  26357969.966
    164583.790 7    128259.84529  24321537.059
 92  5  9  8 48  0.0130000  0  4G28G17G11G21
  -5777296.872 7  -4501787.97628  24916896.399
  13453404.993 5  10483189.50123  26813432.934
  -1603632.414 6  -1249583.58424  26345115.158
    175094.378 7    136449.92829  24323534.272
 92  5  9  8 48 30.0130000  0  5G28G17G11G23G21
  -5745487.854 7  -4477001.73129  24922947.995
  13556261.784 6  10563337.64623  26833014.800
  -1670826.055 6  -1301942.27325  26332329.907
     57782.80715     45044.83321  25419347.359
    185913.415 7    144880.34729  24325595.352
 92  5  9  8 49  0.0130000  0  5G28G17G11G23G21
  -5713040.435 7  -4451718.03228  24929121.917
  13659329.839 6  10643650.40025  26852624.203
  -1737666.532 6  -1354025.73225  26319607.617
    133327.614 5    103910.83622  25433719.114
    197033.710 7    153545.51529  24327711.889
 92  5  9  8 49 30.0130000  0  5G28G17G11G23G21
  -5679967.984 7  -4425947.31128  24935407.380
  13762610.775 6  10724129.04025  26872282.502
  -1804155.129 6  -1405835.04225  26306951.288
    209052.724 5    162917.49521  25448131.318
    208445.588 7    162437.90329  24329885.383
 92  5  9  8 50  0.0130000  0  5G28G17G11G23G21
  -5646252.441 7  -4399675.47029  24941834.644
  13866113.014 5  10804780.12025  26891968.686
  -1870281.200 6  -1457361.85825  26294370.484
    284956.702 6    222063.46121  25462576.225
    220158.693 7    171565.00329  24332113.427
 92  5  9  8 50 30.0130000  0  5G28G17G11G23G21
  -5611905.990 7  -4372912.02128  24948367.099
  13969840.232 5  10885606.50724  26911707.604
  -1936041.542 6  -1508603.69025  26281858.643
    361037.707 6    281347.21621  25477052.297
    232173.132 7    180926.92829  24334394.240
 92  5  9  8 51  0.0130000  0  5G28G17G11G23G21
  -5576944.493 7  -4345669.32629  24955021.914
  14073795.661 6  10966610.71325  26931494.825
  -2001425.808 7  -1559552.47026  26269415.765
    437300.068 6    340772.30822  25491563.444
    244502.055 7    190533.88729  24336742.830
 92  5  9  8 51 30.0130000  0  5G28G17G11G23G21
  -5541374.309 7  -4317952.29428  24961790.330
  14177950.141 6  11047770.00124  26951320.681
  -2066441.326 6  -1610213.91326  26257044.224
    513732.684 6    400330.07021  25506116.891
    257154.093 8    200392.61029  24339153.752
 92  5  9  8 52  0.0130000  0  5G28G17G11G23G21
  -5505193.313 7  -4289759.32428  24968678.035
  14282300.850 6  11129082.22822  26971176.550
  -2131081.794 6  -1660583.08526  26244741.052
    590336.538 5    460021.57322  25520690.091
    270137.336 7    210509.43129  24341621.632
 92  5  9  8 52 30.0130000  0  5G28G17G11G23G21
  -5468408.179 7  -4261095.60928  24975677.003
  14386837.521 6  11210539.34224  26991072.277
  -2195339.883 7  -1710654.30825  26232514.592
    667122.254 5    519854.75922  25535301.682
    283463.772 7    220893.67929  24344160.604
 92  5  9  8 53  0.0130000  0  5G28G17G11G23G21
  -5431014.949 7  -4231958.03228  24982792.574
  14491543.826 6  11292128.62723  27010988.699
  -2259214.966 7  -1760427.10925  26220360.132
    744084.175 4    579825.04223  25549947.441
    297128.112 7    231541.19829  24346757.685
 92  5  9  8 53 30.0130000  0  4G28G17G11G21
  -5392997.942 7  -4202334.40428  24990023.560
  14596431.501 6  11373859.26722  27030950.073
  -2322708.395 7  -1809902.52425  26208275.786
    311113.287 8    242438.75729  24349422.856
 92  5  9  8 54  0.0130000  0  4G28G17G11G21
  -5354350.377 7  -4172219.42428  24997377.466
  14701509.703 6  11455738.34423  27050947.708
  -2385813.906 6  -1859075.62326  26196265.499
    325401.215 7    253572.22229  24352140.763
 92  5  9  8 54 30.0130000  0  4G28G17G11G21
  -5315078.593 7  -4141618.04528  25004851.010
  14806774.027 6  11537762.49324  27070985.235
  -2448541.750 6  -1907954.42826  26184330.772
    339962.178 7    264918.41329  24354904.842
 92  5  9  8 55  0.0130000  0  4G28G17G11G21
  -5275165.212 7  -4110516.73828  25012448.940
  14912248.347 6  11619950.19723  27091048.273
  -2510884.875 7  -1956533.46225  26172466.194
    354791.888 8    276474.03629  24357731.882
 92  5  9  8 55 30.0130000  0  4G28G17G11G21
  -5234614.906 7  -4078919.12828  25020165.601
  15017943.066 6  11702309.69322  27111160.138
  -2572840.073 7  -2004810.23426  26160677.734
    369904.245 8    288249.92529  24360609.912
 92  5  9  8 56  0.0130000  0  4G28G17G11G21
  -5193440.978 7  -4046835.56028  25027998.271
  15123852.255 5  11784836.24423  27131319.362
  -2634395.979 7  -2052775.87025  26148965.148
    385320.603 8    300262.6662   24363541.269
 92  5  9  8 56 30.0130000  0  4G28G17G11G21
  -5151641.821 7  -4014264.78128  25035951.486
  15229988.172 5  11867539.53222  27151509.509
  -2695549.470 7  -2100427.94325  26137329.308
    401048.535 8    312518.20129  24366535.308
 92  5  9  8 57  0.0130000  0  5G28G17G11G23G21
  -5109222.635 7  -3981210.90027  25044029.681
  15336361.090 6  11950427.51623  27171762.895
  -2756287.234 6  -2147756.07026  26125768.399
     79486.05416     61956.85625  25668125.341
    417115.027 8    325037.55529  24369595.273
 92  5  9  8 57 30.0130000  0  5G28G17G11G23G21
  -5066185.613 7  -3947675.58828  25052213.414
  15442965.463 5  12033495.80622  27192028.565
  -2816599.383 7  -2194752.54026  26114292.648
    157891.091 5    123051.69125  25683045.696
    433523.157 8    337823.13029  24372718.827
 92  5  9  8 58  0.0130000  0  5G28G17G11G23G21
  -5022529.433 7  -3913657.79828  25060527.256
  15549782.019 5  12116729.47623  27212374.263
  -2876490.476 6  -2241420.90526  26102893.642
    236484.139 6    184293.01523  25698011.037
    450251.259 8    350858.03129  24375896.302
 92  5  9  8 58 30.0130000  0  5G28G17G11G23G21
  -4978240.495 7  -3879146.94128  25068952.640
  15656806.454 5  12200125.05222  27232738.283
  -2935956.040 7  -2287757.72026  26091580.980
    315237.123 4    245658.96124  25712989.257
    467289.373 8    364134.50229  24379142.462
 92  5  9  8 59  0.0130000  0  5G28G17G11G23G21
  -4933341.491 7  -3844160.69827  25077493.405
  15764009.419 5  12283659.83623  27253126.838
  -2995001.345 7  -2333767.05626  26080344.750
    394138.474 4    307140.48222  25728003.774
    484629.016 7    377645.91929  24382441.076
 92  5  9  8 59 30.0130000  0  5G28G17G11G23G21
  -4887823.540 7  -3808692.21127  25086156.810
  15871385.440 5  12367329.45423  27273567.290
  -3053624.207 7  -2379447.17826  26069185.894
    473186.455 4    368736.32324  25743038.951
    502262.510 7    391386.28929  24385794.555
 92  5  9  9  0  0.0130000  0  5G28G17G11G23G21
  -4841697.142 7  -3772749.57227  25094932.943
  15978932.666 5  12451132.42423  27294030.847
  -3111826.609 7  -2424799.67526  26058114.254
    552372.177 5    430439.46324  25758114.334
    520182.397 8    405349.85129  24389204.990
 92  5  9  9  0 30.0130000  0  5G28G17G11G23G21
  -4794974.486 7  -3736342.32127  25103822.992
  16086666.119 5  12535080.53724  27314529.129
  -3169604.536 7  -2469821.41626  26047119.361
    631711.164 6    492262.06424  25773210.377
    538398.317 8    419544.10929  24392673.291
 92  5  9  9  1  0.0130000  0  5G28G17G11G23G21
  -4747673.653 7  -3699484.54728  25112826.955
  16194590.662 5  12619177.59724  27335070.024
  -3226959.613 6  -2514513.67126  26036199.119
    711209.666 5    554208.97425  25788336.994
    556916.375 7    433973.76929  24396193.453
 92  5  9  9  1 30.0130000  0  5G28G17G11G23G21
  -4699776.719 7  -3662162.26427  25121937.330
  16302709.354 6  12703425.90524  27355650.462
  -3283885.024 7  -2558871.10925  26025369.095
    790856.271 6    616271.27724  25803497.220
    575732.896 7    448635.97829  24399774.482
 92  5  9  9  2  0.0130000  0  5G28G17G11G23G21
  -4651291.419 7  -3624381.51227  25131171.845
  16411005.070 5  12787812.15024  27376256.098
  -3340383.292 7  -2602895.74026  26014619.168
    870624.235 6    678428.16825  25818672.697
    594843.019 8    463526.98429  24403410.375
 92  5  9  9  2 30.0130000  0  5G28G17G11G23G21
  -4602198.823 6  -3586127.55527  25140506.804
  16519485.043 5  12872341.96124  27396892.621
  -3396439.703 7  -2646576.04026  26003952.233
    950519.248 6    740684.01423  25833877.595
    614266.095 8    478661.85429  24407108.006
 92  5  9  9  3  0.0130000  0  5G28G17G11G23G21
  -4552497.997 7  -3547399.66828  25149972.151
  16628129.245 5  12956999.81224  27417565.998
  -3452059.410 7  -2689916.06027  25993367.176
   1030526.186 6    803027.05224  25849104.620
    633989.515 8    494030.76229  24410861.408
 92  5  9  9  3 30.0130000  0  5G28G17G11G23G21
  -4502168.838 7  -3508182.15427  25159544.224
  16736929.499 6  13041779.19624  27438275.673
  -3507235.364 7  -2732910.29827  25982866.926
   1110642.234 5    865455.14025  25864351.469
    654010.433 8    509631.49029  24414671.175
 92  5  9  9  4  0.0130000  0  5G28G17G11G23G21
  -4451215.614 7  -3468478.34627  25169241.589
  16845909.381 5  13126698.57824  27459004.228
  -3561957.848 7  -2775551.16026  25972461.152
   1190891.863 6    927987.32425  25879615.698
    674345.924 8    525477.32829  24418541.179
 92  5  9  9  4 30.0130000  0  5G28G17G11G23G21
  -4399641.085 7  -3428290.45327  25179047.216
  16955085.766 5  13211771.05124  27479788.833
  -3616225.650 7  -2817837.76027  25962129.680
   1271300.134 6    990643.09425  25894916.816
    694984.356 8    541559.21829  24422471.771
 92  5  9  9  5  0.0130000  0  5G28G17G11G23G21
  -4347447.053 7  -3387619.77227  25188988.326
  17064463.767 5  13297000.61924  27500603.139
  -3670032.731 7  -2859765.34726  25951889.683
   1351872.429 5   1053426.66325  25910249.415
    715916.631 8    557870.09729  24426449.130
 92  5  9  9  5 30.0130000  0  5G28G17G11G23G21
  -4294635.979 7  -3346468.30427  25199036.161
  17174062.252 5  13382402.07525  27521454.893
  -3723366.955 7  -2901324.48626  25941736.309
   1432621.487 5   1116348.00226  25925616.461
    737151.249 8    574416.55329  24430494.230
 92  5  9  9  6  0.0130000  0  5G28G17G11G23G21
  -4241222.382 7  -3304847.36227  25209204.228
  17283898.977 6  13467989.07124  27542361.510
  -3776223.275 7  -2942511.23926  25931680.656
   1513567.719 3   1179423.05425  25941008.705
    758687.082 8    591197.73029  24434590.284
 92  5  9  9  6 30.0130000  0  5G28G17G11G23G21
  -4187214.752 7  -3262763.49327  25219479.929
  17393955.401 5  13553747.29323  27563301.422
  -3828600.068 7  -2983324.31326  25921714.662
   1594699.153 5   1242642.37523  25956457.627
    780527.127 8    608215.95529  24438747.205
 92  5  9  9  7  0.0130000  0  5G28G17G11G23G21
  -4132615.434 7  -3220218.57227  25229871.917
  17504217.271 5  13639665.66123  27584280.283
  -3880490.558 7  -3023758.44127  25911839.200
   1675999.214 5   1305993.08423  25971936.214
    802693.477 8    625488.45629  24442964.400
 92  5  9  9  7 30.0130000  0  5G28G17G11G23G21
  -4077420.466 7  -3177209.53027  25240373.947
  17614681.703 5  13725741.80923  27605300.850
  -3931888.920 7  -3063809.10626  25902060.272
   1757467.301 5   1369474.68022  25987436.370
    825205.287 7    643030.12029  24447248.114
 92  5  9  9  8  0.0130000  0  5G28G17G11G23G21
  -4021610.711 7  -3133721.42026  25250988.391
  17725345.024 5  13811972.93023  27626357.679
  -3982786.845 7  -3103469.81626  25892370.097
   1839097.917 5   1433082.94423  26002972.229
    848066.557 8    660844.10029  24451600.512
 92  5  9  9  8 30.0130000  0  5G28G17G11G23G21
  -3965185.602 7  -3089753.84126  25261728.476
  17836185.987 5  13898342.53322  27647450.770
  -4033187.953 7  -3142743.38827  25882784.832
   1920861.777 4   1496795.11723  26018537.754
    871266.222 8    678921.77229  24456014.056
 92  5  9  9  9  0.0130000  0  5G28G17G11G23G21
  -3908136.146 7  -3045299.74628  25272587.537
  17947215.919 5  13984859.31622  27668578.341
  -4083084.618 7  -3181623.87426  25873285.596
   2002765.075 4   1560615.92622  26034126.033
    894800.862 8    697260.48029  24460494.469
 92  5  9  9  9 30.0130000  0  5G28G17G11G23G21
  -3850461.843 7  -3000358.71126  25283558.768
  18058444.296 5  14071530.78222  27689746.991
  -4132468.075 7  -3220104.48826  25863888.305
   2084826.914 4   1624560.04621  26049705.064
    918661.147 8    715852.90929  24465032.399
 92  5  9  9 10  0.0130000  0  5G28G17G11G23G21
  -3792166.262 7  -2954933.62626  25294658.259
  18169882.970 5  14158366.10022  27710956.719
  -4181330.411 7  -3258179.05126  25854591.736
   2167061.134 5   1688638.76522  26065376.407
    942834.729 7    734689.45429  24469632.730
 92  5  9  9 10 30.0130000  0  5G28G17G11G23G21
  -3733253.971 7  -2909027.95526  25305860.600
  18281537.794 6  14245369.86723  27732209.304
  -4229663.980 7  -3295841.55726  25845396.798
   2249481.045 5   1752862.11222  26081066.665
    967326.582 8    753774.00929  24474296.300
 92  5  9  9 11  0.0130000  0  5G28G17G11G23G21
  -3673732.061 7  -2862647.27227  25317193.958
  18393398.479 5  14332533.96821  27753492.462
  -4277480.348 6  -3333101.03226  25836295.113
   2332078.197 5   1817223.54522  26096781.773
    992125.574 8    773097.91829  24479014.141
 92  5  9  9 11 30.0130000  0  5G28G17G11G23G21
  -3613583.275 7  -2815778.09527  25328639.452
  18505478.988 6  14419869.44722  27774823.294
  -4324764.617 7  -3369945.90127  25827298.339
   2414866.603 4   1881734.01122  26112537.365
   1017231.440 8    792660.95429  24483787.718
 92  5  9  9 12  0.0140000  0  5G28G17G11G23G21
  -3552794.627 7  -2768410.34127  25340202.126
  18617797.987 5  14507390.70621  27796195.190
  -4371509.145 7  -3406370.20826  25818399.308
   2497838.563 5   1946387.28721  26128320.549
   1042652.167 8    812469.33329  24488629.092
 92  5  9  9 12 30.0140000  0  5G28G17G11G23G21
  -3491374.267 7  -2720550.34127  25351893.144
  18730341.199 6  14595086.61822  27817615.367
  -4417706.349 7  -3442368.01826  25809611.483
   2580971.600 6   2011166.32322  26144144.476
   1068397.313 7    832530.48729  24493524.995
 92  5  9  9 13  0.0140000  0  5G28G17G11G23G21
  -3429338.107 7  -2672210.47926  25363698.984
  18843106.570 6  14682955.76721  27839069.398
  -4463361.787 7  -3477943.68225  25800924.694
   2664256.619 6   2076063.76422  26159992.101
   1094461.313 8    852840.09329  24498486.860
 92  5  9  9 13 30.0140000  0  5G28G17G11G23G21
  -3366713.502 7  -2623412.10728  25375611.829
  18956084.267 5  14770990.25722  27860559.131
  -4508476.399 7  -3513097.93626  25792331.125
   2747688.265 6   2141075.48824  26175868.519
   1120841.361 8    873395.96129  24503507.462
 92  5  9  9 14  0.0140000  0  5G28G17G11G23G21
  -3303510.070 7  -2574162.69227  25387641.311
  19069260.615 6  14859179.57922  27882107.009
  -4553050.363 7  -3547830.88727  25783856.322
   2831263.030 6   2206198.67521  26191770.099
   1147547.535 8    894205.96629  24508590.152
 92  5  9  9 14 30.0140000  0  5G28G17G11G23G21
  -3239717.458 7  -2524454.20827  25399779.892
  19182627.472 6  14947517.38221  27903681.900
  -4597071.283 7  -3582132.89926  25775479.206
   2914995.097 6   2271444.39421  26207705.882
   1174590.498 8    915278.42729  24513735.488
 92  5  9  9 15  0.0140000  0  5G28G17G11G23G21
  -3175328.583 7  -2474281.06528  25412035.110
  19296188.256 6  15036006.20722  27925283.141
  -4640538.361 7  -3616003.33727  25767206.127
   2998894.811 5   2336820.69721  26223667.736
   1201962.656 8    936607.38229  24518944.972
 92  5  9  9 15 30.0140000  0  5G28G17G11G23G21
  -3110339.266 7  -2423640.05927  25424398.868
  19409944.684 6  15124647.51822  27946929.054
  -4683448.509 7  -3649439.79926  25759040.088
   3082961.914 5   2402327.52825  26239669.167
   1229665.426 7    958193.96529  24524213.541
 92  5  9  9 16  0.0140000  0  5G28G17G11G23G21
  -3044733.300 7  -2372518.53528  25436883.696
  19523904.184 6  15213447.08421  27968614.544
  -4725796.247 7  -3682438.05026  25750980.182
   3167197.632 5   2467965.86424  26255711.048
   1257703.594 8    980041.90129  24529550.446
 92  5  9  9 16 30.0140000  0  5G28G17G11G23G21
  -2978535.593 7  -2320935.92726  25449481.602
  19638060.558 6  15302400.07923  27990344.986
  -4767598.595 7  -3715011.30227  25743025.465
   3251575.251 6   2533714.72026  26271751.148
   1286054.728 8   1002133.70329  24534946.996
 92  5  9  9 17  0.0140000  0  5G28G17G11G23G21
  -2911732.080 7  -2268881.27926  25462196.389
  19752444.415 5  15391530.28223  28012108.130
  -4808833.845 7  -3747142.63127  25735179.289
   3336114.826 6   2599589.70025  26287844.297
   1314736.454 7   1024483.09129  24540400.817
 92  5  9  9 17 30.0140000  0  5G28G17G11G23G21
  -2844324.114 7  -2216355.59926  25475022.404
  19867051.225 6  15480834.25524  28033918.913
  -4849498.649 7  -3778829.49227  25727445.562
   3420814.257 6   2665589.28224  26303953.361
   1343746.858 7   1047088.60429  24545921.822
 92  5  9  9 18  0.0140000  0  5G28G17G11G23G21
  -2776311.660 7  -2163358.88527  25487962.333
  19981873.094 5  15570305.76823  28055770.808
  -4889592.896 7  -3810071.77026  25719813.151
   3505671.078 5   2731711.50224  26320105.876
   1373077.046 7   1069943.29429  24551506.938
 92  5  9  9 18 30.0140000  0  5G28G17G11G23G21
  -2707693.265 7  -2109890.04326  25501026.090
  20096911.814 5  15659946.31723  28077652.648
  -4929107.692 7  -3840862.50226  25712297.656
   3590698.255 6   2797966.47523  26336293.780
   1402727.848 7   1093047.81929  24557147.826
 92  5  9  9 19  0.0140000  0  5G28G17G11G23G21
  -2638470.261 7  -2055950.03526  25514192.977
  20212151.372 5  15749743.33725  28099597.449
  -4968039.147 7  -3871198.69426  25704887.386
   3675894.743 6   2864353.27922  26352496.342
   1432705.798 7   1116407.27329  24562851.709
 92  5  9  9 19 30.0140000  0  5G28G17G11G23G21
  -2568663.786 7  -2001555.42126  25527480.096
  20327576.727 5  15839685.13325  28121551.847
  -5006392.481 7  -3901084.41127  25697587.122
   3761251.549 6   2930864.99422  26368734.293
   1463015.219 7   1140025.00429  24568616.109
 92  5  9  9 20  0.0140000  0  5G28G17G11G23G21
  -2498275.118 6  -1946707.13027  25540870.312
  20443188.804 4  15929772.45724  28143551.232
  -5044156.261 7  -3930510.74327  25690401.716
   3846768.068 5   2997501.21821  26385005.539
   1493673.180 7   1163914.31829  24574452.160
 92  5  9  9 20 30.0140000  0  5G28G17G11G23G21
  -2427316.946 7  -1891415.08827  25554376.571
  20558974.088 5  16019994.66225  28165588.658
  -5081335.062 7  -3959481.21027  25683323.908
   3932429.842 5   3064250.62923  26401321.144
   1524680.733 7   1188076.05229  24580356.267
 92  5  9  9 21  0.0140000  0  5G28G17G11G23G21
  -2355800.413 7  -1835687.91427  25567987.461
  20674927.784 5  16110348.13225  28187645.001
  -5117932.935 7  -3987999.02326  25676364.517
   4018224.247 4   3131103.43922  26417642.437
   1556030.370 7   1212504.34429  24586318.552
 92  5  9  9 21 30.0140000  0  5G28G17G11G23G21
  -2283693.099 6  -1779500.43626  25581708.044
  20791081.537 4  16200857.54525  28209752.891
  -5153930.692 7  -4016049.26626  25669509.164
   4104175.145 4   3198078.21423  26434003.622
   1587721.065 7   1237198.40329  24592347.986
 92  5  9  9 22  0.0140000  0  5G28G17G11G23G21
  -2210986.044 6  -1722845.60526  25595541.076
  20907431.874 5  16291520.13825  28231889.574
  -5189334.606 7  -4043636.72226  25662774.636
   4190280.086 5   3265173.01223  26450390.563
   1619718.901 7   1262131.77429  24598438.252
 92  5  9  9 22 30.0140000  0  5G28G17G11G23G21
  -2137681.628 6  -1665725.31126  25609491.304
  21023987.132 4  16382342.37425  28254065.834
  -5224145.530 7  -4070762.11327  25656148.928
   4276553.915 5   3332399.34423  26466804.517
   1652011.324 7   1287294.68729  24604586.697
 92  5  9  9 23  0.0140000  0  5G28G17G11G23G21
  -2063783.869 6  -1608142.67226  25623553.073
  21140750.382 5  16473326.64824  28276305.613
  -5258361.809 7  -4097424.14227  25649638.915
   4363002.394 6   3399761.80324  26483248.729
   1684586.826 8   1312678.20929  24610784.002
 92  5  9  9 23 30.0140000  0  5G28G17G11G23G21
  -1989298.838 6  -1550102.41326  25637725.477
  21257711.219 4  16564464.98023  28298554.117
  -5291979.314 7  -4123619.59726  25643245.260
   4449620.932 6   3467256.78526  26499734.613
   1717447.244 7   1338283.74829  24617038.579
 92  5  9  9 24  0.0140000  0  5G28G17G11G23G21
  -1914242.814 7  -1491617.20226  25652012.389
  21374855.988 4  16655746.52624  28320837.975
  -5324994.769 7  -4149345.92526  25636960.703
   4536409.209 5   3534883.97026  26516245.695
   1750612.545 7   1364126.82628  24623344.424
 92  5  9  9 24 30.0140000  0  5G28G17G11G23G21
  -1838632.561 6  -1432700.12526  25666396.115
  21492173.229 4  16747162.51524  28343161.132
  -5357411.909 7  -4174606.04927  25630791.284
   4623347.905 5   3602628.41925  26532794.819
   1784096.442 7   1390218.19029  24629717.697
 92  5  9  9 25  0.0140000  0  5G28G17G11G23G21
  -1762460.350 6  -1373345.19125  25680891.696
  21609673.516 5  16838721.15525  28365531.648
  -5389218.843 7  -4199390.66827  25624738.152
   4710427.604 4   3670482.73725  26549353.854
   1817912.562 8   1416568.42629  24636157.247
 92  5  9  9 25 30.0140000  0  5G28G17G11G23G21
  -1685708.299 6  -1313538.43126  25695497.284
  21727383.100 5  16930442.82724  28387931.550
  -5420397.763 7  -4223685.91127  25618801.658
   4797661.269 3   3738457.03425  26565957.875
   1852080.020 7   1443192.43029  24642655.533
 92  5  9  9 26  0.0140000  0  4G28G17G11G21
  -1608384.361 7  -1253286.02126  25710214.379
  21845313.924 5  17022336.95325  28410363.526
  -5450950.778 7  -4247493.44927  25612992.585
   1886594.836 7   1470087.08429  24649225.784
 92  5  9  9 26 30.0140000  0  4G28G17G11G21
  -1530510.169 6  -1192604.86827  25725031.638
  21963469.485 5  17114406.13522  28432854.239
  -5480884.641 7  -4270818.53926  25607296.834
   1921431.162 8   1497232.26929  24655853.901
 92  5  9  9 27  0.0140000  0  5G28G17G11G23G21
  -1452092.368 6  -1131500.10326  25739955.309
  22081849.940 5  17206650.62624  28455383.656
  -5510193.552 7  -4293656.67126  25601715.312
     94951.90915     74008.61923  26615928.179
   1956582.605 7   1524623.01928  24662539.288
 92  5  9  9 27 30.0140000  0  5G28G17G11G23G21
  -1373146.177 7  -1069983.59726  25754980.295
  22200429.647 5  17299050.33124  28477941.832
  -5538883.691 7  -4316012.62326  25596254.895
    182752.783 4    142424.93822  26632625.420
   1992040.615 7   1552252.63929  24669288.509
 92  5  9  9 28  0.0140000  0  5G28G17G11G23G21
  -1293667.752 6  -1008052.41526  25770103.038
  22319185.494 5  17391587.34721  28500550.369
  -5566950.929 7  -4337883.18327  25590916.175
    270694.310 5    210950.77622  26649372.708
   2027806.167 7   1580121.90628  24676097.689
 92  5  9  9 28 30.0140000  0  5G28G17G11G23G21
  -1213640.188 6   -945693.27726  25785329.784
  22438107.905 5  17484254.05523  28523171.226
  -5594383.903 7  -4359259.52826  25585696.780
    358787.014 5    279594.39723  26666141.006
   2063896.775 7   1608244.47528  24682965.955
 92  5  9  9 29  0.0140000  0  5G28G17G11G23G21
  -1133037.385 7   -882885.93526  25800673.167
  22557189.317 5  17577044.81922  28545830.124
  -5621173.679 7  -4380134.67626  25580596.710
    447043.618 5    348365.75223  26682928.500
   2100328.032 7   1636632.50427  24689895.925
 92  5  9  9 29 30.0140000  0  5G28G17G11G23G21
  -1051857.188 7   -819628.64626  25816119.367
  22676415.470 5  17669948.17822  28568520.538
  -5647328.470 7  -4400515.05126  25575624.061
    535451.190 6    417254.80325  26699756.129
   2137093.332 7   1665280.79128  24696894.300
 92  5  9  9 30  0.0140000  0  5G28G17G11G23G21
   -970107.121 6   -755927.30926  25831672.606
  22795787.938 5  17762965.65022  28591239.709
  -5672851.112 7  -4420402.81826  25570764.733
    623998.240 6    486252.47124  26716603.267
   2174191.783 7   1694188.66129  24703952.320
 92  5  9  9 30 30.0140000  0  5G28G17G11G23G21
   -887804.968 7   -691795.78626  25847342.169
  22915319.156 5  17856106.80221  28613980.449
  -5697744.611 7  -4439800.34326  25566027.697
    712689.486 5    555362.50124  26733477.383
   2211618.589 7   1723352.41629  24711075.987
 92  5  9  9 31  0.0140000  0  5G28G17G11G23G21
   -804971.041 7   -627249.88226  25863100.134
  23035011.933 5  17949373.87221  28636766.490
  -5722012.779 7  -4458710.60626  25561408.799
    801510.262 5    624573.52025  26750383.887
   2249344.610 8   1752749.32229  24718255.705
 92  5  9  9 31 30.0140000  0  5G28G17G11G23G21
   -721622.119 7   -562302.69326  25878961.859
  23154880.166 5  18042777.64621  28659566.909
  -5745645.240 7  -4477125.50626  25556912.506
    890467.984 5    693891.26624  26767307.492
   2287378.603 7   1782386.18829  24725489.693
 92  5  9  9 32  0.0140000  0  5G28G17G11G23G21
   -637770.425 7   -496963.75126  25894918.024
  23274944.312 4  18136334.02922  28682419.191
  -5768638.021 7  -4495041.95526  25552537.946
    979573.024 5    763323.70323  26784266.451
   2325717.624 7   1812260.75129  24732788.456
 92  5  9  9 32 30.0140000  0  5G28G17G11G23G21
   -553415.036 7   -431232.30726  25910967.722
  23395203.278 4  18230042.35221  28705308.641
  -5790992.590 7  -4512461.10726  25548283.897
   1068813.204 6    832861.45023  26801250.574
   2364341.956 7   1842357.62429  24740135.765
 92  5  9  9 33  0.0140000  0  5G28G17G11G23G21
   -468566.205 7   -365116.36626  25927119.329
  23515636.289 4  18323886.22422  28728223.255
  -5812713.493 7  -4529386.47826  25544152.453
   1158171.262 6    902491.09924  26818251.518
   2403248.137 7   1872674.15529  24747538.845
 92  5  9  9 33 30.0140000  0  5G28G17G11G23G21
   -383196.054 7   -298594.18326  25943363.597
  23636241.914 4  18417864.57222  28751172.386
  -5833785.210 7  -4545805.99426  25540142.428
   1247672.739 5    972232.52826  26835287.223
   2442471.209 7   1903237.58229  24755002.478
 92  5  9  9 34  0.0140000  0  5G28G17G11G23G21
   -297272.671 6   -231640.92926  25959706.773
  23757027.532 4  18511983.18322  28774156.870
  -5854190.968 7  -4561706.58327  25536261.919
   1337323.862 5   1042090.57325  26852351.687
   2482024.832 8   1934058.59429  24762532.945
 92  5  9  9 34 30.0140000  0  5G28G17G11G23G21
   -210792.100 7   -164253.50926  25976172.554
  23877965.174 4  18606220.27422  28797168.926
  -5873929.588 7  -4577087.31426  25532497.104
   1427127.536 6   1112067.48825  26869433.286
   2521911.728 8   1965139.30129  24770123.685
 92  5  9  9 35  0.0140000  0  5G28G17G11G23G21
   -123778.923 6    -96451.04126  25992726.808
  23999030.823 4  18700557.15423  28820201.084
  -5893017.514 7  -4591961.02227  25528869.029
   1517076.403 5   1182157.54223  26886553.241
   2562125.983 8   1996475.09329  24777774.419
 92  5  9  9 35 30.0140000  0  5G28G17G11G23G21
    -36238.595 7    -28237.83126  26009382.971
  24120232.264 4  18794999.75924  28843273.413
  -5911463.446 7  -4606334.47125  25525358.150
   1607150.883 5   1252345.38425  26903686.074
   2602647.798 8   2028050.53929  24785487.450
 92  5  9  9 36  0.0140000  0  5G28G17G11G23G21
     51812.828 7     40373.62226  26026142.265
  24241591.607 4  18889565.48823  28866375.408
  -5929263.452 7  -4620204.60326  25521971.412
   1697340.175 6   1322622.72424  26920862.079
   2643460.436 8   2059852.59129  24793250.877
 92  5  9  9 36 30.0140000  0  5G28G17G11G23G21
    140357.237 7    109369.25326  26042983.121
  24363112.983 4  18984257.42823  28889485.219
  -5946421.695 7  -4633574.63426  25518703.684
   1787640.961 6   1392986.98425  26938038.992
   2684545.352 8   2091866.83329  24801069.168
 92  5  9  9 37  0.0140000  0  5G28G17G11G23G21
    229392.117 7    178747.03926  26059933.390
  24484820.179 4  19079094.14722  28912648.080
  -5962930.127 7  -4646438.35125  25515565.158
   1878037.940 6   1463426.23024  26955245.255
   2725904.301 7   2124094.60429  24808938.728
 92  5  9  9 37 30.0140000  0  5G28G17G11G23G21
    318908.654 6    248500.17227  26076964.000
  24606707.675 4  19174071.38622  28935845.143
  -5978793.765 7  -4658799.64225  25512544.420
   1968524.698 6   1533935.36824  26972459.651
   2767529.053 7   2156529.47429  24816857.462
 92  5  9  9 38  0.0140000  0  5G28G17G11G23G21
    408906.695 7    318628.50526  26094094.739
  24728766.833 5  19269182.37322  28959090.125
  -5994001.225 7  -4670649.60426  25509648.452
   2059122.659 6   1604531.13325  26989701.303
   2809442.184 7   2189189.04329  24824836.120
 92  5  9  9 38 30.0140000  0  5G28G17G11G23G21
    499388.875 6    389134.05925  26111307.634
  24850995.706 5  19364425.66522  28982333.047
  -6008542.200 7  -4681980.23626  25506881.371
   2149847.326 6   1675225.77525  27006959.464
   2851670.945 7   2222094.58429  24832868.456
 92  5  9  9 39  0.0140000  0  5G28G17G11G23G21
    590330.199 6    459997.38725  26128610.746
  24973362.814 4  19459776.63822  29005614.045
  -6022432.098 7  -4692803.51826  25504239.897
   2240686.970 6   1746009.94723  27024245.789
   2894205.974 8   2255238.75328  24840966.753
 92  5  9  9 39 30.0140000  0  5G28G17G11G23G21
    681734.504 6    531221.51226  26146009.207
  25095869.728 5  19555236.54622  29028935.773
  -6035655.586 7  -4703107.53026  25501726.123
   2331675.409 6   1816909.94324  27041560.628
   2937063.359 7   2288634.12828  24849118.727
 92  5  9  9 40  0.0140000  0  5G28G17G11G23G21
    773582.226 6    602791.17125  26163486.786
  25218494.812 5  19650788.51122  29052271.321
  -6048221.447 7  -4712899.12526  25499332.267
   2422798.114 6   1887914.57523  27058895.500
   2980227.619 7   2322268.63227  24857333.626
 92  5  9  9 40 30.0140000  0  5G28G17G11G23G21
    865879.221 7    674710.84526  26181051.652
  25341244.265 5  19746437.40422  29075620.375
  -6060120.031 7  -4722170.74626  25497069.742
   2514073.852 6   1959038.50724  27076266.703
   3023675.486 7   2356124.11927  24865601.609
 92  5  9  9 41  0.0140000  0  5G28G17G11G23G21
    958622.261 6    746978.14325  26198695.637
  25464114.394 5  19842180.36523  29099002.096
  -6071352.465 7  -4730923.28226  25494937.011
   2605506.007 6   2030284.38225  27093672.039
   3067388.301 7   2390186.08327  24873924.455
 92  5  9  9 41 30.0140000  0  5G28G17G11G23G21
   1051819.233 6    819599.11725  26216438.530
  25587107.821 5  19938019.37823  29122413.762
  -6081916.502 7  -4739154.99526  25492921.511
   2697088.766 4   2101647.62025  27111098.385
   3111374.292 6   2424460.87027  24882289.566
 92  5  9  9 42  0.0140000  0  5G28G17G11G23G21
   1145491.193 6    892590.23425  26234257.610
  25710236.284 5  20033963.56923  29145835.968
  -6091803.214 7  -4746858.92025  25491039.714
   2788817.986 4   2173125.03124  27128550.801
   3155625.839 6   2458942.60427  24890713.415
 92  5  9  9 42 30.0140000  0  5G28G17G11G23G21
   1239636.877 6    965950.47325  26252178.286
  25833504.702 5  20130016.88622  29169292.027
  -6101017.307 7  -4754038.73526  25489285.339
   2880680.885 5   2244706.55824  27146036.792
   3200135.615 6   2493625.53227  24899178.341
 92  5  9  9 43  0.0140000  0  5G28G17G11G23G21
   1334260.032 6   1039682.77626  26270181.431
  25956903.006 5  20226171.41322  29192784.069
  -6109561.829 7  -4760696.81726  25487660.759
   2972649.576 6   2316370.48221  27163538.977
   3244946.444 6   2528543.05727  24907710.136
 92  5  9  9 43 30.0140000  0  5G28G17G11G23G21
   1429370.250 6   1113794.60826  26288273.922
  26080412.560 5  20322412.56623  29216279.984
  -6117436.597 7  -4766832.98926  25486160.913
   3064698.468 5   2388096.87622  27181065.731
   3290064.862 6   2563700.28726  24916297.109
 92  5  9  9 44  0.0140000  0  4G28G11G23G21
   1524972.285 6   1188289.67025  26306471.916
  -6124632.168 7  -4772439.92826  25484793.234
   3156827.511 5   2459885.68521  27198583.516
   3335491.221 6   2599097.46826  24924938.911
 92  5  9  9 44 30.0140000  0  4G28G11G23G21
   1621056.026 6   1263160.08226  26324756.254
  -6131143.562 7  -4777513.73227  25483556.886
   3249037.345 4   2531737.52322  27216131.280
   3381256.666 5   2634758.88727  24933652.084
 92  5  9  9 45  0.0140000  0  4G28G11G23G21
   1717600.152 6   1338389.23625  26343129.623
  -6136976.254 7  -4782058.70226  25482444.679
   3341318.320 5   2603644.68922  27233702.987
   3427352.079 5   2670677.35127  24942417.433
 92  5  9  9 45 30.0140000  0  4G28G11G23G21
   1814590.774 6   1413966.33826  26361588.743
  -6142126.549 7  -4786071.93026  25481465.548
   3433679.942 4   2675614.72322  27251268.725
   3473737.148 4   2706821.52627  24951249.895
 92  5  9  9 46  0.0140000  0  4G28G11G23G21
   1912012.675 6   1489879.45626  26380120.735
  -6146589.555 7  -4789549.59126  25480614.431
   3526146.544 4   2747666.65322  27268865.943
   3520398.869 5   2743181.29227  24960118.968
 92  5  9  9 46 30.0140000  0  4G28G11G23G21
   2009850.823 6   1566116.93826  26398740.222
  -6150365.815 7  -4792492.13826  25479894.330
   3618723.209 4   2819804.2992   27286494.362
   3567337.191 5   2779756.58927  24969057.877
 92  5  9  9 47  0.0140000  0  3G28G11G21
   2108109.702 6   1642682.27426  26417437.990
  -6153449.165 7  -4794894.74526  25479305.245
   3614532.069 5   2816531.80628  24978031.861
 92  5  9  9 47 30.0140000  0  3G28G11G21
   2206782.056 7   1719569.82925  26436217.601
  -6155846.285 7  -4796762.62027  25478854.367
   3661979.356 6   2853503.72927  24987066.711
 92  5  9  9 48  0.0140000  0  3G28G11G21
   2305868.812 6   1796780.22426  26455073.329
  -6157550.052 7  -4798090.23426  25478526.093
   3709708.257 6   2890695.08128  24996145.013
 92  5  9  9 48 30.0150000  0  3G28G11G21
   2405376.548 6   1874318.74026  26474016.329
  -6158557.964 7  -4798875.62926  25478336.919
   3757738.489 6   2928121.26228  25005292.298
 92  5  9  9 49  0.0150000  0  3G28G11G21
   2505318.333 6   1952195.44425  26493027.957
  -6158854.787 7  -4799106.94026  25478281.148
   3806067.799 6   2965780.43527  25014491.739
 92  5  9  9 49 30.0150000  0  3G28G11G21
   2605695.751 6   2030411.58326  26512126.522
  -6158445.993 6  -4798788.39626  25478356.393
   3854699.911 6   3003675.59327  25023743.321
 92  5  9  9 50  0.0150000  0  3G28G11G21
   2706495.064 6   2108956.45626  26531304.277
  -6157349.341 7  -4797933.86126  25478570.437
   3903615.404 6   3041791.56828  25033051.895
 92  5  9  9 50 30.0150000  0  3G28G11G21
   2807736.259 6   2187845.69226  26550576.716
  -6155550.205 7  -4796531.92426  25478915.498
   3952816.352 7   3080129.99626  25042414.705
 92  5  9  9 51  0.0150000  0  3G28G11G21
   2909421.831 6   2267081.19426  26569926.809
  -6153039.546 7  -4794575.61627  25479385.572
   4002303.089 6   3118691.10026  25051830.877
 92  5  9  9 51 30.0150000  0  3G28G11G21
   3011528.817 6   2346645.02525  26589357.277
  -6149829.729 7  -4792074.40226  25480000.762
   4052075.618 6   3157474.91026  25061305.228
 92  5  9  9 52  0.0150000  0  3G28G11G21
   3114044.465 6   2426527.34625  26608857.860
  -6145916.803 7  -4789025.37525  25480742.152
   4102136.756 5   3196483.62825  25070829.313
 92  5  9  9 52 30.0150000  0  3G28G11G21
   3216956.356 6   2506718.44024  26628454.106
  -6141299.847 7  -4785427.79326  25481618.746
   4152480.366 5   3235712.43425  25080409.482
 92  5  9  9 53  0.0150000  0  3G28G11G21
   3320213.468 6   2587178.48724  26648097.711
  -6136016.880 7  -4781311.15626  25482625.449
   4203069.530 4   3275132.57025  25090037.326
 92  5  9  9 53 30.0150000  0  4G28G11G12G21
   3423864.287 6   2667945.33725  26667815.969
  -6130017.280 7  -4776636.16726  25483771.265
     10548.80114      8206.75722  28283108.811
   4253960.343 4   3314787.74524  25099711.343
 92  5  9  9 54  0.0150000  0  4G28G11G12G21
   3527883.862 6   2748999.54624  26687612.438
  -6123323.007 7  -4771419.86526  25485042.374
     29675.845 5     23110.93022  28286755.173
   4305127.185 5   3354658.03424  25109448.006
 92  5  9  9 54 30.0150000  0  4G28G11G12G21
   3632276.167 6   2830344.18924  26707476.684
  -6115933.642 7  -4765661.91326  25486449.001
     49452.880 5     38521.61923  28290513.078
   4356564.784 5   3394739.23024  25119249.095
 92  5  9  9 55  0.0150000  0  4G28G11G12G21
   3737042.942 6   2911980.62225  26727414.989
  -6107855.002 7  -4759366.86926  25487983.643
     69873.794 4     54434.04822  28294398.683
   4408271.008 5   3435029.82724  25129088.889
 92  5  9  9 55 30.0150000  0  4G28G11G12G21
   3842203.905 6   2993924.19425  26747424.037
  -6099066.676 7  -4752518.83727  25489656.770
     90958.406 4     70863.55623  28298421.028
   4460270.746 5   3475549.04524  25138978.137
 92  5  9  9 56  0.0150000  0  4G28G11G12G21
   3947744.484 6   3076163.60025  26767512.553
  -6089586.337 7  -4745131.53927  25491463.915
    112688.774 4     87796.30123  28302555.752
   4512538.629 6   3516277.23125  25148924.656
 92  5  9  9 56 30.0150000  0  4G28G11G12G21
   4053676.706 6   3158708.13224  26787670.870
  -6079404.903 7  -4737197.95927  25493400.296
    135073.652 5    105239.05323  28306809.487
   4565079.770 6   3557218.34226  25158923.631
 92  5  9  9 57  0.0150000  0  4G28G11G12G21
   4159989.590 6   3241549.34925  26807901.780
  -6068529.846 7  -4728723.90226  25495469.752
    158105.193 4    123185.68425  28311187.363
   4617893.343 6   3598371.75726  25168970.594
 92  5  9  9 57 30.0150000  0  3G28G11G21
   4266683.699 6   3324687.57425  26828204.619
  -6056943.152 7  -4719695.33327  25497677.728
   4670993.001 6   3639748.08527  25179076.573
 92  5  9  9 58  0.0150000  0  4G28G11G25G21
   4373767.524 6   3408129.49625  26848577.330
  -6044635.852 7  -4710105.22126  25500015.219
  -1273326.572 4   -992204.29122  29436862.169
   4724379.361 6   3681347.83327  25189238.952
 92  5  9  9 58 30.0150000  0  4G28G11G25G21
   4481234.103 6   3491869.64325  26869031.254
  -6031593.202 7  -4699942.12726  25502499.293
  -1352776.042 3  -1054112.98022  29421737.368
   4778063.105 7   3723179.32527  25199454.693
 92  5  9  9 59  0.0150000  0  3G28G11G21
   4589051.841 6   3575883.43825  26889552.361
  -6017823.465 7  -4689212.45926  25505119.164
   4832045.101 7   3765243.24326  25209724.670
 92  5  9  9 59 30.0150000  0  3G28G11G21
   4697217.205 6   3660168.12825  26910127.424
  -6003324.434 7  -4677914.51926  25507880.277
   4886325.396 7   3807539.59328  25220051.918
 92  5  9 10  0  0.0150000  0  3G28G11G21
   4805721.591 7   3744716.95825  26930781.920
  -5988108.312 7  -4666057.79726  25510771.743
   4940889.226 6   3850056.88726  25230434.030
 92  5  9 10  0 30.0150000  0  4G28G11G15G21
   4914550.437 6   3829518.62424  26951484.091
  -5972181.359 7  -4653647.19326  25513806.545
   -217415.178 4   -169413.81021  28463364.429
   4995729.269 6   3892789.40325  25240865.596
 92  5  9 10  1  0.0150000  0  4G28G11G15G21
   5023706.789 6   3914575.52125  26972256.097
  -5955553.356 7  -4640690.33326  25516971.456
   -298829.809 4   -232853.68621  28447870.241
   5050830.565 6   3935725.52025  25251363.158
 92  5  9 10  1 30.0150000  0  3G28G11G21
   5133194.895 6   3999890.90822  26993103.977
  -5938229.838 4  -4627191.46822  25520262.602
   5106171.119 4   3978848.08422  25261891.852
 92  5  9 10  2  0.0150000  0  4G28G11G15G21
   5243000.463 6   4085453.62224  27013988.118
  -5920213.683 7  -4613152.90427  25523693.420
    -13548.26514    -10556.65922  28416914.288
   5161745.707 5   4022153.01424  25272456.842
 92  5  9 10  2 30.0150000  0  4G28G11G15G21
   5353107.149 6   4171251.03225  27034935.813
  -5901517.861 7  -4598584.78226  25527252.252
    -94793.012 4    -73864.46622  28401462.679
   5217556.507 6   4065641.94724  25283079.382
 92  5  9 10  3  0.0150000  0  4G28G11G15G21
   5463560.852 6   4257318.79824  27055964.129
  -5882100.175 7  -4583454.09927  25530940.914
   -175934.086 4   -137091.35122  28386015.571
   5273655.507 6   4109355.43724  25293755.286
 92  5  9 10  3 30.0150000  0  4G28G11G15G21
   5574352.729 6   4343650.11524  27077048.843
  -5861966.685 7  -4567765.70826  25534780.939
   -256962.883 5   -200230.64422  28370592.162
   5330043.132 6   4153293.75225  25304493.278
 92  5  9 10  4  0.0150000  0  4G28G11G15G21
   5685473.993 6   4430238.08325  27098186.012
  -5841123.725 7  -4551524.43426  25538740.289
   -337876.256 4   -263280.00322  28355183.410
   5386712.895 7   4197451.96125  25315278.908
 92  5  9 10  4 30.0150000  0  4G28G11G15G21
   5796930.198 6   4517087.05623  27119402.615
  -5819567.729 7  -4534727.56026  25542845.348
   -418678.447 4   -326242.83622  28339822.961
   5443652.610 7   4241820.53326  25326114.307
 92  5  9 10  5  0.0150000  0  5G28G11G12G15G21
   5908714.815 6   4604191.91723  27140680.992
  -5797294.452 7  -4517371.78126  25547081.423
     23606.83715     18381.87323  28398548.702
   -499376.973 3   -389124.75822  28324445.689
   5500839.308 6   4286381.53427  25336993.471
 92  5  9 10  5 30.0150000  0  4G28G11G12G21
   6020814.832 6   4691542.56024  27162007.043
  -5774302.660 7  -4499456.08727  25551460.486
     57901.512 5     45104.93423  28405076.060
   5558259.855 6   4331124.79826  25347914.899
 92  5  9 10  6  0.0150000  0  4G28G11G12G21
   6133197.292 6   4779113.30523  27183390.644
  -5750610.457 7  -4480994.64827  25555969.971
     92843.331 5     72332.33021  28411725.780
   5615895.997 6   4376036.09827  25358886.095
